<?xml version="1.0" encoding="UTF-8" standalone="no" ?>
<gpx xmlns="http://www.topografix.com/GPX/1/1" xmlns:xsi="http://www.w3.org/2001/XMLSchema-instance" xsi:schemaLocation="http://www.topografix.com/GPX/1/1 http://www.topografix.com/GPX/1/1/gpx.xsd" version="1.1" creator="VisuGPX - https://www.visugpx.com">
  <metadata>
    <name>Aller retour Paris Amsterdam</name>
  </metadata>
  <trk>
    <name><![CDATA[BRUXELLES - ANVERS CANAL WILLEBROEK]]></name>
    <extensions>
      <line xmlns="http://www.topografix.com/GPX/gpx_style/0/2">
        <color>0000FF</color>
        <width>4</width>
      </line>
    </extensions>
    <trkseg>
      <trkpt lat="51.21983" lon="4.39833">
        <ele>15.07</ele>
        <time>2012-08-12T12:30:15Z</time>
      </trkpt>
      <trkpt lat="51.21977" lon="4.39825">
        <ele>17.012</ele>
        <time>2012-08-12T12:30:02Z</time>
      </trkpt>
      <trkpt lat="51.21963" lon="4.39807">
        <ele>17.007</ele>
        <time>2012-08-12T12:29:45Z</time>
      </trkpt>
      <trkpt lat="51.21955" lon="4.39806">
        <ele>17.025</ele>
        <time>2012-08-12T12:29:34Z</time>
      </trkpt>
      <trkpt lat="51.21949" lon="4.398">
        <ele>17.023</ele>
        <time>2012-08-12T12:29:20Z</time>
      </trkpt>
      <trkpt lat="51.21945" lon="4.39798">
        <ele>16.597</ele>
        <time>2012-08-12T12:29:13Z</time>
      </trkpt>
      <trkpt lat="51.21931" lon="4.3979">
        <ele>16.595</ele>
        <time>2012-08-12T12:28:52Z</time>
      </trkpt>
      <trkpt lat="51.21939" lon="4.3979">
        <ele>16.082</ele>
        <time>2012-08-12T12:28:25Z</time>
      </trkpt>
      <trkpt lat="51.21945" lon="4.39794">
        <ele>15.579</ele>
        <time>2012-08-12T12:28:09Z</time>
      </trkpt>
      <trkpt lat="51.21943" lon="4.39792">
        <ele>15.019</ele>
        <time>2012-08-12T12:27:57Z</time>
      </trkpt>
      <trkpt lat="51.21936" lon="4.39787">
        <ele>14.617</ele>
        <time>2012-08-12T12:27:41Z</time>
      </trkpt>
      <trkpt lat="51.21925" lon="4.39773">
        <ele>13.669</ele>
        <time>2012-08-12T12:27:23Z</time>
      </trkpt>
      <trkpt lat="51.21914" lon="4.39757">
        <ele>13.631</ele>
        <time>2012-08-12T12:27:06Z</time>
      </trkpt>
      <trkpt lat="51.219" lon="4.39744">
        <ele>13.607</ele>
        <time>2012-08-12T12:26:51Z</time>
      </trkpt>
      <trkpt lat="51.21887" lon="4.39726">
        <ele>13.126</ele>
        <time>2012-08-12T12:26:37Z</time>
      </trkpt>
      <trkpt lat="51.21873" lon="4.39713">
        <ele>13.124</ele>
        <time>2012-08-12T12:26:21Z</time>
      </trkpt>
      <trkpt lat="51.21866" lon="4.39706">
        <ele>12.688</ele>
        <time>2012-08-12T12:26:12Z</time>
      </trkpt>
      <trkpt lat="51.21856" lon="4.39691">
        <ele>12.244</ele>
        <time>2012-08-12T12:25:56Z</time>
      </trkpt>
      <trkpt lat="51.21856" lon="4.3969">
        <ele>12.641</ele>
        <time>2012-08-12T12:25:54Z</time>
      </trkpt>
      <trkpt lat="51.21855" lon="4.39672">
        <ele>12.288</ele>
        <time>2012-08-12T12:25:41Z</time>
      </trkpt>
      <trkpt lat="51.21857" lon="4.3965">
        <ele>12.298</ele>
        <time>2012-08-12T12:25:26Z</time>
      </trkpt>
      <trkpt lat="51.21858" lon="4.39642">
        <ele>11.796</ele>
        <time>2012-08-12T12:25:10Z</time>
      </trkpt>
      <trkpt lat="51.21859" lon="4.39632">
        <ele>11.788</ele>
        <time>2012-08-12T12:24:56Z</time>
      </trkpt>
      <trkpt lat="51.21861" lon="4.39624">
        <ele>11.73</ele>
        <time>2012-08-12T12:24:43Z</time>
      </trkpt>
      <trkpt lat="51.21862" lon="4.39627">
        <ele>11.707</ele>
        <time>2012-08-12T12:24:29Z</time>
      </trkpt>
      <trkpt lat="51.21869" lon="4.39627">
        <ele>12.226</ele>
        <time>2012-08-12T12:24:12Z</time>
      </trkpt>
      <trkpt lat="51.21872" lon="4.39621">
        <ele>11.733</ele>
        <time>2012-08-12T12:23:52Z</time>
      </trkpt>
      <trkpt lat="51.21876" lon="4.39616">
        <ele>12.278</ele>
        <time>2012-08-12T12:23:42Z</time>
      </trkpt>
      <trkpt lat="51.21877" lon="4.39614">
        <ele>12.254</ele>
        <time>2012-08-12T12:23:35Z</time>
      </trkpt>
      <trkpt lat="51.21876" lon="4.39617">
        <ele>11.761</ele>
        <time>2012-08-12T12:23:22Z</time>
      </trkpt>
      <trkpt lat="51.2188" lon="4.39609">
        <ele>11.728</ele>
        <time>2012-08-12T12:23:09Z</time>
      </trkpt>
      <trkpt lat="51.21889" lon="4.39627">
        <ele>12.628</ele>
        <time>2012-08-12T12:22:55Z</time>
      </trkpt>
      <trkpt lat="51.2206" lon="4.38828">
        <ele>5.476</ele>
        <time>2012-08-12T12:15:24Z</time>
      </trkpt>
      <trkpt lat="51.22061" lon="4.38831">
        <ele>8.858</ele>
        <time>2012-08-12T12:15:19Z</time>
      </trkpt>
      <trkpt lat="51.22061" lon="4.38834">
        <ele>9.81</ele>
        <time>2012-08-12T12:15:17Z</time>
      </trkpt>
      <trkpt lat="51.22067" lon="4.38849">
        <ele>11.207</ele>
        <time>2012-08-12T12:15:04Z</time>
      </trkpt>
      <trkpt lat="51.22069" lon="4.38849">
        <ele>11.225</ele>
        <time>2012-08-12T12:15:03Z</time>
      </trkpt>
      <trkpt lat="51.22071" lon="4.38849">
        <ele>11.205</ele>
        <time>2012-08-12T12:15:02Z</time>
      </trkpt>
      <trkpt lat="51.22073" lon="4.38848">
        <ele>11.779</ele>
        <time>2012-08-12T12:15:01Z</time>
      </trkpt>
      <trkpt lat="51.22074" lon="4.38847">
        <ele>11.783</ele>
        <time>2012-08-12T12:15:00Z</time>
      </trkpt>
      <trkpt lat="51.22075" lon="4.38845">
        <ele>11.78</ele>
        <time>2012-08-12T12:14:59Z</time>
      </trkpt>
      <trkpt lat="51.22076" lon="4.38843">
        <ele>11.257</ele>
        <time>2012-08-12T12:14:58Z</time>
      </trkpt>
      <trkpt lat="51.22077" lon="4.38841">
        <ele>11.297</ele>
        <time>2012-08-12T12:14:57Z</time>
      </trkpt>
      <trkpt lat="51.22078" lon="4.3884">
        <ele>11.235</ele>
        <time>2012-08-12T12:14:56Z</time>
      </trkpt>
      <trkpt lat="51.2208" lon="4.38837">
        <ele>11.237</ele>
        <time>2012-08-12T12:14:54Z</time>
      </trkpt>
      <trkpt lat="51.22079" lon="4.38835">
        <ele>11.219</ele>
        <time>2012-08-12T12:14:53Z</time>
      </trkpt>
      <trkpt lat="51.22078" lon="4.38834">
        <ele>11.707</ele>
        <time>2012-08-12T12:14:52Z</time>
      </trkpt>
      <trkpt lat="51.22078" lon="4.38831">
        <ele>11.214</ele>
        <time>2012-08-12T12:14:45Z</time>
      </trkpt>
      <trkpt lat="51.2208" lon="4.38829">
        <ele>11.268</ele>
        <time>2012-08-12T12:14:44Z</time>
      </trkpt>
      <trkpt lat="51.22082" lon="4.38827">
        <ele>11.765</ele>
        <time>2012-08-12T12:14:43Z</time>
      </trkpt>
      <trkpt lat="51.22084" lon="4.38827">
        <ele>11.785</ele>
        <time>2012-08-12T12:14:42Z</time>
      </trkpt>
      <trkpt lat="51.22085" lon="4.3883">
        <ele>11.212</ele>
        <time>2012-08-12T12:14:41Z</time>
      </trkpt>
      <trkpt lat="51.22082" lon="4.38846">
        <ele>11.259</ele>
        <time>2012-08-12T12:14:36Z</time>
      </trkpt>
      <trkpt lat="51.22082" lon="4.38849">
        <ele>11.219</ele>
        <time>2012-08-12T12:14:35Z</time>
      </trkpt>
      <trkpt lat="51.22082" lon="4.38852">
        <ele>11.287</ele>
        <time>2012-08-12T12:14:34Z</time>
      </trkpt>
      <trkpt lat="51.22103" lon="4.38866">
        <ele>11.759</ele>
        <time>2012-08-12T12:14:24Z</time>
      </trkpt>
      <trkpt lat="51.22105" lon="4.38868">
        <ele>11.761</ele>
        <time>2012-08-12T12:14:23Z</time>
      </trkpt>
      <trkpt lat="51.22106" lon="4.38869">
        <ele>11.207</ele>
        <time>2012-08-12T12:14:22Z</time>
      </trkpt>
      <trkpt lat="51.22107" lon="4.38869">
        <ele>11.226</ele>
        <time>2012-08-12T12:14:19Z</time>
      </trkpt>
      <trkpt lat="51.22106" lon="4.38869">
        <ele>10.742</ele>
        <time>2012-08-12T12:14:17Z</time>
      </trkpt>
      <trkpt lat="51.22107" lon="4.38877">
        <ele>11.263</ele>
        <time>2012-08-12T12:13:34Z</time>
      </trkpt>
      <trkpt lat="51.22107" lon="4.38875">
        <ele>11.71</ele>
        <time>2012-08-12T12:13:33Z</time>
      </trkpt>
      <trkpt lat="51.22107" lon="4.38874">
        <ele>11.217</ele>
        <time>2012-08-12T12:13:29Z</time>
      </trkpt>
      <trkpt lat="51.22108" lon="4.38875">
        <ele>11.257</ele>
        <time>2012-08-12T12:13:28Z</time>
      </trkpt>
      <trkpt lat="51.2211" lon="4.38878">
        <ele>11.765</ele>
        <time>2012-08-12T12:13:27Z</time>
      </trkpt>
      <trkpt lat="51.22111" lon="4.38881">
        <ele>11.227</ele>
        <time>2012-08-12T12:13:26Z</time>
      </trkpt>
      <trkpt lat="51.22097" lon="4.38937">
        <ele>11.789</ele>
        <time>2012-08-12T12:13:15Z</time>
      </trkpt>
      <trkpt lat="51.22096" lon="4.38942">
        <ele>11.707</ele>
        <time>2012-08-12T12:13:14Z</time>
      </trkpt>
      <trkpt lat="51.22097" lon="4.38957">
        <ele>12.216</ele>
        <time>2012-08-12T12:13:10Z</time>
      </trkpt>
      <trkpt lat="51.22129" lon="4.38978">
        <ele>13.106</ele>
        <time>2012-08-12T12:12:58Z</time>
      </trkpt>
      <trkpt lat="51.22131" lon="4.38982">
        <ele>12.664</ele>
        <time>2012-08-12T12:12:57Z</time>
      </trkpt>
      <trkpt lat="51.2213" lon="4.38997">
        <ele>12.691</ele>
        <time>2012-08-12T12:12:53Z</time>
      </trkpt>
      <trkpt lat="51.22129" lon="4.39003">
        <ele>12.618</ele>
        <time>2012-08-12T12:12:51Z</time>
      </trkpt>
      <trkpt lat="51.22128" lon="4.39007">
        <ele>12.625</ele>
        <time>2012-08-12T12:12:43Z</time>
      </trkpt>
      <trkpt lat="51.22128" lon="4.3901">
        <ele>13.155</ele>
        <time>2012-08-12T12:12:15Z</time>
      </trkpt>
      <trkpt lat="51.22129" lon="4.39011">
        <ele>13.147</ele>
        <time>2012-08-12T12:10:55Z</time>
      </trkpt>
      <trkpt lat="51.22129" lon="4.39003">
        <ele>12.607</ele>
        <time>2012-08-12T12:10:44Z</time>
      </trkpt>
      <trkpt lat="51.22128" lon="4.39001">
        <ele>12.611</ele>
        <time>2012-08-12T12:10:34Z</time>
      </trkpt>
      <trkpt lat="51.22128" lon="4.39">
        <ele>12.647</ele>
        <time>2012-08-12T12:10:33Z</time>
      </trkpt>
      <trkpt lat="51.2213" lon="4.38999">
        <ele>13.145</ele>
        <time>2012-08-12T12:10:31Z</time>
      </trkpt>
      <trkpt lat="51.22133" lon="4.38994">
        <ele>12.641</ele>
        <time>2012-08-12T12:10:26Z</time>
      </trkpt>
      <trkpt lat="51.22134" lon="4.38992">
        <ele>12.658</ele>
        <time>2012-08-12T12:10:25Z</time>
      </trkpt>
      <trkpt lat="51.22136" lon="4.38991">
        <ele>13.135</ele>
        <time>2012-08-12T12:10:21Z</time>
      </trkpt>
      <trkpt lat="51.22137" lon="4.38985">
        <ele>13.145</ele>
        <time>2012-08-12T12:09:48Z</time>
      </trkpt>
      <trkpt lat="51.22136" lon="4.38989">
        <ele>12.693</ele>
        <time>2012-08-12T12:09:16Z</time>
      </trkpt>
      <trkpt lat="51.22137" lon="4.38986">
        <ele>12.675</ele>
        <time>2012-08-12T12:08:44Z</time>
      </trkpt>
      <trkpt lat="51.22138" lon="4.38987">
        <ele>13.157</ele>
        <time>2012-08-12T12:08:15Z</time>
      </trkpt>
      <trkpt lat="51.22139" lon="4.3899">
        <ele>12.607</ele>
        <time>2012-08-12T12:07:51Z</time>
      </trkpt>
      <trkpt lat="51.22138" lon="4.3899">
        <ele>12.211</ele>
        <time>2012-08-12T12:07:22Z</time>
      </trkpt>
      <trkpt lat="51.22136" lon="4.38988">
        <ele>12.647</ele>
        <time>2012-08-12T12:06:55Z</time>
      </trkpt>
      <trkpt lat="51.22136" lon="4.38975">
        <ele>13.145</ele>
        <time>2012-08-12T12:06:41Z</time>
      </trkpt>
      <trkpt lat="51.22145" lon="4.38929">
        <ele>13.169</ele>
        <time>2012-08-12T12:06:28Z</time>
      </trkpt>
      <trkpt lat="51.22159" lon="4.38864">
        <ele>12.636</ele>
        <time>2012-08-12T12:06:13Z</time>
      </trkpt>
      <trkpt lat="51.2216" lon="4.38859">
        <ele>12.653</ele>
        <time>2012-08-12T12:06:12Z</time>
      </trkpt>
      <trkpt lat="51.22161" lon="4.38853">
        <ele>12.613</ele>
        <time>2012-08-12T12:06:11Z</time>
      </trkpt>
      <trkpt lat="51.22162" lon="4.38848">
        <ele>12.221</ele>
        <time>2012-08-12T12:06:10Z</time>
      </trkpt>
      <trkpt lat="51.22162" lon="4.38843">
        <ele>12.223</ele>
        <time>2012-08-12T12:06:09Z</time>
      </trkpt>
      <trkpt lat="51.22161" lon="4.38838">
        <ele>12.665</ele>
        <time>2012-08-12T12:06:08Z</time>
      </trkpt>
      <trkpt lat="51.22159" lon="4.38834">
        <ele>12.207</ele>
        <time>2012-08-12T12:06:07Z</time>
      </trkpt>
      <trkpt lat="51.22121" lon="4.38811">
        <ele>11.217</ele>
        <time>2012-08-12T12:05:53Z</time>
      </trkpt>
      <trkpt lat="51.22081" lon="4.38784">
        <ele>11.289</ele>
        <time>2012-08-12T12:05:36Z</time>
      </trkpt>
      <trkpt lat="51.22078" lon="4.38781">
        <ele>11.228</ele>
        <time>2012-08-12T12:05:35Z</time>
      </trkpt>
      <trkpt lat="51.22075" lon="4.38779">
        <ele>10.768</ele>
        <time>2012-08-12T12:05:34Z</time>
      </trkpt>
      <trkpt lat="51.22073" lon="4.38775">
        <ele>11.245</ele>
        <time>2012-08-12T12:05:33Z</time>
      </trkpt>
      <trkpt lat="51.22071" lon="4.38772">
        <ele>11.282</ele>
        <time>2012-08-12T12:05:32Z</time>
      </trkpt>
      <trkpt lat="51.2207" lon="4.38768">
        <ele>11.232</ele>
        <time>2012-08-12T12:05:31Z</time>
      </trkpt>
      <trkpt lat="51.22067" lon="4.38764">
        <ele>11.28</ele>
        <time>2012-08-12T12:05:30Z</time>
      </trkpt>
      <trkpt lat="51.22029" lon="4.38744">
        <ele>11.762</ele>
        <time>2012-08-12T12:05:20Z</time>
      </trkpt>
      <trkpt lat="51.22025" lon="4.38741">
        <ele>11.714</ele>
        <time>2012-08-12T12:05:19Z</time>
      </trkpt>
      <trkpt lat="51.22017" lon="4.38734">
        <ele>11.707</ele>
        <time>2012-08-12T12:05:17Z</time>
      </trkpt>
      <trkpt lat="51.22013" lon="4.38731">
        <ele>11.713</ele>
        <time>2012-08-12T12:05:16Z</time>
      </trkpt>
      <trkpt lat="51.21998" lon="4.38721">
        <ele>12.276</ele>
        <time>2012-08-12T12:05:12Z</time>
      </trkpt>
      <trkpt lat="51.21957" lon="4.38685">
        <ele>12.216</ele>
        <time>2012-08-12T12:04:59Z</time>
      </trkpt>
      <trkpt lat="51.21935" lon="4.38633">
        <ele>11.793</ele>
        <time>2012-08-12T12:04:46Z</time>
      </trkpt>
      <trkpt lat="51.21934" lon="4.38629">
        <ele>11.27</ele>
        <time>2012-08-12T12:04:45Z</time>
      </trkpt>
      <trkpt lat="51.2192" lon="4.38619">
        <ele>11.247</ele>
        <time>2012-08-12T12:04:39Z</time>
      </trkpt>
      <trkpt lat="51.21918" lon="4.38619">
        <ele>11.217</ele>
        <time>2012-08-12T12:04:38Z</time>
      </trkpt>
      <trkpt lat="51.21917" lon="4.38618">
        <ele>11.795</ele>
        <time>2012-08-12T12:04:37Z</time>
      </trkpt>
      <trkpt lat="51.21916" lon="4.38618">
        <ele>10.767</ele>
        <time>2012-08-12T12:04:36Z</time>
      </trkpt>
      <trkpt lat="51.21915" lon="4.38618">
        <ele>10.799</ele>
        <time>2012-08-12T12:04:35Z</time>
      </trkpt>
      <trkpt lat="51.21914" lon="4.38619">
        <ele>11.707</ele>
        <time>2012-08-12T12:04:34Z</time>
      </trkpt>
      <trkpt lat="51.21913" lon="4.3862">
        <ele>10.716</ele>
        <time>2012-08-12T12:04:33Z</time>
      </trkpt>
      <trkpt lat="51.21913" lon="4.38619">
        <ele>11.206</ele>
        <time>2012-08-12T12:04:22Z</time>
      </trkpt>
      <trkpt lat="51.21912" lon="4.38617">
        <ele>10.764</ele>
        <time>2012-08-12T12:03:52Z</time>
      </trkpt>
      <trkpt lat="51.21911" lon="4.38614">
        <ele>10.738</ele>
        <time>2012-08-12T12:03:28Z</time>
      </trkpt>
      <trkpt lat="51.21911" lon="4.38616">
        <ele>10.725</ele>
        <time>2012-08-12T12:03:03Z</time>
      </trkpt>
      <trkpt lat="51.21912" lon="4.38617">
        <ele>11.292</ele>
        <time>2012-08-12T12:02:51Z</time>
      </trkpt>
      <trkpt lat="51.21914" lon="4.38617">
        <ele>11.262</ele>
        <time>2012-08-12T12:02:50Z</time>
      </trkpt>
      <trkpt lat="51.21936" lon="4.38635">
        <ele>11.23</ele>
        <time>2012-08-12T12:02:40Z</time>
      </trkpt>
      <trkpt lat="51.21939" lon="4.38638">
        <ele>11.282</ele>
        <time>2012-08-12T12:02:39Z</time>
      </trkpt>
      <trkpt lat="51.2194" lon="4.38641">
        <ele>11.244</ele>
        <time>2012-08-12T12:02:38Z</time>
      </trkpt>
      <trkpt lat="51.21942" lon="4.38645">
        <ele>11.207</ele>
        <time>2012-08-12T12:02:37Z</time>
      </trkpt>
      <trkpt lat="51.21941" lon="4.38649">
        <ele>11.207</ele>
        <time>2012-08-12T12:02:36Z</time>
      </trkpt>
      <trkpt lat="51.21939" lon="4.38651">
        <ele>10.743</ele>
        <time>2012-08-12T12:02:35Z</time>
      </trkpt>
      <trkpt lat="51.21913" lon="4.38634">
        <ele>10.713</ele>
        <time>2012-08-12T12:02:23Z</time>
      </trkpt>
      <trkpt lat="51.21912" lon="4.38643">
        <ele>11.289</ele>
        <time>2012-08-12T12:02:14Z</time>
      </trkpt>
      <trkpt lat="51.21905" lon="4.38655">
        <ele>11.276</ele>
        <time>2012-08-12T12:02:09Z</time>
      </trkpt>
      <trkpt lat="51.21898" lon="4.38654">
        <ele>10.753</ele>
        <time>2012-08-12T12:02:06Z</time>
      </trkpt>
      <trkpt lat="51.21839" lon="4.38613">
        <ele>11.243</ele>
        <time>2012-08-12T12:01:50Z</time>
      </trkpt>
      <trkpt lat="51.21776" lon="4.38561">
        <ele>11.741</ele>
        <time>2012-08-12T12:01:34Z</time>
      </trkpt>
      <trkpt lat="51.21709" lon="4.38501">
        <ele>12.613</ele>
        <time>2012-08-12T12:01:18Z</time>
      </trkpt>
      <trkpt lat="51.21701" lon="4.38494">
        <ele>12.275</ele>
        <time>2012-08-12T12:01:16Z</time>
      </trkpt>
      <trkpt lat="51.21645" lon="4.38439">
        <ele>12.207</ele>
        <time>2012-08-12T12:00:59Z</time>
      </trkpt>
      <trkpt lat="51.21632" lon="4.38443">
        <ele>12.214</ele>
        <time>2012-08-12T12:00:54Z</time>
      </trkpt>
      <trkpt lat="51.21629" lon="4.38462">
        <ele>12.204</ele>
        <time>2012-08-12T12:00:48Z</time>
      </trkpt>
      <trkpt lat="51.2163" lon="4.38501">
        <ele>12.224</ele>
        <time>2012-08-12T12:00:36Z</time>
      </trkpt>
      <trkpt lat="51.2163" lon="4.38504">
        <ele>12.256</ele>
        <time>2012-08-12T12:00:34Z</time>
      </trkpt>
      <trkpt lat="51.21629" lon="4.38506">
        <ele>11.723</ele>
        <time>2012-08-12T12:00:29Z</time>
      </trkpt>
      <trkpt lat="51.21636" lon="4.385">
        <ele>12.65</ele>
        <time>2012-08-12T12:00:17Z</time>
      </trkpt>
      <trkpt lat="51.21642" lon="4.38489">
        <ele>12.26</ele>
        <time>2012-08-12T12:00:13Z</time>
      </trkpt>
      <trkpt lat="51.21632" lon="4.3846">
        <ele>12.248</ele>
        <time>2012-08-12T12:00:05Z</time>
      </trkpt>
      <trkpt lat="51.21637" lon="4.38436">
        <ele>11.75</ele>
        <time>2012-08-12T11:59:58Z</time>
      </trkpt>
      <trkpt lat="51.21639" lon="4.38437">
        <ele>12.282</ele>
        <time>2012-08-12T11:59:57Z</time>
      </trkpt>
      <trkpt lat="51.21675" lon="4.38473">
        <ele>12.207</ele>
        <time>2012-08-12T11:59:45Z</time>
      </trkpt>
      <trkpt lat="51.21678" lon="4.38474">
        <ele>11.725</ele>
        <time>2012-08-12T11:59:44Z</time>
      </trkpt>
      <trkpt lat="51.21681" lon="4.38476">
        <ele>11.723</ele>
        <time>2012-08-12T11:59:43Z</time>
      </trkpt>
      <trkpt lat="51.21686" lon="4.38479">
        <ele>11.797</ele>
        <time>2012-08-12T11:59:40Z</time>
      </trkpt>
      <trkpt lat="51.21678" lon="4.38472">
        <ele>11.771</ele>
        <time>2012-08-12T11:59:34Z</time>
      </trkpt>
      <trkpt lat="51.21633" lon="4.38421">
        <ele>12.258</ele>
        <time>2012-08-12T11:59:19Z</time>
      </trkpt>
      <trkpt lat="51.21629" lon="4.38417">
        <ele>12.285</ele>
        <time>2012-08-12T11:59:18Z</time>
      </trkpt>
      <trkpt lat="51.21625" lon="4.38413">
        <ele>12.665</ele>
        <time>2012-08-12T11:59:17Z</time>
      </trkpt>
      <trkpt lat="51.21621" lon="4.3841">
        <ele>12.673</ele>
        <time>2012-08-12T11:59:16Z</time>
      </trkpt>
      <trkpt lat="51.21617" lon="4.38406">
        <ele>12.635</ele>
        <time>2012-08-12T11:59:15Z</time>
      </trkpt>
      <trkpt lat="51.21605" lon="4.38394">
        <ele>12.617</ele>
        <time>2012-08-12T11:59:12Z</time>
      </trkpt>
      <trkpt lat="51.21602" lon="4.3839">
        <ele>12.607</ele>
        <time>2012-08-12T11:59:11Z</time>
      </trkpt>
      <trkpt lat="51.21571" lon="4.38356">
        <ele>15.01</ele>
        <time>2012-08-12T11:59:02Z</time>
      </trkpt>
      <trkpt lat="51.21539" lon="4.38317">
        <ele>12.264</ele>
        <time>2012-08-12T11:58:53Z</time>
      </trkpt>
      <trkpt lat="51.21481" lon="4.38239">
        <ele>11.743</ele>
        <time>2012-08-12T11:58:37Z</time>
      </trkpt>
      <trkpt lat="51.21478" lon="4.38234">
        <ele>12.29</ele>
        <time>2012-08-12T11:58:36Z</time>
      </trkpt>
      <trkpt lat="51.21475" lon="4.38229">
        <ele>12.277</ele>
        <time>2012-08-12T11:58:35Z</time>
      </trkpt>
      <trkpt lat="51.21467" lon="4.38222">
        <ele>11.764</ele>
        <time>2012-08-12T11:58:33Z</time>
      </trkpt>
      <trkpt lat="51.21463" lon="4.38218">
        <ele>12.274</ele>
        <time>2012-08-12T11:58:32Z</time>
      </trkpt>
      <trkpt lat="51.21458" lon="4.38214">
        <ele>11.722</ele>
        <time>2012-08-12T11:58:31Z</time>
      </trkpt>
      <trkpt lat="51.21454" lon="4.38211">
        <ele>11.714</ele>
        <time>2012-08-12T11:58:30Z</time>
      </trkpt>
      <trkpt lat="51.21449" lon="4.3821">
        <ele>11.776</ele>
        <time>2012-08-12T11:58:29Z</time>
      </trkpt>
      <trkpt lat="51.21445" lon="4.38209">
        <ele>12.207</ele>
        <time>2012-08-12T11:58:28Z</time>
      </trkpt>
      <trkpt lat="51.2144" lon="4.38207">
        <ele>12.214</ele>
        <time>2012-08-12T11:58:27Z</time>
      </trkpt>
      <trkpt lat="51.21414" lon="4.38169">
        <ele>12.286</ele>
        <time>2012-08-12T11:58:19Z</time>
      </trkpt>
      <trkpt lat="51.21351" lon="4.38068">
        <ele>12.635</ele>
        <time>2012-08-12T11:58:00Z</time>
      </trkpt>
      <trkpt lat="51.21326" lon="4.38024">
        <ele>12.233</ele>
        <time>2012-08-12T11:57:52Z</time>
      </trkpt>
      <trkpt lat="51.21267" lon="4.37901">
        <ele>12.28</ele>
        <time>2012-08-12T11:57:31Z</time>
      </trkpt>
      <trkpt lat="51.21211" lon="4.37779">
        <ele>12.627</ele>
        <time>2012-08-12T11:57:12Z</time>
      </trkpt>
      <trkpt lat="51.21157" lon="4.37662">
        <ele>12.697</ele>
        <time>2012-08-12T11:56:54Z</time>
      </trkpt>
      <trkpt lat="51.21106" lon="4.37551">
        <ele>12.265</ele>
        <time>2012-08-12T11:56:38Z</time>
      </trkpt>
      <trkpt lat="51.21087" lon="4.37509">
        <ele>11.757</ele>
        <time>2012-08-12T11:56:32Z</time>
      </trkpt>
      <trkpt lat="51.21034" lon="4.37394">
        <ele>12.699</ele>
        <time>2012-08-12T11:56:15Z</time>
      </trkpt>
      <trkpt lat="51.20971" lon="4.37258">
        <ele>12.607</ele>
        <time>2012-08-12T11:55:55Z</time>
      </trkpt>
      <trkpt lat="51.20968" lon="4.37251">
        <ele>13.114</ele>
        <time>2012-08-12T11:55:54Z</time>
      </trkpt>
      <trkpt lat="51.20961" lon="4.37228">
        <ele>12.268</ele>
        <time>2012-08-12T11:55:51Z</time>
      </trkpt>
      <trkpt lat="51.20925" lon="4.37147">
        <ele>12.665</ele>
        <time>2012-08-12T11:55:39Z</time>
      </trkpt>
      <trkpt lat="51.20867" lon="4.36989">
        <ele>12.694</ele>
        <time>2012-08-12T11:55:16Z</time>
      </trkpt>
      <trkpt lat="51.20819" lon="4.36851">
        <ele>13.671</ele>
        <time>2012-08-12T11:54:55Z</time>
      </trkpt>
      <trkpt lat="51.20815" lon="4.36839">
        <ele>12.628</ele>
        <time>2012-08-12T11:54:53Z</time>
      </trkpt>
      <trkpt lat="51.20792" lon="4.36772">
        <ele>12.238</ele>
        <time>2012-08-12T11:54:41Z</time>
      </trkpt>
      <trkpt lat="51.20755" lon="4.36678">
        <ele>12.686</ele>
        <time>2012-08-12T11:54:24Z</time>
      </trkpt>
      <trkpt lat="51.20706" lon="4.36544">
        <ele>12.218</ele>
        <time>2012-08-12T11:54:04Z</time>
      </trkpt>
      <trkpt lat="51.20652" lon="4.36393">
        <ele>12.25</ele>
        <time>2012-08-12T11:53:42Z</time>
      </trkpt>
      <trkpt lat="51.20649" lon="4.36386">
        <ele>12.607</ele>
        <time>2012-08-12T11:53:41Z</time>
      </trkpt>
      <trkpt lat="51.20647" lon="4.36379">
        <ele>12.619</ele>
        <time>2012-08-12T11:53:40Z</time>
      </trkpt>
      <trkpt lat="51.20607" lon="4.36264">
        <ele>12.29</ele>
        <time>2012-08-12T11:53:22Z</time>
      </trkpt>
      <trkpt lat="51.20572" lon="4.3615">
        <ele>12.676</ele>
        <time>2012-08-12T11:53:05Z</time>
      </trkpt>
      <trkpt lat="51.20521" lon="4.35983">
        <ele>12.624</ele>
        <time>2012-08-12T11:52:40Z</time>
      </trkpt>
      <trkpt lat="51.20485" lon="4.35861">
        <ele>11.721</ele>
        <time>2012-08-12T11:52:21Z</time>
      </trkpt>
      <trkpt lat="51.20447" lon="4.35737">
        <ele>10.738</ele>
        <time>2012-08-12T11:52:01Z</time>
      </trkpt>
      <trkpt lat="51.20416" lon="4.35636">
        <ele>11.268</ele>
        <time>2012-08-12T11:51:44Z</time>
      </trkpt>
      <trkpt lat="51.20414" lon="4.3563">
        <ele>15.046</ele>
        <time>2012-08-12T11:51:43Z</time>
      </trkpt>
      <trkpt lat="51.20395" lon="4.35571">
        <ele>11.228</ele>
        <time>2012-08-12T11:51:32Z</time>
      </trkpt>
      <trkpt lat="51.2036" lon="4.35471">
        <ele>11.23</ele>
        <time>2012-08-12T11:51:15Z</time>
      </trkpt>
      <trkpt lat="51.2033" lon="4.35388">
        <ele>11.707</ele>
        <time>2012-08-12T11:51:00Z</time>
      </trkpt>
      <trkpt lat="51.2029" lon="4.35269">
        <ele>11.713</ele>
        <time>2012-08-12T11:50:40Z</time>
      </trkpt>
      <trkpt lat="51.20258" lon="4.35182">
        <ele>11.785</ele>
        <time>2012-08-12T11:50:24Z</time>
      </trkpt>
      <trkpt lat="51.2024" lon="4.3512">
        <ele>10.773</ele>
        <time>2012-08-12T11:50:12Z</time>
      </trkpt>
      <trkpt lat="51.2024" lon="4.35115">
        <ele>11.263</ele>
        <time>2012-08-12T11:50:11Z</time>
      </trkpt>
      <trkpt lat="51.20239" lon="4.35109">
        <ele>11.74</ele>
        <time>2012-08-12T11:50:10Z</time>
      </trkpt>
      <trkpt lat="51.20238" lon="4.35105">
        <ele>11.297</ele>
        <time>2012-08-12T11:50:09Z</time>
      </trkpt>
      <trkpt lat="51.20236" lon="4.35101">
        <ele>10.737</ele>
        <time>2012-08-12T11:50:08Z</time>
      </trkpt>
      <trkpt lat="51.20235" lon="4.35097">
        <ele>11.225</ele>
        <time>2012-08-12T11:50:07Z</time>
      </trkpt>
      <trkpt lat="51.20233" lon="4.35093">
        <ele>10.737</ele>
        <time>2012-08-12T11:50:06Z</time>
      </trkpt>
      <trkpt lat="51.20231" lon="4.35074">
        <ele>10.759</ele>
        <time>2012-08-12T11:50:01Z</time>
      </trkpt>
      <trkpt lat="51.20221" lon="4.35017">
        <ele>10.207</ele>
        <time>2012-08-12T11:49:46Z</time>
      </trkpt>
      <trkpt lat="51.20221" lon="4.35014">
        <ele>10.721</ele>
        <time>2012-08-12T11:49:45Z</time>
      </trkpt>
      <trkpt lat="51.20221" lon="4.35011">
        <ele>10.229</ele>
        <time>2012-08-12T11:49:44Z</time>
      </trkpt>
      <trkpt lat="51.20218" lon="4.35002">
        <ele>10.266</ele>
        <time>2012-08-12T11:49:40Z</time>
      </trkpt>
      <trkpt lat="51.20218" lon="4.34999">
        <ele>10.238</ele>
        <time>2012-08-12T11:49:39Z</time>
      </trkpt>
      <trkpt lat="51.20219" lon="4.34995">
        <ele>10.285</ele>
        <time>2012-08-12T11:49:37Z</time>
      </trkpt>
      <trkpt lat="51.20219" lon="4.34993">
        <ele>9.822</ele>
        <time>2012-08-12T11:49:36Z</time>
      </trkpt>
      <trkpt lat="51.20219" lon="4.34991">
        <ele>10.242</ele>
        <time>2012-08-12T11:49:35Z</time>
      </trkpt>
      <trkpt lat="51.20215" lon="4.34989">
        <ele>9.87</ele>
        <time>2012-08-12T11:49:31Z</time>
      </trkpt>
      <trkpt lat="51.20213" lon="4.34988">
        <ele>10.272</ele>
        <time>2012-08-12T11:49:18Z</time>
      </trkpt>
      <trkpt lat="51.20208" lon="4.34986">
        <ele>10.774</ele>
        <time>2012-08-12T11:49:15Z</time>
      </trkpt>
      <trkpt lat="51.20206" lon="4.34985">
        <ele>9.807</ele>
        <time>2012-08-12T11:49:14Z</time>
      </trkpt>
      <trkpt lat="51.202" lon="4.34964">
        <ele>9.803</ele>
        <time>2012-08-12T11:49:09Z</time>
      </trkpt>
      <trkpt lat="51.20172" lon="4.34884">
        <ele>9.821</ele>
        <time>2012-08-12T11:48:53Z</time>
      </trkpt>
      <trkpt lat="51.20158" lon="4.34807">
        <ele>10.211</ele>
        <time>2012-08-12T11:48:39Z</time>
      </trkpt>
      <trkpt lat="51.2016" lon="4.3472">
        <ele>12.246</ele>
        <time>2012-08-12T11:48:26Z</time>
      </trkpt>
      <trkpt lat="51.20163" lon="4.34629">
        <ele>13.633</ele>
        <time>2012-08-12T11:48:12Z</time>
      </trkpt>
      <trkpt lat="51.20171" lon="4.34526">
        <ele>13.66</ele>
        <time>2012-08-12T11:47:55Z</time>
      </trkpt>
      <trkpt lat="51.20163" lon="4.34466">
        <ele>13.69</ele>
        <time>2012-08-12T11:47:44Z</time>
      </trkpt>
      <trkpt lat="51.20159" lon="4.34454">
        <ele>13.638</ele>
        <time>2012-08-12T11:47:42Z</time>
      </trkpt>
      <trkpt lat="51.20147" lon="4.34423">
        <ele>13.12</ele>
        <time>2012-08-12T11:47:37Z</time>
      </trkpt>
      <trkpt lat="51.20114" lon="4.34354">
        <ele>13.652</ele>
        <time>2012-08-12T11:47:25Z</time>
      </trkpt>
      <trkpt lat="51.20077" lon="4.34287">
        <ele>13.107</ele>
        <time>2012-08-12T11:47:12Z</time>
      </trkpt>
      <trkpt lat="51.20047" lon="4.34224">
        <ele>13.124</ele>
        <time>2012-08-12T11:46:59Z</time>
      </trkpt>
      <trkpt lat="51.20016" lon="4.34151">
        <ele>13.631</ele>
        <time>2012-08-12T11:46:43Z</time>
      </trkpt>
      <trkpt lat="51.20014" lon="4.34147">
        <ele>13.696</ele>
        <time>2012-08-12T11:46:42Z</time>
      </trkpt>
      <trkpt lat="51.20013" lon="4.34144">
        <ele>13.123</ele>
        <time>2012-08-12T11:46:41Z</time>
      </trkpt>
      <trkpt lat="51.2001" lon="4.34141">
        <ele>12.66</ele>
        <time>2012-08-12T11:46:40Z</time>
      </trkpt>
      <trkpt lat="51.20008" lon="4.34139">
        <ele>13.127</ele>
        <time>2012-08-12T11:46:39Z</time>
      </trkpt>
      <trkpt lat="51.19999" lon="4.34143">
        <ele>13.177</ele>
        <time>2012-08-12T11:46:35Z</time>
      </trkpt>
      <trkpt lat="51.19989" lon="4.34156">
        <ele>12.275</ele>
        <time>2012-08-12T11:46:30Z</time>
      </trkpt>
      <trkpt lat="51.1997" lon="4.34167">
        <ele>12.637</ele>
        <time>2012-08-12T11:46:21Z</time>
      </trkpt>
      <trkpt lat="51.1996" lon="4.34157">
        <ele>12.249</ele>
        <time>2012-08-12T11:46:17Z</time>
      </trkpt>
      <trkpt lat="51.19939" lon="4.34069">
        <ele>12.607</ele>
        <time>2012-08-12T11:45:59Z</time>
      </trkpt>
      <trkpt lat="51.19907" lon="4.33982">
        <ele>12.213</ele>
        <time>2012-08-12T11:45:42Z</time>
      </trkpt>
      <trkpt lat="51.19858" lon="4.33887">
        <ele>12.621</ele>
        <time>2012-08-12T11:45:25Z</time>
      </trkpt>
      <trkpt lat="51.19848" lon="4.3387">
        <ele>12.661</ele>
        <time>2012-08-12T11:45:22Z</time>
      </trkpt>
      <trkpt lat="51.19778" lon="4.33762">
        <ele>12.66</ele>
        <time>2012-08-12T11:45:03Z</time>
      </trkpt>
      <trkpt lat="51.19713" lon="4.33658">
        <ele>12.637</ele>
        <time>2012-08-12T11:44:45Z</time>
      </trkpt>
      <trkpt lat="51.19652" lon="4.33565">
        <ele>12.234</ele>
        <time>2012-08-12T11:44:28Z</time>
      </trkpt>
      <trkpt lat="51.19597" lon="4.33491">
        <ele>12.234</ele>
        <time>2012-08-12T11:44:13Z</time>
      </trkpt>
      <trkpt lat="51.19594" lon="4.33486">
        <ele>11.772</ele>
        <time>2012-08-12T11:44:12Z</time>
      </trkpt>
      <trkpt lat="51.19591" lon="4.33483">
        <ele>11.744</ele>
        <time>2012-08-12T11:44:11Z</time>
      </trkpt>
      <trkpt lat="51.19588" lon="4.33479">
        <ele>11.236</ele>
        <time>2012-08-12T11:44:10Z</time>
      </trkpt>
      <trkpt lat="51.19586" lon="4.33476">
        <ele>12.207</ele>
        <time>2012-08-12T11:44:09Z</time>
      </trkpt>
      <trkpt lat="51.19584" lon="4.33473">
        <ele>11.71</ele>
        <time>2012-08-12T11:44:08Z</time>
      </trkpt>
      <trkpt lat="51.19583" lon="4.33469">
        <ele>12.255</ele>
        <time>2012-08-12T11:44:07Z</time>
      </trkpt>
      <trkpt lat="51.19581" lon="4.33466">
        <ele>12.234</ele>
        <time>2012-08-12T11:44:06Z</time>
      </trkpt>
      <trkpt lat="51.1958" lon="4.33461">
        <ele>11.746</ele>
        <time>2012-08-12T11:44:05Z</time>
      </trkpt>
      <trkpt lat="51.19577" lon="4.33457">
        <ele>12.293</ele>
        <time>2012-08-12T11:44:04Z</time>
      </trkpt>
      <trkpt lat="51.19575" lon="4.33453">
        <ele>12.21</ele>
        <time>2012-08-12T11:44:03Z</time>
      </trkpt>
      <trkpt lat="51.19542" lon="4.33439">
        <ele>11.74</ele>
        <time>2012-08-12T11:43:54Z</time>
      </trkpt>
      <trkpt lat="51.19539" lon="4.33438">
        <ele>12.278</ele>
        <time>2012-08-12T11:43:53Z</time>
      </trkpt>
      <trkpt lat="51.19536" lon="4.33437">
        <ele>11.75</ele>
        <time>2012-08-12T11:43:52Z</time>
      </trkpt>
      <trkpt lat="51.19533" lon="4.33434">
        <ele>11.772</ele>
        <time>2012-08-12T11:43:51Z</time>
      </trkpt>
      <trkpt lat="51.1953" lon="4.33432">
        <ele>12.207</ele>
        <time>2012-08-12T11:43:50Z</time>
      </trkpt>
      <trkpt lat="51.19528" lon="4.3343">
        <ele>12.222</ele>
        <time>2012-08-12T11:43:49Z</time>
      </trkpt>
      <trkpt lat="51.19526" lon="4.33429">
        <ele>12.257</ele>
        <time>2012-08-12T11:43:48Z</time>
      </trkpt>
      <trkpt lat="51.19522" lon="4.33432">
        <ele>12.294</ele>
        <time>2012-08-12T11:43:45Z</time>
      </trkpt>
      <trkpt lat="51.19521" lon="4.33434">
        <ele>12.291</ele>
        <time>2012-08-12T11:43:44Z</time>
      </trkpt>
      <trkpt lat="51.1952" lon="4.33435">
        <ele>12.228</ele>
        <time>2012-08-12T11:43:41Z</time>
      </trkpt>
      <trkpt lat="51.1952" lon="4.33436">
        <ele>12.225</ele>
        <time>2012-08-12T11:43:13Z</time>
      </trkpt>
      <trkpt lat="51.19519" lon="4.33423">
        <ele>12.255</ele>
        <time>2012-08-12T11:43:02Z</time>
      </trkpt>
      <trkpt lat="51.19519" lon="4.33419">
        <ele>12.243</ele>
        <time>2012-08-12T11:43:01Z</time>
      </trkpt>
      <trkpt lat="51.19511" lon="4.33407">
        <ele>11.745</ele>
        <time>2012-08-12T11:42:58Z</time>
      </trkpt>
      <trkpt lat="51.19439" lon="4.3332">
        <ele>11.737</ele>
        <time>2012-08-12T11:42:39Z</time>
      </trkpt>
      <trkpt lat="51.19376" lon="4.33233">
        <ele>12.207</ele>
        <time>2012-08-12T11:42:24Z</time>
      </trkpt>
      <trkpt lat="51.19372" lon="4.33227">
        <ele>11.716</ele>
        <time>2012-08-12T11:42:23Z</time>
      </trkpt>
      <trkpt lat="51.19368" lon="4.33221">
        <ele>11.788</ele>
        <time>2012-08-12T11:42:22Z</time>
      </trkpt>
      <trkpt lat="51.19365" lon="4.33214">
        <ele>11.746</ele>
        <time>2012-08-12T11:42:21Z</time>
      </trkpt>
      <trkpt lat="51.19365" lon="4.33206">
        <ele>12.21</ele>
        <time>2012-08-12T11:42:20Z</time>
      </trkpt>
      <trkpt lat="51.19367" lon="4.33198">
        <ele>12.657</ele>
        <time>2012-08-12T11:42:19Z</time>
      </trkpt>
      <trkpt lat="51.19392" lon="4.33143">
        <ele>13.194</ele>
        <time>2012-08-12T11:42:11Z</time>
      </trkpt>
      <trkpt lat="51.19396" lon="4.33137">
        <ele>12.634</ele>
        <time>2012-08-12T11:42:10Z</time>
      </trkpt>
      <trkpt lat="51.19398" lon="4.33132">
        <ele>12.642</ele>
        <time>2012-08-12T11:42:09Z</time>
      </trkpt>
      <trkpt lat="51.19401" lon="4.33126">
        <ele>13.154</ele>
        <time>2012-08-12T11:42:08Z</time>
      </trkpt>
      <trkpt lat="51.19403" lon="4.3312">
        <ele>12.636</ele>
        <time>2012-08-12T11:42:07Z</time>
      </trkpt>
      <trkpt lat="51.19447" lon="4.3303">
        <ele>14.607</ele>
        <time>2012-08-12T11:41:53Z</time>
      </trkpt>
      <trkpt lat="51.19501" lon="4.32921">
        <ele>14.613</ele>
        <time>2012-08-12T11:41:35Z</time>
      </trkpt>
      <trkpt lat="51.19504" lon="4.32915">
        <ele>14.649</ele>
        <time>2012-08-12T11:41:34Z</time>
      </trkpt>
      <trkpt lat="51.19506" lon="4.32909">
        <ele>15.037</ele>
        <time>2012-08-12T11:41:33Z</time>
      </trkpt>
      <trkpt lat="51.19508" lon="4.32903">
        <ele>14.69</ele>
        <time>2012-08-12T11:41:32Z</time>
      </trkpt>
      <trkpt lat="51.1951" lon="4.32896">
        <ele>14.137</ele>
        <time>2012-08-12T11:41:31Z</time>
      </trkpt>
      <trkpt lat="51.1951" lon="4.3289">
        <ele>14.664</ele>
        <time>2012-08-12T11:41:30Z</time>
      </trkpt>
      <trkpt lat="51.19508" lon="4.32883">
        <ele>14.694</ele>
        <time>2012-08-12T11:41:29Z</time>
      </trkpt>
      <trkpt lat="51.19489" lon="4.32844">
        <ele>15.082</ele>
        <time>2012-08-12T11:41:22Z</time>
      </trkpt>
      <trkpt lat="51.19484" lon="4.32832">
        <ele>14.664</ele>
        <time>2012-08-12T11:41:20Z</time>
      </trkpt>
      <trkpt lat="51.19461" lon="4.32713">
        <ele>14.196</ele>
        <time>2012-08-12T11:41:02Z</time>
      </trkpt>
      <trkpt lat="51.1946" lon="4.32707">
        <ele>14.107</ele>
        <time>2012-08-12T11:41:01Z</time>
      </trkpt>
      <trkpt lat="51.19434" lon="4.32641">
        <ele>13.61</ele>
        <time>2012-08-12T11:40:50Z</time>
      </trkpt>
      <trkpt lat="51.19431" lon="4.32635">
        <ele>14.155</ele>
        <time>2012-08-12T11:40:49Z</time>
      </trkpt>
      <trkpt lat="51.19429" lon="4.32629">
        <ele>13.634</ele>
        <time>2012-08-12T11:40:48Z</time>
      </trkpt>
      <trkpt lat="51.19427" lon="4.32623">
        <ele>14.176</ele>
        <time>2012-08-12T11:40:47Z</time>
      </trkpt>
      <trkpt lat="51.19426" lon="4.32616">
        <ele>14.173</ele>
        <time>2012-08-12T11:40:46Z</time>
      </trkpt>
      <trkpt lat="51.19425" lon="4.3261">
        <ele>13.62</ele>
        <time>2012-08-12T11:40:45Z</time>
      </trkpt>
      <trkpt lat="51.19426" lon="4.32603">
        <ele>13.67</ele>
        <time>2012-08-12T11:40:44Z</time>
      </trkpt>
      <trkpt lat="51.1945" lon="4.32533">
        <ele>14.148</ele>
        <time>2012-08-12T11:40:32Z</time>
      </trkpt>
      <trkpt lat="51.19451" lon="4.32528">
        <ele>14.12</ele>
        <time>2012-08-12T11:40:31Z</time>
      </trkpt>
      <trkpt lat="51.19453" lon="4.32523">
        <ele>13.632</ele>
        <time>2012-08-12T11:40:30Z</time>
      </trkpt>
      <trkpt lat="51.19454" lon="4.32517">
        <ele>14.107</ele>
        <time>2012-08-12T11:40:29Z</time>
      </trkpt>
      <trkpt lat="51.19453" lon="4.32512">
        <ele>13.621</ele>
        <time>2012-08-12T11:40:28Z</time>
      </trkpt>
      <trkpt lat="51.19436" lon="4.32495">
        <ele>13.665</ele>
        <time>2012-08-12T11:40:21Z</time>
      </trkpt>
      <trkpt lat="51.19389" lon="4.32449">
        <ele>12.693</ele>
        <time>2012-08-12T11:40:07Z</time>
      </trkpt>
      <trkpt lat="51.19319" lon="4.32401">
        <ele>12.65</ele>
        <time>2012-08-12T11:39:48Z</time>
      </trkpt>
      <trkpt lat="51.19297" lon="4.32383">
        <ele>12.287</ele>
        <time>2012-08-12T11:39:42Z</time>
      </trkpt>
      <trkpt lat="51.19284" lon="4.32368">
        <ele>11.734</ele>
        <time>2012-08-12T11:39:38Z</time>
      </trkpt>
      <trkpt lat="51.19278" lon="4.32359">
        <ele>12.214</ele>
        <time>2012-08-12T11:39:36Z</time>
      </trkpt>
      <trkpt lat="51.19274" lon="4.32354">
        <ele>11.772</ele>
        <time>2012-08-12T11:39:35Z</time>
      </trkpt>
      <trkpt lat="51.19229" lon="4.323">
        <ele>11.764</ele>
        <time>2012-08-12T11:39:21Z</time>
      </trkpt>
      <trkpt lat="51.19219" lon="4.32292">
        <ele>11.207</ele>
        <time>2012-08-12T11:38:19Z</time>
      </trkpt>
      <trkpt lat="51.19198" lon="4.32283">
        <ele>11.715</ele>
        <time>2012-08-12T11:38:06Z</time>
      </trkpt>
      <trkpt lat="51.1918" lon="4.3225">
        <ele>11.223</ele>
        <time>2012-08-12T11:37:56Z</time>
      </trkpt>
      <trkpt lat="51.19179" lon="4.32247">
        <ele>10.733</ele>
        <time>2012-08-12T11:37:55Z</time>
      </trkpt>
      <trkpt lat="51.19179" lon="4.32244">
        <ele>11.275</ele>
        <time>2012-08-12T11:37:54Z</time>
      </trkpt>
      <trkpt lat="51.1918" lon="4.32244">
        <ele>10.752</ele>
        <time>2012-08-12T11:37:42Z</time>
      </trkpt>
      <trkpt lat="51.1918" lon="4.32242">
        <ele>11.799</ele>
        <time>2012-08-12T11:37:27Z</time>
      </trkpt>
      <trkpt lat="51.19177" lon="4.32191">
        <ele>11.729</ele>
        <time>2012-08-12T11:37:14Z</time>
      </trkpt>
      <trkpt lat="51.19178" lon="4.32185">
        <ele>15.547</ele>
        <time>2012-08-12T11:37:13Z</time>
      </trkpt>
      <trkpt lat="51.19178" lon="4.32179">
        <ele>9.349</ele>
        <time>2012-08-12T11:37:12Z</time>
      </trkpt>
      <trkpt lat="51.19179" lon="4.32173">
        <ele>14.191</ele>
        <time>2012-08-12T11:37:11Z</time>
      </trkpt>
      <trkpt lat="51.1918" lon="4.32168">
        <ele>10.707</ele>
        <time>2012-08-12T11:37:10Z</time>
      </trkpt>
      <trkpt lat="51.19182" lon="4.32162">
        <ele>12.626</ele>
        <time>2012-08-12T11:37:09Z</time>
      </trkpt>
      <trkpt lat="51.19185" lon="4.32158">
        <ele>12.242</ele>
        <time>2012-08-12T11:37:08Z</time>
      </trkpt>
      <trkpt lat="51.19226" lon="4.32123">
        <ele>12.287</ele>
        <time>2012-08-12T11:36:59Z</time>
      </trkpt>
      <trkpt lat="51.19231" lon="4.3212">
        <ele>12.233</ele>
        <time>2012-08-12T11:36:58Z</time>
      </trkpt>
      <trkpt lat="51.19236" lon="4.32115">
        <ele>12.25</ele>
        <time>2012-08-12T11:36:57Z</time>
      </trkpt>
      <trkpt lat="51.19241" lon="4.3211">
        <ele>11.787</ele>
        <time>2012-08-12T11:36:56Z</time>
      </trkpt>
      <trkpt lat="51.19246" lon="4.32104">
        <ele>12.227</ele>
        <time>2012-08-12T11:36:55Z</time>
      </trkpt>
      <trkpt lat="51.1925" lon="4.32098">
        <ele>12.615</ele>
        <time>2012-08-12T11:36:54Z</time>
      </trkpt>
      <trkpt lat="51.19253" lon="4.32091">
        <ele>12.677</ele>
        <time>2012-08-12T11:36:53Z</time>
      </trkpt>
      <trkpt lat="51.19255" lon="4.32083">
        <ele>12.689</ele>
        <time>2012-08-12T11:36:52Z</time>
      </trkpt>
      <trkpt lat="51.19256" lon="4.32075">
        <ele>13.107</ele>
        <time>2012-08-12T11:36:51Z</time>
      </trkpt>
      <trkpt lat="51.19256" lon="4.32066">
        <ele>13.116</ele>
        <time>2012-08-12T11:36:50Z</time>
      </trkpt>
      <trkpt lat="51.19256" lon="4.32057">
        <ele>12.606</ele>
        <time>2012-08-12T11:36:49Z</time>
      </trkpt>
      <trkpt lat="51.19257" lon="4.32048">
        <ele>12.664</ele>
        <time>2012-08-12T11:36:48Z</time>
      </trkpt>
      <trkpt lat="51.19259" lon="4.32039">
        <ele>13.146</ele>
        <time>2012-08-12T11:36:47Z</time>
      </trkpt>
      <trkpt lat="51.19261" lon="4.32031">
        <ele>12.653</ele>
        <time>2012-08-12T11:36:46Z</time>
      </trkpt>
      <trkpt lat="51.19299" lon="4.31959">
        <ele>13.65</ele>
        <time>2012-08-12T11:36:36Z</time>
      </trkpt>
      <trkpt lat="51.19302" lon="4.31952">
        <ele>13.62</ele>
        <time>2012-08-12T11:36:35Z</time>
      </trkpt>
      <trkpt lat="51.19305" lon="4.31944">
        <ele>13.648</ele>
        <time>2012-08-12T11:36:34Z</time>
      </trkpt>
      <trkpt lat="51.19308" lon="4.31936">
        <ele>13.61</ele>
        <time>2012-08-12T11:36:33Z</time>
      </trkpt>
      <trkpt lat="51.1931" lon="4.31928">
        <ele>13.632</ele>
        <time>2012-08-12T11:36:32Z</time>
      </trkpt>
      <trkpt lat="51.19314" lon="4.31895">
        <ele>13.607</ele>
        <time>2012-08-12T11:36:28Z</time>
      </trkpt>
      <trkpt lat="51.19314" lon="4.31878">
        <ele>14.127</ele>
        <time>2012-08-12T11:36:26Z</time>
      </trkpt>
      <trkpt lat="51.19315" lon="4.31821">
        <ele>13.607</ele>
        <time>2012-08-12T11:36:19Z</time>
      </trkpt>
      <trkpt lat="51.19296" lon="4.31694">
        <ele>14.699</ele>
        <time>2012-08-12T11:36:03Z</time>
      </trkpt>
      <trkpt lat="51.19296" lon="4.31686">
        <ele>14.646</ele>
        <time>2012-08-12T11:36:02Z</time>
      </trkpt>
      <trkpt lat="51.19286" lon="4.31618">
        <ele>14.683</ele>
        <time>2012-08-12T11:35:54Z</time>
      </trkpt>
      <trkpt lat="51.19272" lon="4.31452">
        <ele>16.05</ele>
        <time>2012-08-12T11:35:36Z</time>
      </trkpt>
      <trkpt lat="51.19257" lon="4.31293">
        <ele>16.02</ele>
        <time>2012-08-12T11:35:18Z</time>
      </trkpt>
      <trkpt lat="51.19256" lon="4.31284">
        <ele>16.028</ele>
        <time>2012-08-12T11:35:17Z</time>
      </trkpt>
      <trkpt lat="51.19242" lon="4.31202">
        <ele>15.56</ele>
        <time>2012-08-12T11:35:07Z</time>
      </trkpt>
      <trkpt lat="51.19219" lon="4.31084">
        <ele>15.532</ele>
        <time>2012-08-12T11:34:52Z</time>
      </trkpt>
      <trkpt lat="51.19216" lon="4.31072">
        <ele>15.507</ele>
        <time>2012-08-12T11:34:50Z</time>
      </trkpt>
      <trkpt lat="51.19214" lon="4.31066">
        <ele>16.021</ele>
        <time>2012-08-12T11:34:49Z</time>
      </trkpt>
      <trkpt lat="51.19211" lon="4.31061">
        <ele>15.565</ele>
        <time>2012-08-12T11:34:48Z</time>
      </trkpt>
      <trkpt lat="51.19209" lon="4.31058">
        <ele>15.593</ele>
        <time>2012-08-12T11:34:47Z</time>
      </trkpt>
      <trkpt lat="51.19205" lon="4.31057">
        <ele>15.585</ele>
        <time>2012-08-12T11:34:46Z</time>
      </trkpt>
      <trkpt lat="51.19201" lon="4.31058">
        <ele>15.512</ele>
        <time>2012-08-12T11:34:45Z</time>
      </trkpt>
      <trkpt lat="51.19197" lon="4.31061">
        <ele>16.529</ele>
        <time>2012-08-12T11:34:44Z</time>
      </trkpt>
      <trkpt lat="51.19192" lon="4.31066">
        <ele>16.089</ele>
        <time>2012-08-12T11:34:43Z</time>
      </trkpt>
      <trkpt lat="51.19106" lon="4.31197">
        <ele>16.017</ele>
        <time>2012-08-12T11:34:21Z</time>
      </trkpt>
      <trkpt lat="51.19027" lon="4.31322">
        <ele>15.579</ele>
        <time>2012-08-12T11:33:59Z</time>
      </trkpt>
      <trkpt lat="51.18973" lon="4.31407">
        <ele>15.081</ele>
        <time>2012-08-12T11:33:43Z</time>
      </trkpt>
      <trkpt lat="51.18961" lon="4.31422">
        <ele>14.607</ele>
        <time>2012-08-12T11:33:39Z</time>
      </trkpt>
      <trkpt lat="51.18958" lon="4.31424">
        <ele>14.617</ele>
        <time>2012-08-12T11:33:38Z</time>
      </trkpt>
      <trkpt lat="51.18948" lon="4.31409">
        <ele>15.061</ele>
        <time>2012-08-12T11:33:32Z</time>
      </trkpt>
      <trkpt lat="51.18916" lon="4.31323">
        <ele>15.581</ele>
        <time>2012-08-12T11:33:15Z</time>
      </trkpt>
      <trkpt lat="51.18913" lon="4.31317">
        <ele>15.583</ele>
        <time>2012-08-12T11:33:14Z</time>
      </trkpt>
      <trkpt lat="51.18888" lon="4.31274">
        <ele>16.04</ele>
        <time>2012-08-12T11:33:04Z</time>
      </trkpt>
      <trkpt lat="51.18848" lon="4.31157">
        <ele>16.097</ele>
        <time>2012-08-12T11:32:46Z</time>
      </trkpt>
      <trkpt lat="51.18846" lon="4.3115">
        <ele>16.067</ele>
        <time>2012-08-12T11:32:45Z</time>
      </trkpt>
      <trkpt lat="51.18844" lon="4.31143">
        <ele>15.585</ele>
        <time>2012-08-12T11:32:44Z</time>
      </trkpt>
      <trkpt lat="51.18842" lon="4.31136">
        <ele>16.047</ele>
        <time>2012-08-12T11:32:43Z</time>
      </trkpt>
      <trkpt lat="51.18842" lon="4.31129">
        <ele>15.579</ele>
        <time>2012-08-12T11:32:42Z</time>
      </trkpt>
      <trkpt lat="51.18843" lon="4.31122">
        <ele>15.507</ele>
        <time>2012-08-12T11:32:41Z</time>
      </trkpt>
      <trkpt lat="51.18845" lon="4.31115">
        <ele>15.526</ele>
        <time>2012-08-12T11:32:40Z</time>
      </trkpt>
      <trkpt lat="51.18849" lon="4.31109">
        <ele>15.042</ele>
        <time>2012-08-12T11:32:39Z</time>
      </trkpt>
      <trkpt lat="51.18867" lon="4.31086">
        <ele>15.568</ele>
        <time>2012-08-12T11:32:34Z</time>
      </trkpt>
      <trkpt lat="51.1887" lon="4.31081">
        <ele>15.556</ele>
        <time>2012-08-12T11:32:33Z</time>
      </trkpt>
      <trkpt lat="51.18874" lon="4.31076">
        <ele>15.023</ele>
        <time>2012-08-12T11:32:32Z</time>
      </trkpt>
      <trkpt lat="51.18876" lon="4.3107">
        <ele>15.55</ele>
        <time>2012-08-12T11:32:31Z</time>
      </trkpt>
      <trkpt lat="51.18878" lon="4.31064">
        <ele>15.56</ele>
        <time>2012-08-12T11:32:30Z</time>
      </trkpt>
      <trkpt lat="51.18878" lon="4.31058">
        <ele>15.018</ele>
        <time>2012-08-12T11:32:29Z</time>
      </trkpt>
      <trkpt lat="51.18878" lon="4.31052">
        <ele>16.08</ele>
        <time>2012-08-12T11:32:28Z</time>
      </trkpt>
      <trkpt lat="51.18877" lon="4.31046">
        <ele>16.042</ele>
        <time>2012-08-12T11:32:27Z</time>
      </trkpt>
      <trkpt lat="51.18864" lon="4.31015">
        <ele>16.007</ele>
        <time>2012-08-12T11:32:22Z</time>
      </trkpt>
      <trkpt lat="51.18833" lon="4.30901">
        <ele>16.027</ele>
        <time>2012-08-12T11:32:06Z</time>
      </trkpt>
      <trkpt lat="51.18793" lon="4.30786">
        <ele>17.407</ele>
        <time>2012-08-12T11:31:49Z</time>
      </trkpt>
      <trkpt lat="51.18789" lon="4.30781">
        <ele>17.099</ele>
        <time>2012-08-12T11:31:48Z</time>
      </trkpt>
      <trkpt lat="51.18767" lon="4.30784">
        <ele>16.546</ele>
        <time>2012-08-12T11:31:41Z</time>
      </trkpt>
      <trkpt lat="51.18708" lon="4.30865">
        <ele>15.583</ele>
        <time>2012-08-12T11:31:24Z</time>
      </trkpt>
      <trkpt lat="51.18649" lon="4.30954">
        <ele>15.01</ele>
        <time>2012-08-12T11:31:08Z</time>
      </trkpt>
      <trkpt lat="51.18608" lon="4.31007">
        <ele>13.65</ele>
        <time>2012-08-12T11:30:57Z</time>
      </trkpt>
      <trkpt lat="51.18539" lon="4.31067">
        <ele>14.638</ele>
        <time>2012-08-12T11:30:40Z</time>
      </trkpt>
      <trkpt lat="51.18536" lon="4.3107">
        <ele>14.61</ele>
        <time>2012-08-12T11:30:39Z</time>
      </trkpt>
      <trkpt lat="51.18533" lon="4.31075">
        <ele>14.152</ele>
        <time>2012-08-12T11:30:38Z</time>
      </trkpt>
      <trkpt lat="51.18531" lon="4.31111">
        <ele>14.107</ele>
        <time>2012-08-12T11:30:32Z</time>
      </trkpt>
      <trkpt lat="51.18532" lon="4.31118">
        <ele>14.12</ele>
        <time>2012-08-12T11:30:31Z</time>
      </trkpt>
      <trkpt lat="51.18534" lon="4.3113">
        <ele>14.173</ele>
        <time>2012-08-12T11:30:29Z</time>
      </trkpt>
      <trkpt lat="51.18535" lon="4.31137">
        <ele>14.192</ele>
        <time>2012-08-12T11:30:28Z</time>
      </trkpt>
      <trkpt lat="51.18536" lon="4.31143">
        <ele>14.148</ele>
        <time>2012-08-12T11:30:27Z</time>
      </trkpt>
      <trkpt lat="51.18537" lon="4.31149">
        <ele>14.125</ele>
        <time>2012-08-12T11:30:26Z</time>
      </trkpt>
      <trkpt lat="51.18538" lon="4.31155">
        <ele>14.182</ele>
        <time>2012-08-12T11:30:25Z</time>
      </trkpt>
      <trkpt lat="51.1854" lon="4.31159">
        <ele>14.182</ele>
        <time>2012-08-12T11:30:24Z</time>
      </trkpt>
      <trkpt lat="51.18543" lon="4.31163">
        <ele>13.64</ele>
        <time>2012-08-12T11:30:23Z</time>
      </trkpt>
      <trkpt lat="51.18547" lon="4.31166">
        <ele>13.642</ele>
        <time>2012-08-12T11:30:22Z</time>
      </trkpt>
      <trkpt lat="51.18551" lon="4.31169">
        <ele>13.654</ele>
        <time>2012-08-12T11:30:21Z</time>
      </trkpt>
      <trkpt lat="51.18555" lon="4.31171">
        <ele>13.107</ele>
        <time>2012-08-12T11:30:20Z</time>
      </trkpt>
      <trkpt lat="51.18559" lon="4.31172">
        <ele>14.105</ele>
        <time>2012-08-12T11:30:19Z</time>
      </trkpt>
      <trkpt lat="51.18567" lon="4.31172">
        <ele>13.632</ele>
        <time>2012-08-12T11:30:17Z</time>
      </trkpt>
      <trkpt lat="51.18587" lon="4.31164">
        <ele>13.612</ele>
        <time>2012-08-12T11:30:12Z</time>
      </trkpt>
      <trkpt lat="51.18599" lon="4.3116">
        <ele>13.662</ele>
        <time>2012-08-12T11:30:09Z</time>
      </trkpt>
      <trkpt lat="51.1862" lon="4.31223">
        <ele>13.679</ele>
        <time>2012-08-12T11:29:56Z</time>
      </trkpt>
      <trkpt lat="51.18622" lon="4.3123">
        <ele>13.646</ele>
        <time>2012-08-12T11:29:55Z</time>
      </trkpt>
      <trkpt lat="51.18639" lon="4.31279">
        <ele>13.116</ele>
        <time>2012-08-12T11:29:47Z</time>
      </trkpt>
      <trkpt lat="51.18643" lon="4.31298">
        <ele>13.614</ele>
        <time>2012-08-12T11:29:44Z</time>
      </trkpt>
      <trkpt lat="51.18645" lon="4.31305">
        <ele>13.126</ele>
        <time>2012-08-12T11:29:43Z</time>
      </trkpt>
      <trkpt lat="51.18647" lon="4.31333">
        <ele>12.648</ele>
        <time>2012-08-12T11:29:39Z</time>
      </trkpt>
      <trkpt lat="51.18648" lon="4.3134">
        <ele>13.107</ele>
        <time>2012-08-12T11:29:38Z</time>
      </trkpt>
      <trkpt lat="51.18648" lon="4.31347">
        <ele>13.117</ele>
        <time>2012-08-12T11:29:37Z</time>
      </trkpt>
      <trkpt lat="51.18647" lon="4.31354">
        <ele>12.652</ele>
        <time>2012-08-12T11:29:36Z</time>
      </trkpt>
      <trkpt lat="51.18632" lon="4.31458">
        <ele>13.158</ele>
        <time>2012-08-12T11:29:20Z</time>
      </trkpt>
      <trkpt lat="51.18614" lon="4.31548">
        <ele>12.681</ele>
        <time>2012-08-12T11:29:04Z</time>
      </trkpt>
      <trkpt lat="51.18604" lon="4.31587">
        <ele>12.658</ele>
        <time>2012-08-12T11:28:58Z</time>
      </trkpt>
      <trkpt lat="51.18602" lon="4.31594">
        <ele>12.625</ele>
        <time>2012-08-12T11:28:57Z</time>
      </trkpt>
      <trkpt lat="51.18587" lon="4.31658">
        <ele>12.635</ele>
        <time>2012-08-12T11:28:47Z</time>
      </trkpt>
      <trkpt lat="51.18585" lon="4.31664">
        <ele>11.743</ele>
        <time>2012-08-12T11:28:46Z</time>
      </trkpt>
      <trkpt lat="51.18584" lon="4.31671">
        <ele>11.715</ele>
        <time>2012-08-12T11:28:45Z</time>
      </trkpt>
      <trkpt lat="51.18561" lon="4.31802">
        <ele>12.627</ele>
        <time>2012-08-12T11:28:27Z</time>
      </trkpt>
      <trkpt lat="51.18553" lon="4.31846">
        <ele>13.107</ele>
        <time>2012-08-12T11:28:21Z</time>
      </trkpt>
      <trkpt lat="51.18551" lon="4.31853">
        <ele>13.111</ele>
        <time>2012-08-12T11:28:20Z</time>
      </trkpt>
      <trkpt lat="51.1855" lon="4.31859">
        <ele>12.647</ele>
        <time>2012-08-12T11:28:19Z</time>
      </trkpt>
      <trkpt lat="51.18548" lon="4.31866">
        <ele>13.145</ele>
        <time>2012-08-12T11:28:18Z</time>
      </trkpt>
      <trkpt lat="51.18547" lon="4.31872">
        <ele>13.648</ele>
        <time>2012-08-12T11:28:17Z</time>
      </trkpt>
      <trkpt lat="51.18542" lon="4.31898">
        <ele>13.155</ele>
        <time>2012-08-12T11:28:13Z</time>
      </trkpt>
      <trkpt lat="51.18536" lon="4.3192">
        <ele>13.142</ele>
        <time>2012-08-12T11:28:09Z</time>
      </trkpt>
      <trkpt lat="51.18535" lon="4.31925">
        <ele>13.112</ele>
        <time>2012-08-12T11:28:08Z</time>
      </trkpt>
      <trkpt lat="51.18534" lon="4.3193">
        <ele>13.19</ele>
        <time>2012-08-12T11:28:07Z</time>
      </trkpt>
      <trkpt lat="51.18534" lon="4.31934">
        <ele>13.162</ele>
        <time>2012-08-12T11:28:06Z</time>
      </trkpt>
      <trkpt lat="51.18533" lon="4.31937">
        <ele>13.144</ele>
        <time>2012-08-12T11:28:05Z</time>
      </trkpt>
      <trkpt lat="51.18533" lon="4.31938">
        <ele>13.107</ele>
        <time>2012-08-12T11:28:04Z</time>
      </trkpt>
      <trkpt lat="51.18531" lon="4.31939">
        <ele>13.615</ele>
        <time>2012-08-12T11:28:03Z</time>
      </trkpt>
      <trkpt lat="51.18508" lon="4.31938">
        <ele>13.187</ele>
        <time>2012-08-12T11:27:54Z</time>
      </trkpt>
      <trkpt lat="51.18464" lon="4.31966">
        <ele>13.617</ele>
        <time>2012-08-12T11:27:39Z</time>
      </trkpt>
      <trkpt lat="51.1846" lon="4.31968">
        <ele>13.69</ele>
        <time>2012-08-12T11:27:38Z</time>
      </trkpt>
      <trkpt lat="51.18456" lon="4.31971">
        <ele>14.127</ele>
        <time>2012-08-12T11:27:37Z</time>
      </trkpt>
      <trkpt lat="51.18452" lon="4.31975">
        <ele>13.134</ele>
        <time>2012-08-12T11:27:36Z</time>
      </trkpt>
      <trkpt lat="51.18449" lon="4.31979">
        <ele>13.124</ele>
        <time>2012-08-12T11:27:35Z</time>
      </trkpt>
      <trkpt lat="51.18446" lon="4.31984">
        <ele>13.672</ele>
        <time>2012-08-12T11:27:34Z</time>
      </trkpt>
      <trkpt lat="51.18419" lon="4.32008">
        <ele>12.644</ele>
        <time>2012-08-12T11:27:26Z</time>
      </trkpt>
      <trkpt lat="51.18381" lon="4.32047">
        <ele>12.646</ele>
        <time>2012-08-12T11:27:12Z</time>
      </trkpt>
      <trkpt lat="51.18378" lon="4.32049">
        <ele>12.207</ele>
        <time>2012-08-12T11:27:11Z</time>
      </trkpt>
      <trkpt lat="51.18375" lon="4.32051">
        <ele>12.617</ele>
        <time>2012-08-12T11:27:10Z</time>
      </trkpt>
      <trkpt lat="51.18372" lon="4.32053">
        <ele>12.67</ele>
        <time>2012-08-12T11:27:09Z</time>
      </trkpt>
      <trkpt lat="51.1837" lon="4.32055">
        <ele>12.638</ele>
        <time>2012-08-12T11:27:08Z</time>
      </trkpt>
      <trkpt lat="51.18369" lon="4.32058">
        <ele>12.668</ele>
        <time>2012-08-12T11:27:07Z</time>
      </trkpt>
      <trkpt lat="51.18369" lon="4.32061">
        <ele>12.655</ele>
        <time>2012-08-12T11:27:06Z</time>
      </trkpt>
      <trkpt lat="51.18369" lon="4.32063">
        <ele>13.162</ele>
        <time>2012-08-12T11:27:05Z</time>
      </trkpt>
      <trkpt lat="51.1837" lon="4.32065">
        <ele>13.192</ele>
        <time>2012-08-12T11:27:04Z</time>
      </trkpt>
      <trkpt lat="51.18371" lon="4.32067">
        <ele>13.11</ele>
        <time>2012-08-12T11:27:03Z</time>
      </trkpt>
      <trkpt lat="51.18372" lon="4.32069">
        <ele>13.622</ele>
        <time>2012-08-12T11:27:02Z</time>
      </trkpt>
      <trkpt lat="51.18373" lon="4.32071">
        <ele>13.614</ele>
        <time>2012-08-12T11:27:01Z</time>
      </trkpt>
      <trkpt lat="51.18374" lon="4.32074">
        <ele>12.607</ele>
        <time>2012-08-12T11:27:00Z</time>
      </trkpt>
      <trkpt lat="51.18374" lon="4.32077">
        <ele>13.115</ele>
        <time>2012-08-12T11:26:59Z</time>
      </trkpt>
      <trkpt lat="51.18374" lon="4.3208">
        <ele>13.687</ele>
        <time>2012-08-12T11:26:58Z</time>
      </trkpt>
      <trkpt lat="51.18372" lon="4.32081">
        <ele>13.617</ele>
        <time>2012-08-12T11:26:57Z</time>
      </trkpt>
      <trkpt lat="51.18371" lon="4.3208">
        <ele>13.196</ele>
        <time>2012-08-12T11:26:56Z</time>
      </trkpt>
      <trkpt lat="51.18368" lon="4.32068">
        <ele>12.263</ele>
        <time>2012-08-12T11:26:51Z</time>
      </trkpt>
      <trkpt lat="51.18366" lon="4.32064">
        <ele>12.64</ele>
        <time>2012-08-12T11:26:50Z</time>
      </trkpt>
      <trkpt lat="51.18365" lon="4.3206">
        <ele>12.26</ele>
        <time>2012-08-12T11:26:49Z</time>
      </trkpt>
      <trkpt lat="51.18366" lon="4.32056">
        <ele>13.128</ele>
        <time>2012-08-12T11:26:48Z</time>
      </trkpt>
      <trkpt lat="51.18368" lon="4.32053">
        <ele>12.69</ele>
        <time>2012-08-12T11:26:47Z</time>
      </trkpt>
      <trkpt lat="51.18369" lon="4.32051">
        <ele>12.262</ele>
        <time>2012-08-12T11:26:46Z</time>
      </trkpt>
      <trkpt lat="51.18371" lon="4.32047">
        <ele>12.607</ele>
        <time>2012-08-12T11:26:45Z</time>
      </trkpt>
      <trkpt lat="51.18376" lon="4.32044">
        <ele>13.124</ele>
        <time>2012-08-12T11:26:43Z</time>
      </trkpt>
      <trkpt lat="51.18377" lon="4.32046">
        <ele>12.231</ele>
        <time>2012-08-12T11:26:42Z</time>
      </trkpt>
      <trkpt lat="51.18352" lon="4.32072">
        <ele>12.696</ele>
        <time>2012-08-12T11:26:32Z</time>
      </trkpt>
      <trkpt lat="51.18351" lon="4.32073">
        <ele>12.652</ele>
        <time>2012-08-12T11:26:31Z</time>
      </trkpt>
      <trkpt lat="51.18351" lon="4.32077">
        <ele>11.789</ele>
        <time>2012-08-12T11:26:05Z</time>
      </trkpt>
      <trkpt lat="51.1835" lon="4.32077">
        <ele>12.246</ele>
        <time>2012-08-12T11:26:01Z</time>
      </trkpt>
      <trkpt lat="51.18344" lon="4.32082">
        <ele>12.626</ele>
        <time>2012-08-12T11:25:50Z</time>
      </trkpt>
      <trkpt lat="51.18319" lon="4.32116">
        <ele>13.124</ele>
        <time>2012-08-12T11:25:37Z</time>
      </trkpt>
      <trkpt lat="51.1827" lon="4.32189">
        <ele>13.166</ele>
        <time>2012-08-12T11:25:16Z</time>
      </trkpt>
      <trkpt lat="51.18246" lon="4.32222">
        <ele>12.238</ele>
        <time>2012-08-12T11:25:03Z</time>
      </trkpt>
      <trkpt lat="51.18244" lon="4.32227">
        <ele>12.207</ele>
        <time>2012-08-12T11:24:45Z</time>
      </trkpt>
      <trkpt lat="51.18243" lon="4.32227">
        <ele>12.208</ele>
        <time>2012-08-12T11:24:13Z</time>
      </trkpt>
      <trkpt lat="51.18241" lon="4.32228">
        <ele>11.753</ele>
        <time>2012-08-12T11:23:44Z</time>
      </trkpt>
      <trkpt lat="51.18238" lon="4.32233">
        <ele>11.752</ele>
        <time>2012-08-12T11:23:35Z</time>
      </trkpt>
      <trkpt lat="51.1822" lon="4.32294">
        <ele>12.629</ele>
        <time>2012-08-12T11:23:22Z</time>
      </trkpt>
      <trkpt lat="51.18203" lon="4.32334">
        <ele>12.636</ele>
        <time>2012-08-12T11:23:08Z</time>
      </trkpt>
      <trkpt lat="51.18199" lon="4.32345">
        <ele>12.653</ele>
        <time>2012-08-12T11:22:46Z</time>
      </trkpt>
      <trkpt lat="51.18195" lon="4.32356">
        <ele>12.293</ele>
        <time>2012-08-12T11:22:29Z</time>
      </trkpt>
      <trkpt lat="51.18194" lon="4.32356">
        <ele>12.691</ele>
        <time>2012-08-12T11:22:14Z</time>
      </trkpt>
      <trkpt lat="51.18193" lon="4.32362">
        <ele>13.133</ele>
        <time>2012-08-12T11:22:01Z</time>
      </trkpt>
      <trkpt lat="51.18185" lon="4.32389">
        <ele>14.195</ele>
        <time>2012-08-12T11:21:51Z</time>
      </trkpt>
      <trkpt lat="51.1818" lon="4.32404">
        <ele>12.607</ele>
        <time>2012-08-12T11:21:48Z</time>
      </trkpt>
      <trkpt lat="51.18167" lon="4.32477">
        <ele>12.208</ele>
        <time>2012-08-12T11:21:35Z</time>
      </trkpt>
      <trkpt lat="51.18166" lon="4.32484">
        <ele>12.262</ele>
        <time>2012-08-12T11:21:34Z</time>
      </trkpt>
      <trkpt lat="51.18164" lon="4.3249">
        <ele>11.722</ele>
        <time>2012-08-12T11:21:33Z</time>
      </trkpt>
      <trkpt lat="51.1816" lon="4.325">
        <ele>12.66</ele>
        <time>2012-08-12T11:21:31Z</time>
      </trkpt>
      <trkpt lat="51.18159" lon="4.32504">
        <ele>12.627</ele>
        <time>2012-08-12T11:21:30Z</time>
      </trkpt>
      <trkpt lat="51.18156" lon="4.3251">
        <ele>13.694</ele>
        <time>2012-08-12T11:21:28Z</time>
      </trkpt>
      <trkpt lat="51.18117" lon="4.32504">
        <ele>15.054</ele>
        <time>2012-08-12T11:21:17Z</time>
      </trkpt>
      <trkpt lat="51.18067" lon="4.32484">
        <ele>14.692</ele>
        <time>2012-08-12T11:21:03Z</time>
      </trkpt>
      <trkpt lat="51.18023" lon="4.32488">
        <ele>14.174</ele>
        <time>2012-08-12T11:20:49Z</time>
      </trkpt>
      <trkpt lat="51.1794" lon="4.32479">
        <ele>13.686</ele>
        <time>2012-08-12T11:20:30Z</time>
      </trkpt>
      <trkpt lat="51.17921" lon="4.32479">
        <ele>13.607</ele>
        <time>2012-08-12T11:20:26Z</time>
      </trkpt>
      <trkpt lat="51.17912" lon="4.32477">
        <ele>13.621</ele>
        <time>2012-08-12T11:20:24Z</time>
      </trkpt>
      <trkpt lat="51.17871" lon="4.32479">
        <ele>13.601</ele>
        <time>2012-08-12T11:20:15Z</time>
      </trkpt>
      <trkpt lat="51.17802" lon="4.3248">
        <ele>13.139</ele>
        <time>2012-08-12T11:20:00Z</time>
      </trkpt>
      <trkpt lat="51.17758" lon="4.32482">
        <ele>13.684</ele>
        <time>2012-08-12T11:19:48Z</time>
      </trkpt>
      <trkpt lat="51.17743" lon="4.32482">
        <ele>12.621</ele>
        <time>2012-08-12T11:19:44Z</time>
      </trkpt>
      <trkpt lat="51.17725" lon="4.32444">
        <ele>11.718</ele>
        <time>2012-08-12T11:19:34Z</time>
      </trkpt>
      <trkpt lat="51.17721" lon="4.32372">
        <ele>12.678</ele>
        <time>2012-08-12T11:19:21Z</time>
      </trkpt>
      <trkpt lat="51.17707" lon="4.32348">
        <ele>13.136</ele>
        <time>2012-08-12T11:19:16Z</time>
      </trkpt>
      <trkpt lat="51.17696" lon="4.32345">
        <ele>12.638</ele>
        <time>2012-08-12T11:19:13Z</time>
      </trkpt>
      <trkpt lat="51.1768" lon="4.32348">
        <ele>12.62</ele>
        <time>2012-08-12T11:19:08Z</time>
      </trkpt>
      <trkpt lat="51.17675" lon="4.32366">
        <ele>12.207</ele>
        <time>2012-08-12T11:19:04Z</time>
      </trkpt>
      <trkpt lat="51.17673" lon="4.32449">
        <ele>12.627</ele>
        <time>2012-08-12T11:18:47Z</time>
      </trkpt>
      <trkpt lat="51.17668" lon="4.32464">
        <ele>12.661</ele>
        <time>2012-08-12T11:18:43Z</time>
      </trkpt>
      <trkpt lat="51.17644" lon="4.32469">
        <ele>13.177</ele>
        <time>2012-08-12T11:18:34Z</time>
      </trkpt>
      <trkpt lat="51.17621" lon="4.32471">
        <ele>12.663</ele>
        <time>2012-08-12T11:18:23Z</time>
      </trkpt>
      <trkpt lat="51.17614" lon="4.32471">
        <ele>13.14</ele>
        <time>2012-08-12T11:18:12Z</time>
      </trkpt>
      <trkpt lat="51.17601" lon="4.32432">
        <ele>12.627</ele>
        <time>2012-08-12T11:18:02Z</time>
      </trkpt>
      <trkpt lat="51.176" lon="4.32428">
        <ele>12.637</ele>
        <time>2012-08-12T11:18:01Z</time>
      </trkpt>
      <trkpt lat="51.17598" lon="4.32424">
        <ele>12.295</ele>
        <time>2012-08-12T11:18:00Z</time>
      </trkpt>
      <trkpt lat="51.17597" lon="4.32421">
        <ele>12.287</ele>
        <time>2012-08-12T11:17:59Z</time>
      </trkpt>
      <trkpt lat="51.17595" lon="4.3242">
        <ele>12.229</ele>
        <time>2012-08-12T11:17:58Z</time>
      </trkpt>
      <trkpt lat="51.17593" lon="4.3242">
        <ele>12.607</ele>
        <time>2012-08-12T11:17:57Z</time>
      </trkpt>
      <trkpt lat="51.17591" lon="4.32421">
        <ele>12.624</ele>
        <time>2012-08-12T11:17:56Z</time>
      </trkpt>
      <trkpt lat="51.1759" lon="4.32423">
        <ele>12.204</ele>
        <time>2012-08-12T11:17:55Z</time>
      </trkpt>
      <trkpt lat="51.1759" lon="4.32425">
        <ele>11.769</ele>
        <time>2012-08-12T11:17:54Z</time>
      </trkpt>
      <trkpt lat="51.17592" lon="4.32431">
        <ele>12.299</ele>
        <time>2012-08-12T11:17:27Z</time>
      </trkpt>
      <trkpt lat="51.17582" lon="4.32422">
        <ele>11.726</ele>
        <time>2012-08-12T11:17:17Z</time>
      </trkpt>
      <trkpt lat="51.17581" lon="4.32421">
        <ele>12.253</ele>
        <time>2012-08-12T11:17:16Z</time>
      </trkpt>
      <trkpt lat="51.17578" lon="4.32423">
        <ele>12.263</ele>
        <time>2012-08-12T11:17:14Z</time>
      </trkpt>
      <trkpt lat="51.17551" lon="4.32428">
        <ele>12.291</ele>
        <time>2012-08-12T11:17:04Z</time>
      </trkpt>
      <trkpt lat="51.17548" lon="4.32426">
        <ele>13.133</ele>
        <time>2012-08-12T11:17:03Z</time>
      </trkpt>
      <trkpt lat="51.17546" lon="4.32423">
        <ele>12.615</ele>
        <time>2012-08-12T11:17:02Z</time>
      </trkpt>
      <trkpt lat="51.17543" lon="4.32421">
        <ele>12.607</ele>
        <time>2012-08-12T11:17:01Z</time>
      </trkpt>
      <trkpt lat="51.17541" lon="4.3242">
        <ele>12.614</ele>
        <time>2012-08-12T11:17:00Z</time>
      </trkpt>
      <trkpt lat="51.17538" lon="4.32419">
        <ele>12.604</ele>
        <time>2012-08-12T11:16:59Z</time>
      </trkpt>
      <trkpt lat="51.17536" lon="4.3242">
        <ele>12.624</ele>
        <time>2012-08-12T11:16:58Z</time>
      </trkpt>
      <trkpt lat="51.17532" lon="4.32416">
        <ele>12.639</ele>
        <time>2012-08-12T11:16:52Z</time>
      </trkpt>
      <trkpt lat="51.17537" lon="4.32417">
        <ele>12.626</ele>
        <time>2012-08-12T11:16:50Z</time>
      </trkpt>
      <trkpt lat="51.17539" lon="4.32417">
        <ele>12.223</ele>
        <time>2012-08-12T11:16:49Z</time>
      </trkpt>
      <trkpt lat="51.17542" lon="4.32417">
        <ele>12.293</ele>
        <time>2012-08-12T11:16:48Z</time>
      </trkpt>
      <trkpt lat="51.17544" lon="4.32415">
        <ele>11.791</ele>
        <time>2012-08-12T11:16:47Z</time>
      </trkpt>
      <trkpt lat="51.17542" lon="4.32362">
        <ele>12.683</ele>
        <time>2012-08-12T11:16:35Z</time>
      </trkpt>
      <trkpt lat="51.17542" lon="4.32358">
        <ele>12.275</ele>
        <time>2012-08-12T11:16:34Z</time>
      </trkpt>
      <trkpt lat="51.17541" lon="4.32354">
        <ele>12.207</ele>
        <time>2012-08-12T11:16:33Z</time>
      </trkpt>
      <trkpt lat="51.1754" lon="4.32351">
        <ele>11.717</ele>
        <time>2012-08-12T11:16:32Z</time>
      </trkpt>
      <trkpt lat="51.17539" lon="4.32348">
        <ele>12.289</ele>
        <time>2012-08-12T11:16:31Z</time>
      </trkpt>
      <trkpt lat="51.17537" lon="4.32346">
        <ele>12.628</ele>
        <time>2012-08-12T11:16:30Z</time>
      </trkpt>
      <trkpt lat="51.17495" lon="4.32347">
        <ele>11.764</ele>
        <time>2012-08-12T11:16:18Z</time>
      </trkpt>
      <trkpt lat="51.1749" lon="4.32347">
        <ele>11.791</ele>
        <time>2012-08-12T11:16:17Z</time>
      </trkpt>
      <trkpt lat="51.17456" lon="4.3235">
        <ele>11.258</ele>
        <time>2012-08-12T11:16:08Z</time>
      </trkpt>
      <trkpt lat="51.17454" lon="4.32352">
        <ele>11.778</ele>
        <time>2012-08-12T11:16:07Z</time>
      </trkpt>
      <trkpt lat="51.17451" lon="4.32355">
        <ele>11.736</ele>
        <time>2012-08-12T11:16:06Z</time>
      </trkpt>
      <trkpt lat="51.1743" lon="4.3237">
        <ele>11.768</ele>
        <time>2012-08-12T11:15:58Z</time>
      </trkpt>
      <trkpt lat="51.17428" lon="4.32372">
        <ele>11.77</ele>
        <time>2012-08-12T11:15:57Z</time>
      </trkpt>
      <trkpt lat="51.17426" lon="4.32373">
        <ele>11.707</ele>
        <time>2012-08-12T11:15:56Z</time>
      </trkpt>
      <trkpt lat="51.17425" lon="4.32374">
        <ele>11.215</ele>
        <time>2012-08-12T11:15:55Z</time>
      </trkpt>
      <trkpt lat="51.17424" lon="4.32375">
        <ele>11.741</ele>
        <time>2012-08-12T11:15:54Z</time>
      </trkpt>
      <trkpt lat="51.1742" lon="4.32378">
        <ele>12.271</ele>
        <time>2012-08-12T11:15:49Z</time>
      </trkpt>
      <trkpt lat="51.17419" lon="4.32379">
        <ele>11.281</ele>
        <time>2012-08-12T11:15:48Z</time>
      </trkpt>
      <trkpt lat="51.17419" lon="4.32382">
        <ele>11.798</ele>
        <time>2012-08-12T11:15:43Z</time>
      </trkpt>
      <trkpt lat="51.17417" lon="4.32385">
        <ele>11.225</ele>
        <time>2012-08-12T11:15:29Z</time>
      </trkpt>
      <trkpt lat="51.17413" lon="4.32383">
        <ele>11.795</ele>
        <time>2012-08-12T11:15:19Z</time>
      </trkpt>
      <trkpt lat="51.17412" lon="4.3238">
        <ele>11.733</ele>
        <time>2012-08-12T11:15:16Z</time>
      </trkpt>
      <trkpt lat="51.17408" lon="4.32383">
        <ele>11.755</ele>
        <time>2012-08-12T11:15:07Z</time>
      </trkpt>
      <trkpt lat="51.17379" lon="4.32374">
        <ele>12.267</ele>
        <time>2012-08-12T11:14:58Z</time>
      </trkpt>
      <trkpt lat="51.17375" lon="4.32372">
        <ele>12.207</ele>
        <time>2012-08-12T11:14:57Z</time>
      </trkpt>
      <trkpt lat="51.17315" lon="4.32337">
        <ele>12.21</ele>
        <time>2012-08-12T11:14:44Z</time>
      </trkpt>
      <trkpt lat="51.17288" lon="4.32317">
        <ele>12.264</ele>
        <time>2012-08-12T11:14:38Z</time>
      </trkpt>
      <trkpt lat="51.17242" lon="4.323">
        <ele>12.643</ele>
        <time>2012-08-12T11:14:28Z</time>
      </trkpt>
      <trkpt lat="51.17201" lon="4.32311">
        <ele>13.659</ele>
        <time>2012-08-12T11:14:20Z</time>
      </trkpt>
      <trkpt lat="51.17193" lon="4.32317">
        <ele>13.626</ele>
        <time>2012-08-12T11:14:18Z</time>
      </trkpt>
      <trkpt lat="51.17155" lon="4.32354">
        <ele>13.193</ele>
        <time>2012-08-12T11:14:08Z</time>
      </trkpt>
      <trkpt lat="51.17111" lon="4.32401">
        <ele>13.683</ele>
        <time>2012-08-12T11:13:54Z</time>
      </trkpt>
      <trkpt lat="51.17061" lon="4.32447">
        <ele>12.621</ele>
        <time>2012-08-12T11:13:37Z</time>
      </trkpt>
      <trkpt lat="51.17057" lon="4.32449">
        <ele>13.163</ele>
        <time>2012-08-12T11:13:36Z</time>
      </trkpt>
      <trkpt lat="51.17054" lon="4.32451">
        <ele>12.615</ele>
        <time>2012-08-12T11:13:35Z</time>
      </trkpt>
      <trkpt lat="51.1705" lon="4.32453">
        <ele>12.207</ele>
        <time>2012-08-12T11:13:34Z</time>
      </trkpt>
      <trkpt lat="51.17015" lon="4.32477">
        <ele>11.217</ele>
        <time>2012-08-12T11:13:25Z</time>
      </trkpt>
      <trkpt lat="51.1701" lon="4.32478">
        <ele>11.289</ele>
        <time>2012-08-12T11:13:24Z</time>
      </trkpt>
      <trkpt lat="51.17005" lon="4.32479">
        <ele>10.728</ele>
        <time>2012-08-12T11:13:23Z</time>
      </trkpt>
      <trkpt lat="51.16925" lon="4.32477">
        <ele>12.252</ele>
        <time>2012-08-12T11:13:05Z</time>
      </trkpt>
      <trkpt lat="51.16866" lon="4.32492">
        <ele>11.789</ele>
        <time>2012-08-12T11:12:50Z</time>
      </trkpt>
      <trkpt lat="51.16863" lon="4.32495">
        <ele>12.246</ele>
        <time>2012-08-12T11:12:49Z</time>
      </trkpt>
      <trkpt lat="51.16819" lon="4.3255">
        <ele>12.216</ele>
        <time>2012-08-12T11:12:35Z</time>
      </trkpt>
      <trkpt lat="51.16776" lon="4.32573">
        <ele>11.774</ele>
        <time>2012-08-12T11:12:22Z</time>
      </trkpt>
      <trkpt lat="51.16749" lon="4.3254">
        <ele>10.796</ele>
        <time>2012-08-12T11:12:09Z</time>
      </trkpt>
      <trkpt lat="51.16712" lon="4.325">
        <ele>8.318</ele>
        <time>2012-08-12T11:11:56Z</time>
      </trkpt>
      <trkpt lat="51.16682" lon="4.32493">
        <ele>8.307</ele>
        <time>2012-08-12T11:11:45Z</time>
      </trkpt>
      <trkpt lat="51.16666" lon="4.32496">
        <ele>8.308</ele>
        <time>2012-08-12T11:11:41Z</time>
      </trkpt>
      <trkpt lat="51.16662" lon="4.32496">
        <ele>7.453</ele>
        <time>2012-08-12T11:11:40Z</time>
      </trkpt>
      <trkpt lat="51.16658" lon="4.32497">
        <ele>7.852</ele>
        <time>2012-08-12T11:11:39Z</time>
      </trkpt>
      <trkpt lat="51.16653" lon="4.32499">
        <ele>7.478</ele>
        <time>2012-08-12T11:11:38Z</time>
      </trkpt>
      <trkpt lat="51.1665" lon="4.32503">
        <ele>7.845</ele>
        <time>2012-08-12T11:11:37Z</time>
      </trkpt>
      <trkpt lat="51.16647" lon="4.32508">
        <ele>7.822</ele>
        <time>2012-08-12T11:11:36Z</time>
      </trkpt>
      <trkpt lat="51.16637" lon="4.32547">
        <ele>10.782</ele>
        <time>2012-08-12T11:11:30Z</time>
      </trkpt>
      <trkpt lat="51.16635" lon="4.32553">
        <ele>11.22</ele>
        <time>2012-08-12T11:11:29Z</time>
      </trkpt>
      <trkpt lat="51.16633" lon="4.3256">
        <ele>11.772</ele>
        <time>2012-08-12T11:11:28Z</time>
      </trkpt>
      <trkpt lat="51.1663" lon="4.32566">
        <ele>11.734</ele>
        <time>2012-08-12T11:11:27Z</time>
      </trkpt>
      <trkpt lat="51.16627" lon="4.32572">
        <ele>12.207</ele>
        <time>2012-08-12T11:11:26Z</time>
      </trkpt>
      <trkpt lat="51.16624" lon="4.32577">
        <ele>11.719</ele>
        <time>2012-08-12T11:11:25Z</time>
      </trkpt>
      <trkpt lat="51.1662" lon="4.32581">
        <ele>11.709</ele>
        <time>2012-08-12T11:11:24Z</time>
      </trkpt>
      <trkpt lat="51.16616" lon="4.32584">
        <ele>11.719</ele>
        <time>2012-08-12T11:11:23Z</time>
      </trkpt>
      <trkpt lat="51.16611" lon="4.32587">
        <ele>11.262</ele>
        <time>2012-08-12T11:11:22Z</time>
      </trkpt>
      <trkpt lat="51.16607" lon="4.32588">
        <ele>12.289</ele>
        <time>2012-08-12T11:11:21Z</time>
      </trkpt>
      <trkpt lat="51.16599" lon="4.3259">
        <ele>12.276</ele>
        <time>2012-08-12T11:11:19Z</time>
      </trkpt>
      <trkpt lat="51.16594" lon="4.3259">
        <ele>11.786</ele>
        <time>2012-08-12T11:11:18Z</time>
      </trkpt>
      <trkpt lat="51.16586" lon="4.32588">
        <ele>11.764</ele>
        <time>2012-08-12T11:11:16Z</time>
      </trkpt>
      <trkpt lat="51.16581" lon="4.32587">
        <ele>11.756</ele>
        <time>2012-08-12T11:11:15Z</time>
      </trkpt>
      <trkpt lat="51.16547" lon="4.32597">
        <ele>12.258</ele>
        <time>2012-08-12T11:11:08Z</time>
      </trkpt>
      <trkpt lat="51.16482" lon="4.32603">
        <ele>11.707</ele>
        <time>2012-08-12T11:10:55Z</time>
      </trkpt>
      <trkpt lat="51.16468" lon="4.32594">
        <ele>11.214</ele>
        <time>2012-08-12T11:10:52Z</time>
      </trkpt>
      <trkpt lat="51.16464" lon="4.3259">
        <ele>11.259</ele>
        <time>2012-08-12T11:10:51Z</time>
      </trkpt>
      <trkpt lat="51.1646" lon="4.32587">
        <ele>11.256</ele>
        <time>2012-08-12T11:10:50Z</time>
      </trkpt>
      <trkpt lat="51.16455" lon="4.32584">
        <ele>11.72</ele>
        <time>2012-08-12T11:10:49Z</time>
      </trkpt>
      <trkpt lat="51.16451" lon="4.32582">
        <ele>11.717</ele>
        <time>2012-08-12T11:10:48Z</time>
      </trkpt>
      <trkpt lat="51.16446" lon="4.3258">
        <ele>11.754</ele>
        <time>2012-08-12T11:10:47Z</time>
      </trkpt>
      <trkpt lat="51.16409" lon="4.32565">
        <ele>11.774</ele>
        <time>2012-08-12T11:10:39Z</time>
      </trkpt>
      <trkpt lat="51.16404" lon="4.32563">
        <ele>11.742</ele>
        <time>2012-08-12T11:10:38Z</time>
      </trkpt>
      <trkpt lat="51.16382" lon="4.32548">
        <ele>11.724</ele>
        <time>2012-08-12T11:10:33Z</time>
      </trkpt>
      <trkpt lat="51.16378" lon="4.32544">
        <ele>11.776</ele>
        <time>2012-08-12T11:10:32Z</time>
      </trkpt>
      <trkpt lat="51.16374" lon="4.32539">
        <ele>11.707</ele>
        <time>2012-08-12T11:10:31Z</time>
      </trkpt>
      <trkpt lat="51.16369" lon="4.32535">
        <ele>11.717</ele>
        <time>2012-08-12T11:10:30Z</time>
      </trkpt>
      <trkpt lat="51.16365" lon="4.32532">
        <ele>11.77</ele>
        <time>2012-08-12T11:10:29Z</time>
      </trkpt>
      <trkpt lat="51.1636" lon="4.3253">
        <ele>11.738</ele>
        <time>2012-08-12T11:10:28Z</time>
      </trkpt>
      <trkpt lat="51.16355" lon="4.32531">
        <ele>11.749</ele>
        <time>2012-08-12T11:10:27Z</time>
      </trkpt>
      <trkpt lat="51.16351" lon="4.32535">
        <ele>11.736</ele>
        <time>2012-08-12T11:10:26Z</time>
      </trkpt>
      <trkpt lat="51.16347" lon="4.32539">
        <ele>12.223</ele>
        <time>2012-08-12T11:10:25Z</time>
      </trkpt>
      <trkpt lat="51.16333" lon="4.32562">
        <ele>12.233</ele>
        <time>2012-08-12T11:10:21Z</time>
      </trkpt>
      <trkpt lat="51.1633" lon="4.32569">
        <ele>11.281</ele>
        <time>2012-08-12T11:10:20Z</time>
      </trkpt>
      <trkpt lat="51.16327" lon="4.32574">
        <ele>11.753</ele>
        <time>2012-08-12T11:10:19Z</time>
      </trkpt>
      <trkpt lat="51.16323" lon="4.3258">
        <ele>11.235</ele>
        <time>2012-08-12T11:10:18Z</time>
      </trkpt>
      <trkpt lat="51.16319" lon="4.32584">
        <ele>11.707</ele>
        <time>2012-08-12T11:10:17Z</time>
      </trkpt>
      <trkpt lat="51.16314" lon="4.32588">
        <ele>11.205</ele>
        <time>2012-08-12T11:10:16Z</time>
      </trkpt>
      <trkpt lat="51.1631" lon="4.32592">
        <ele>11.241</ele>
        <time>2012-08-12T11:10:15Z</time>
      </trkpt>
      <trkpt lat="51.16301" lon="4.32597">
        <ele>11.221</ele>
        <time>2012-08-12T11:10:13Z</time>
      </trkpt>
      <trkpt lat="51.16296" lon="4.326">
        <ele>11.211</ele>
        <time>2012-08-12T11:10:12Z</time>
      </trkpt>
      <trkpt lat="51.16232" lon="4.32612">
        <ele>11.728</ele>
        <time>2012-08-12T11:09:59Z</time>
      </trkpt>
      <trkpt lat="51.16137" lon="4.32583">
        <ele>11.295</ele>
        <time>2012-08-12T11:09:39Z</time>
      </trkpt>
      <trkpt lat="51.16123" lon="4.32578">
        <ele>11.745</ele>
        <time>2012-08-12T11:09:36Z</time>
      </trkpt>
      <trkpt lat="51.16119" lon="4.32577">
        <ele>12.263</ele>
        <time>2012-08-12T11:09:35Z</time>
      </trkpt>
      <trkpt lat="51.16114" lon="4.32576">
        <ele>11.725</ele>
        <time>2012-08-12T11:09:34Z</time>
      </trkpt>
      <trkpt lat="51.16101" lon="4.3257">
        <ele>11.717</ele>
        <time>2012-08-12T11:09:31Z</time>
      </trkpt>
      <trkpt lat="51.16097" lon="4.32568">
        <ele>11.707</ele>
        <time>2012-08-12T11:09:30Z</time>
      </trkpt>
      <trkpt lat="51.16042" lon="4.32549">
        <ele>11.211</ele>
        <time>2012-08-12T11:09:15Z</time>
      </trkpt>
      <trkpt lat="51.16039" lon="4.32547">
        <ele>11.747</ele>
        <time>2012-08-12T11:09:14Z</time>
      </trkpt>
      <trkpt lat="51.16036" lon="4.32545">
        <ele>11.745</ele>
        <time>2012-08-12T11:09:13Z</time>
      </trkpt>
      <trkpt lat="51.16034" lon="4.32545">
        <ele>11.789</ele>
        <time>2012-08-12T11:09:12Z</time>
      </trkpt>
      <trkpt lat="51.16031" lon="4.32545">
        <ele>11.796</ele>
        <time>2012-08-12T11:09:11Z</time>
      </trkpt>
      <trkpt lat="51.16029" lon="4.32545">
        <ele>11.713</ele>
        <time>2012-08-12T11:09:10Z</time>
      </trkpt>
      <trkpt lat="51.16028" lon="4.32546">
        <ele>11.793</ele>
        <time>2012-08-12T11:09:09Z</time>
      </trkpt>
      <trkpt lat="51.16027" lon="4.32546">
        <ele>11.711</ele>
        <time>2012-08-12T11:09:08Z</time>
      </trkpt>
      <trkpt lat="51.16026" lon="4.32547">
        <ele>11.233</ele>
        <time>2012-08-12T11:09:01Z</time>
      </trkpt>
      <trkpt lat="51.16025" lon="4.32547">
        <ele>11.735</ele>
        <time>2012-08-12T11:08:30Z</time>
      </trkpt>
      <trkpt lat="51.16005" lon="4.32549">
        <ele>12.607</ele>
        <time>2012-08-12T11:08:21Z</time>
      </trkpt>
      <trkpt lat="51.15993" lon="4.32553">
        <ele>13.111</ele>
        <time>2012-08-12T11:08:18Z</time>
      </trkpt>
      <trkpt lat="51.15953" lon="4.32554">
        <ele>13.183</ele>
        <time>2012-08-12T11:08:04Z</time>
      </trkpt>
      <trkpt lat="51.15911" lon="4.32565">
        <ele>13.123</ele>
        <time>2012-08-12T11:07:50Z</time>
      </trkpt>
      <trkpt lat="51.15869" lon="4.32604">
        <ele>13.623</ele>
        <time>2012-08-12T11:07:34Z</time>
      </trkpt>
      <trkpt lat="51.15867" lon="4.32607">
        <ele>13.63</ele>
        <time>2012-08-12T11:07:33Z</time>
      </trkpt>
      <trkpt lat="51.15865" lon="4.32609">
        <ele>13.157</ele>
        <time>2012-08-12T11:07:32Z</time>
      </trkpt>
      <trkpt lat="51.15864" lon="4.32611">
        <ele>12.627</ele>
        <time>2012-08-12T11:07:31Z</time>
      </trkpt>
      <trkpt lat="51.15863" lon="4.32613">
        <ele>13.195</ele>
        <time>2012-08-12T11:07:30Z</time>
      </trkpt>
      <trkpt lat="51.15862" lon="4.32613">
        <ele>13.187</ele>
        <time>2012-08-12T11:07:29Z</time>
      </trkpt>
      <trkpt lat="51.15862" lon="4.32614">
        <ele>12.649</ele>
        <time>2012-08-12T11:07:24Z</time>
      </trkpt>
      <trkpt lat="51.15808" lon="4.32634">
        <ele>13.107</ele>
        <time>2012-08-12T11:07:07Z</time>
      </trkpt>
      <trkpt lat="51.15752" lon="4.32615">
        <ele>12.619</ele>
        <time>2012-08-12T11:06:50Z</time>
      </trkpt>
      <trkpt lat="51.15711" lon="4.32604">
        <ele>13.181</ele>
        <time>2012-08-12T11:06:36Z</time>
      </trkpt>
      <trkpt lat="51.15667" lon="4.32615">
        <ele>13.167</ele>
        <time>2012-08-12T11:06:20Z</time>
      </trkpt>
      <trkpt lat="51.15615" lon="4.32635">
        <ele>13.139</ele>
        <time>2012-08-12T11:06:01Z</time>
      </trkpt>
      <trkpt lat="51.15577" lon="4.32676">
        <ele>13.136</ele>
        <time>2012-08-12T11:05:43Z</time>
      </trkpt>
      <trkpt lat="51.1557" lon="4.32689">
        <ele>12.663</ele>
        <time>2012-08-12T11:05:19Z</time>
      </trkpt>
      <trkpt lat="51.15571" lon="4.32687">
        <ele>12.643</ele>
        <time>2012-08-12T11:04:53Z</time>
      </trkpt>
      <trkpt lat="51.15531" lon="4.32721">
        <ele>12.651</ele>
        <time>2012-08-12T11:04:38Z</time>
      </trkpt>
      <trkpt lat="51.15489" lon="4.32676">
        <ele>12.613</ele>
        <time>2012-08-12T11:04:22Z</time>
      </trkpt>
      <trkpt lat="51.15456" lon="4.32617">
        <ele>13.195</ele>
        <time>2012-08-12T11:04:07Z</time>
      </trkpt>
      <trkpt lat="51.15427" lon="4.32586">
        <ele>12.607</ele>
        <time>2012-08-12T11:03:56Z</time>
      </trkpt>
      <trkpt lat="51.15403" lon="4.32602">
        <ele>12.62</ele>
        <time>2012-08-12T11:03:44Z</time>
      </trkpt>
      <trkpt lat="51.1538" lon="4.32653">
        <ele>12.6</ele>
        <time>2012-08-12T11:03:31Z</time>
      </trkpt>
      <trkpt lat="51.15378" lon="4.32659">
        <ele>13.129</ele>
        <time>2012-08-12T11:03:30Z</time>
      </trkpt>
      <trkpt lat="51.15376" lon="4.32663">
        <ele>12.663</ele>
        <time>2012-08-12T11:03:29Z</time>
      </trkpt>
      <trkpt lat="51.1537" lon="4.32665">
        <ele>12.63</ele>
        <time>2012-08-12T11:03:27Z</time>
      </trkpt>
      <trkpt lat="51.15323" lon="4.32645">
        <ele>13.117</ele>
        <time>2012-08-12T11:03:13Z</time>
      </trkpt>
      <trkpt lat="51.1528" lon="4.32644">
        <ele>13.127</ele>
        <time>2012-08-12T11:02:59Z</time>
      </trkpt>
      <trkpt lat="51.15229" lon="4.32638">
        <ele>11.765</ele>
        <time>2012-08-12T11:02:44Z</time>
      </trkpt>
      <trkpt lat="51.15224" lon="4.32631">
        <ele>11.717</ele>
        <time>2012-08-12T11:02:42Z</time>
      </trkpt>
      <trkpt lat="51.15186" lon="4.32573">
        <ele>11.789</ele>
        <time>2012-08-12T11:02:27Z</time>
      </trkpt>
      <trkpt lat="51.15149" lon="4.32529">
        <ele>12.207</ele>
        <time>2012-08-12T11:02:15Z</time>
      </trkpt>
      <trkpt lat="51.15092" lon="4.32542">
        <ele>11.726</ele>
        <time>2012-08-12T11:01:59Z</time>
      </trkpt>
      <trkpt lat="51.15046" lon="4.32573">
        <ele>11.242</ele>
        <time>2012-08-12T11:01:45Z</time>
      </trkpt>
      <trkpt lat="51.15021" lon="4.32588">
        <ele>11.768</ele>
        <time>2012-08-12T11:01:35Z</time>
      </trkpt>
      <trkpt lat="51.14969" lon="4.32582">
        <ele>13.676</ele>
        <time>2012-08-12T11:01:21Z</time>
      </trkpt>
      <trkpt lat="51.14946" lon="4.32579">
        <ele>13.113</ele>
        <time>2012-08-12T11:01:15Z</time>
      </trkpt>
      <trkpt lat="51.14883" lon="4.32577">
        <ele>13.63</ele>
        <time>2012-08-12T11:00:58Z</time>
      </trkpt>
      <trkpt lat="51.14834" lon="4.32582">
        <ele>13.17</ele>
        <time>2012-08-12T11:00:44Z</time>
      </trkpt>
      <trkpt lat="51.14786" lon="4.32597">
        <ele>11.778</ele>
        <time>2012-08-12T11:00:31Z</time>
      </trkpt>
      <trkpt lat="51.1474" lon="4.32607">
        <ele>11.76</ele>
        <time>2012-08-12T11:00:18Z</time>
      </trkpt>
      <trkpt lat="51.14681" lon="4.32616">
        <ele>11.752</ele>
        <time>2012-08-12T11:00:02Z</time>
      </trkpt>
      <trkpt lat="51.14677" lon="4.32616">
        <ele>12.207</ele>
        <time>2012-08-12T11:00:01Z</time>
      </trkpt>
      <trkpt lat="51.14673" lon="4.32615">
        <ele>11.722</ele>
        <time>2012-08-12T11:00:00Z</time>
      </trkpt>
      <trkpt lat="51.14669" lon="4.32615">
        <ele>12.257</ele>
        <time>2012-08-12T10:59:59Z</time>
      </trkpt>
      <trkpt lat="51.14665" lon="4.32615">
        <ele>11.794</ele>
        <time>2012-08-12T10:59:58Z</time>
      </trkpt>
      <trkpt lat="51.14661" lon="4.32614">
        <ele>12.238</ele>
        <time>2012-08-12T10:59:57Z</time>
      </trkpt>
      <trkpt lat="51.14657" lon="4.32612">
        <ele>11.735</ele>
        <time>2012-08-12T10:59:56Z</time>
      </trkpt>
      <trkpt lat="51.14653" lon="4.3261">
        <ele>11.782</ele>
        <time>2012-08-12T10:59:55Z</time>
      </trkpt>
      <trkpt lat="51.1465" lon="4.32606">
        <ele>11.242</ele>
        <time>2012-08-12T10:59:54Z</time>
      </trkpt>
      <trkpt lat="51.14646" lon="4.32602">
        <ele>11.77</ele>
        <time>2012-08-12T10:59:53Z</time>
      </trkpt>
      <trkpt lat="51.14623" lon="4.32532">
        <ele>11.762</ele>
        <time>2012-08-12T10:59:41Z</time>
      </trkpt>
      <trkpt lat="51.14621" lon="4.32526">
        <ele>12.294</ele>
        <time>2012-08-12T10:59:40Z</time>
      </trkpt>
      <trkpt lat="51.14614" lon="4.3251">
        <ele>11.707</ele>
        <time>2012-08-12T10:59:37Z</time>
      </trkpt>
      <trkpt lat="51.14609" lon="4.325">
        <ele>11.719</ele>
        <time>2012-08-12T10:59:35Z</time>
      </trkpt>
      <trkpt lat="51.14606" lon="4.32496">
        <ele>11.709</ele>
        <time>2012-08-12T10:59:34Z</time>
      </trkpt>
      <trkpt lat="51.14602" lon="4.32492">
        <ele>11.719</ele>
        <time>2012-08-12T10:59:33Z</time>
      </trkpt>
      <trkpt lat="51.14583" lon="4.32485">
        <ele>11.715</ele>
        <time>2012-08-12T10:59:28Z</time>
      </trkpt>
      <trkpt lat="51.14547" lon="4.32491">
        <ele>11.262</ele>
        <time>2012-08-12T10:59:18Z</time>
      </trkpt>
      <trkpt lat="51.14544" lon="4.32494">
        <ele>11.219</ele>
        <time>2012-08-12T10:59:17Z</time>
      </trkpt>
      <trkpt lat="51.14531" lon="4.32512">
        <ele>11.219</ele>
        <time>2012-08-12T10:59:13Z</time>
      </trkpt>
      <trkpt lat="51.14514" lon="4.32526">
        <ele>11.237</ele>
        <time>2012-08-12T10:59:08Z</time>
      </trkpt>
      <trkpt lat="51.14461" lon="4.32519">
        <ele>11.229</ele>
        <time>2012-08-12T10:58:54Z</time>
      </trkpt>
      <trkpt lat="51.14437" lon="4.32513">
        <ele>13.181</ele>
        <time>2012-08-12T10:58:44Z</time>
      </trkpt>
      <trkpt lat="51.14403" lon="4.32509">
        <ele>13.107</ele>
        <time>2012-08-12T10:58:32Z</time>
      </trkpt>
      <trkpt lat="51.14399" lon="4.32508">
        <ele>14.117</ele>
        <time>2012-08-12T10:58:31Z</time>
      </trkpt>
      <trkpt lat="51.14396" lon="4.32508">
        <ele>14.125</ele>
        <time>2012-08-12T10:58:30Z</time>
      </trkpt>
      <trkpt lat="51.14393" lon="4.32508">
        <ele>13.183</ele>
        <time>2012-08-12T10:58:29Z</time>
      </trkpt>
      <trkpt lat="51.1439" lon="4.3251">
        <ele>13.159</ele>
        <time>2012-08-12T10:58:28Z</time>
      </trkpt>
      <trkpt lat="51.14388" lon="4.32513">
        <ele>13.696</ele>
        <time>2012-08-12T10:58:27Z</time>
      </trkpt>
      <trkpt lat="51.14387" lon="4.32516">
        <ele>13.633</ele>
        <time>2012-08-12T10:58:26Z</time>
      </trkpt>
      <trkpt lat="51.14386" lon="4.32519">
        <ele>13.613</ele>
        <time>2012-08-12T10:58:25Z</time>
      </trkpt>
      <trkpt lat="51.14385" lon="4.32522">
        <ele>13.631</ele>
        <time>2012-08-12T10:58:24Z</time>
      </trkpt>
      <trkpt lat="51.14385" lon="4.32524">
        <ele>13.663</ele>
        <time>2012-08-12T10:58:23Z</time>
      </trkpt>
      <trkpt lat="51.14381" lon="4.32526">
        <ele>13.675</ele>
        <time>2012-08-12T10:58:21Z</time>
      </trkpt>
      <trkpt lat="51.14372" lon="4.32551">
        <ele>13.607</ele>
        <time>2012-08-12T10:58:14Z</time>
      </trkpt>
      <trkpt lat="51.14371" lon="4.32557">
        <ele>13.114</ele>
        <time>2012-08-12T10:58:13Z</time>
      </trkpt>
      <trkpt lat="51.14369" lon="4.32562">
        <ele>13.104</ele>
        <time>2012-08-12T10:58:12Z</time>
      </trkpt>
      <trkpt lat="51.14368" lon="4.32568">
        <ele>13.124</ele>
        <time>2012-08-12T10:58:11Z</time>
      </trkpt>
      <trkpt lat="51.14366" lon="4.32574">
        <ele>13.112</ele>
        <time>2012-08-12T10:58:10Z</time>
      </trkpt>
      <trkpt lat="51.14364" lon="4.32579">
        <ele>13.149</ele>
        <time>2012-08-12T10:58:09Z</time>
      </trkpt>
      <trkpt lat="51.14348" lon="4.32606">
        <ele>13.196</ele>
        <time>2012-08-12T10:58:03Z</time>
      </trkpt>
      <trkpt lat="51.14345" lon="4.3261">
        <ele>12.626</ele>
        <time>2012-08-12T10:58:02Z</time>
      </trkpt>
      <trkpt lat="51.14342" lon="4.32615">
        <ele>13.184</ele>
        <time>2012-08-12T10:58:01Z</time>
      </trkpt>
      <trkpt lat="51.1434" lon="4.3262">
        <ele>13.126</ele>
        <time>2012-08-12T10:58:00Z</time>
      </trkpt>
      <trkpt lat="51.14337" lon="4.32624">
        <ele>13.188</ele>
        <time>2012-08-12T10:57:59Z</time>
      </trkpt>
      <trkpt lat="51.14333" lon="4.32627">
        <ele>13.107</ele>
        <time>2012-08-12T10:57:58Z</time>
      </trkpt>
      <trkpt lat="51.14298" lon="4.32605">
        <ele>14.114</ele>
        <time>2012-08-12T10:57:48Z</time>
      </trkpt>
      <trkpt lat="51.14256" lon="4.32541">
        <ele>13.604</ele>
        <time>2012-08-12T10:57:32Z</time>
      </trkpt>
      <trkpt lat="51.14219" lon="4.32497">
        <ele>13.653</ele>
        <time>2012-08-12T10:57:17Z</time>
      </trkpt>
      <trkpt lat="51.14157" lon="4.32478">
        <ele>13.623</ele>
        <time>2012-08-12T10:57:01Z</time>
      </trkpt>
      <trkpt lat="51.14153" lon="4.32476">
        <ele>13.61</ele>
        <time>2012-08-12T10:57:00Z</time>
      </trkpt>
      <trkpt lat="51.14109" lon="4.32462">
        <ele>13.147</ele>
        <time>2012-08-12T10:56:48Z</time>
      </trkpt>
      <trkpt lat="51.14081" lon="4.32447">
        <ele>12.217</ele>
        <time>2012-08-12T10:56:38Z</time>
      </trkpt>
      <trkpt lat="51.14077" lon="4.32444">
        <ele>12.655</ele>
        <time>2012-08-12T10:56:37Z</time>
      </trkpt>
      <trkpt lat="51.14028" lon="4.32429">
        <ele>12.227</ele>
        <time>2012-08-12T10:56:26Z</time>
      </trkpt>
      <trkpt lat="51.1395" lon="4.324">
        <ele>12.259</ele>
        <time>2012-08-12T10:56:08Z</time>
      </trkpt>
      <trkpt lat="51.13877" lon="4.32358">
        <ele>11.707</ele>
        <time>2012-08-12T10:55:51Z</time>
      </trkpt>
      <trkpt lat="51.13815" lon="4.3231">
        <ele>12.216</ele>
        <time>2012-08-12T10:55:34Z</time>
      </trkpt>
      <trkpt lat="51.13812" lon="4.32308">
        <ele>12.206</ele>
        <time>2012-08-12T10:55:33Z</time>
      </trkpt>
      <trkpt lat="51.13809" lon="4.32305">
        <ele>12.264</ele>
        <time>2012-08-12T10:55:32Z</time>
      </trkpt>
      <trkpt lat="51.13806" lon="4.32302">
        <ele>12.619</ele>
        <time>2012-08-12T10:55:31Z</time>
      </trkpt>
      <trkpt lat="51.13803" lon="4.32299">
        <ele>11.756</ele>
        <time>2012-08-12T10:55:30Z</time>
      </trkpt>
      <trkpt lat="51.13763" lon="4.3229">
        <ele>11.733</ele>
        <time>2012-08-12T10:55:17Z</time>
      </trkpt>
      <trkpt lat="51.13718" lon="4.32302">
        <ele>12.223</ele>
        <time>2012-08-12T10:55:03Z</time>
      </trkpt>
      <trkpt lat="51.13681" lon="4.32303">
        <ele>11.281</ele>
        <time>2012-08-12T10:54:50Z</time>
      </trkpt>
      <trkpt lat="51.13645" lon="4.32322">
        <ele>11.713</ele>
        <time>2012-08-12T10:54:37Z</time>
      </trkpt>
      <trkpt lat="51.13615" lon="4.32365">
        <ele>9.315</ele>
        <time>2012-08-12T10:54:25Z</time>
      </trkpt>
      <trkpt lat="51.13571" lon="4.32357">
        <ele>10.207</ele>
        <time>2012-08-12T10:54:13Z</time>
      </trkpt>
      <trkpt lat="51.1354" lon="4.32338">
        <ele>10.205</ele>
        <time>2012-08-12T10:54:01Z</time>
      </trkpt>
      <trkpt lat="51.13509" lon="4.32328">
        <ele>11.741</ele>
        <time>2012-08-12T10:53:48Z</time>
      </trkpt>
      <trkpt lat="51.13459" lon="4.32292">
        <ele>12.221</ele>
        <time>2012-08-12T10:53:34Z</time>
      </trkpt>
      <trkpt lat="51.13435" lon="4.32271">
        <ele>11.741</ele>
        <time>2012-08-12T10:53:27Z</time>
      </trkpt>
      <trkpt lat="51.13396" lon="4.32175">
        <ele>12.268</ele>
        <time>2012-08-12T10:53:09Z</time>
      </trkpt>
      <trkpt lat="51.13376" lon="4.32078">
        <ele>12.245</ele>
        <time>2012-08-12T10:52:53Z</time>
      </trkpt>
      <trkpt lat="51.13359" lon="4.3196">
        <ele>12.275</ele>
        <time>2012-08-12T10:52:34Z</time>
      </trkpt>
      <trkpt lat="51.13342" lon="4.31863">
        <ele>11.213</ele>
        <time>2012-08-12T10:52:15Z</time>
      </trkpt>
      <trkpt lat="51.13312" lon="4.31778">
        <ele>12.215</ele>
        <time>2012-08-12T10:51:56Z</time>
      </trkpt>
      <trkpt lat="51.13278" lon="4.31743">
        <ele>12.247</ele>
        <time>2012-08-12T10:51:42Z</time>
      </trkpt>
      <trkpt lat="51.13247" lon="4.31722">
        <ele>11.707</ele>
        <time>2012-08-12T10:51:27Z</time>
      </trkpt>
      <trkpt lat="51.1321" lon="4.31695">
        <ele>11.714</ele>
        <time>2012-08-12T10:51:12Z</time>
      </trkpt>
      <trkpt lat="51.13168" lon="4.31667">
        <ele>11.722</ele>
        <time>2012-08-12T10:50:56Z</time>
      </trkpt>
      <trkpt lat="51.13167" lon="4.31666">
        <ele>11.742</ele>
        <time>2012-08-12T10:50:55Z</time>
      </trkpt>
      <trkpt lat="51.13165" lon="4.31665">
        <ele>11.711</ele>
        <time>2012-08-12T10:50:52Z</time>
      </trkpt>
      <trkpt lat="51.13163" lon="4.31668">
        <ele>11.738</ele>
        <time>2012-08-12T10:50:27Z</time>
      </trkpt>
      <trkpt lat="51.13163" lon="4.31665">
        <ele>11.745</ele>
        <time>2012-08-12T10:49:44Z</time>
      </trkpt>
      <trkpt lat="51.13163" lon="4.31664">
        <ele>12.283</ele>
        <time>2012-08-12T10:48:33Z</time>
      </trkpt>
      <trkpt lat="51.13164" lon="4.31665">
        <ele>12.235</ele>
        <time>2012-08-12T10:47:59Z</time>
      </trkpt>
      <trkpt lat="51.13139" lon="4.31633">
        <ele>12.257</ele>
        <time>2012-08-12T10:47:45Z</time>
      </trkpt>
      <trkpt lat="51.13122" lon="4.3159">
        <ele>10.707</ele>
        <time>2012-08-12T10:47:33Z</time>
      </trkpt>
      <trkpt lat="51.1312" lon="4.31555">
        <ele>8.814</ele>
        <time>2012-08-12T10:47:24Z</time>
      </trkpt>
      <trkpt lat="51.13118" lon="4.31556">
        <ele>9.322</ele>
        <time>2012-08-12T10:47:23Z</time>
      </trkpt>
      <trkpt lat="51.13045" lon="4.31602">
        <ele>9.842</ele>
        <time>2012-08-12T10:47:06Z</time>
      </trkpt>
      <trkpt lat="51.1304" lon="4.31604">
        <ele>10.224</ele>
        <time>2012-08-12T10:47:05Z</time>
      </trkpt>
      <trkpt lat="51.13036" lon="4.31604">
        <ele>9.861</ele>
        <time>2012-08-12T10:47:04Z</time>
      </trkpt>
      <trkpt lat="51.13" lon="4.31587">
        <ele>10.278</ele>
        <time>2012-08-12T10:46:55Z</time>
      </trkpt>
      <trkpt lat="51.12969" lon="4.31563">
        <ele>12.238</ele>
        <time>2012-08-12T10:46:39Z</time>
      </trkpt>
      <trkpt lat="51.12965" lon="4.31558">
        <ele>11.766</ele>
        <time>2012-08-12T10:46:34Z</time>
      </trkpt>
      <trkpt lat="51.12959" lon="4.31549">
        <ele>12.698</ele>
        <time>2012-08-12T10:46:26Z</time>
      </trkpt>
      <trkpt lat="51.12955" lon="4.31552">
        <ele>13.11</ele>
        <time>2012-08-12T10:46:18Z</time>
      </trkpt>
      <trkpt lat="51.12957" lon="4.3155">
        <ele>13.107</ele>
        <time>2012-08-12T10:46:03Z</time>
      </trkpt>
      <trkpt lat="51.12958" lon="4.31548">
        <ele>12.615</ele>
        <time>2012-08-12T10:46:01Z</time>
      </trkpt>
      <trkpt lat="51.12959" lon="4.31547">
        <ele>11.741</ele>
        <time>2012-08-12T10:46:00Z</time>
      </trkpt>
      <trkpt lat="51.12956" lon="4.31542">
        <ele>11.771</ele>
        <time>2012-08-12T10:45:50Z</time>
      </trkpt>
      <trkpt lat="51.12956" lon="4.3154">
        <ele>12.275</ele>
        <time>2012-08-12T10:45:49Z</time>
      </trkpt>
      <trkpt lat="51.12955" lon="4.31536">
        <ele>11.762</ele>
        <time>2012-08-12T10:45:46Z</time>
      </trkpt>
      <trkpt lat="51.12948" lon="4.31499">
        <ele>11.289</ele>
        <time>2012-08-12T10:45:34Z</time>
      </trkpt>
      <trkpt lat="51.12938" lon="4.31468">
        <ele>12.639</ele>
        <time>2012-08-12T10:45:24Z</time>
      </trkpt>
      <trkpt lat="51.12927" lon="4.31406">
        <ele>11.727</ele>
        <time>2012-08-12T10:45:11Z</time>
      </trkpt>
      <trkpt lat="51.12926" lon="4.31401">
        <ele>18.429</ele>
        <time>2012-08-12T10:45:10Z</time>
      </trkpt>
      <trkpt lat="51.12925" lon="4.31396">
        <ele>5.991</ele>
        <time>2012-08-12T10:45:09Z</time>
      </trkpt>
      <trkpt lat="51.12916" lon="4.3135">
        <ele>12.207</ele>
        <time>2012-08-12T10:45:01Z</time>
      </trkpt>
      <trkpt lat="51.12916" lon="4.31344">
        <ele>12.217</ele>
        <time>2012-08-12T10:45:00Z</time>
      </trkpt>
      <trkpt lat="51.12918" lon="4.31319">
        <ele>11.789</ele>
        <time>2012-08-12T10:44:56Z</time>
      </trkpt>
      <trkpt lat="51.12927" lon="4.31275">
        <ele>12.285</ele>
        <time>2012-08-12T10:44:49Z</time>
      </trkpt>
      <trkpt lat="51.12934" lon="4.31196">
        <ele>12.236</ele>
        <time>2012-08-12T10:44:36Z</time>
      </trkpt>
      <trkpt lat="51.12901" lon="4.31115">
        <ele>11.793</ele>
        <time>2012-08-12T10:44:20Z</time>
      </trkpt>
      <trkpt lat="51.129" lon="4.31041">
        <ele>12.27</ele>
        <time>2012-08-12T10:44:07Z</time>
      </trkpt>
      <trkpt lat="51.12907" lon="4.30956">
        <ele>12.27</ele>
        <time>2012-08-12T10:43:53Z</time>
      </trkpt>
      <trkpt lat="51.12898" lon="4.30898">
        <ele>13.158</ele>
        <time>2012-08-12T10:43:40Z</time>
      </trkpt>
      <trkpt lat="51.12897" lon="4.30893">
        <ele>18.42</ele>
        <time>2012-08-12T10:43:39Z</time>
      </trkpt>
      <trkpt lat="51.12896" lon="4.30888">
        <ele>12.222</ele>
        <time>2012-08-12T10:43:38Z</time>
      </trkpt>
      <trkpt lat="51.12895" lon="4.30882">
        <ele>9.307</ele>
        <time>2012-08-12T10:43:37Z</time>
      </trkpt>
      <trkpt lat="51.12894" lon="4.3087">
        <ele>13.127</ele>
        <time>2012-08-12T10:43:35Z</time>
      </trkpt>
      <trkpt lat="51.12894" lon="4.30864">
        <ele>13.607</ele>
        <time>2012-08-12T10:43:34Z</time>
      </trkpt>
      <trkpt lat="51.12864" lon="4.30787">
        <ele>13.699</ele>
        <time>2012-08-12T10:43:19Z</time>
      </trkpt>
      <trkpt lat="51.12814" lon="4.30723">
        <ele>12.666</ele>
        <time>2012-08-12T10:43:02Z</time>
      </trkpt>
      <trkpt lat="51.12757" lon="4.30682">
        <ele>13.673</ele>
        <time>2012-08-12T10:42:46Z</time>
      </trkpt>
      <trkpt lat="51.12737" lon="4.30649">
        <ele>13.19</ele>
        <time>2012-08-12T10:42:38Z</time>
      </trkpt>
      <trkpt lat="51.12761" lon="4.30562">
        <ele>13.69</ele>
        <time>2012-08-12T10:42:22Z</time>
      </trkpt>
      <trkpt lat="51.12784" lon="4.30486">
        <ele>13.638</ele>
        <time>2012-08-12T10:42:08Z</time>
      </trkpt>
      <trkpt lat="51.12791" lon="4.30408">
        <ele>14.12</ele>
        <time>2012-08-12T10:41:54Z</time>
      </trkpt>
      <trkpt lat="51.12823" lon="4.30317">
        <ele>13.612</ele>
        <time>2012-08-12T10:41:37Z</time>
      </trkpt>
      <trkpt lat="51.12797" lon="4.30256">
        <ele>14.107</ele>
        <time>2012-08-12T10:41:24Z</time>
      </trkpt>
      <trkpt lat="51.1274" lon="4.30198">
        <ele>13.624</ele>
        <time>2012-08-12T10:41:08Z</time>
      </trkpt>
      <trkpt lat="51.12711" lon="4.30162">
        <ele>14.631</ele>
        <time>2012-08-12T10:40:58Z</time>
      </trkpt>
      <trkpt lat="51.12675" lon="4.30115">
        <ele>14.196</ele>
        <time>2012-08-12T10:40:46Z</time>
      </trkpt>
      <trkpt lat="51.12644" lon="4.30064">
        <ele>13.166</ele>
        <time>2012-08-12T10:40:36Z</time>
      </trkpt>
      <trkpt lat="51.12641" lon="4.30057">
        <ele>13.683</ele>
        <time>2012-08-12T10:40:35Z</time>
      </trkpt>
      <trkpt lat="51.1264" lon="4.3005">
        <ele>13.18</ele>
        <time>2012-08-12T10:40:34Z</time>
      </trkpt>
      <trkpt lat="51.12638" lon="4.29999">
        <ele>13.63</ele>
        <time>2012-08-12T10:40:27Z</time>
      </trkpt>
      <trkpt lat="51.12647" lon="4.2989">
        <ele>13.698</ele>
        <time>2012-08-12T10:40:14Z</time>
      </trkpt>
      <trkpt lat="51.12668" lon="4.29754">
        <ele>13.65</ele>
        <time>2012-08-12T10:39:56Z</time>
      </trkpt>
      <trkpt lat="51.12673" lon="4.29717">
        <ele>13.142</ele>
        <time>2012-08-12T10:39:49Z</time>
      </trkpt>
      <trkpt lat="51.12677" lon="4.2969">
        <ele>13.607</ele>
        <time>2012-08-12T10:39:30Z</time>
      </trkpt>
      <trkpt lat="51.12679" lon="4.29689">
        <ele>13.12</ele>
        <time>2012-08-12T10:38:54Z</time>
      </trkpt>
      <trkpt lat="51.12677" lon="4.29689">
        <ele>13.673</ele>
        <time>2012-08-12T10:38:18Z</time>
      </trkpt>
      <trkpt lat="51.12678" lon="4.29675">
        <ele>13.692</ele>
        <time>2012-08-12T10:38:04Z</time>
      </trkpt>
      <trkpt lat="51.12686" lon="4.29611">
        <ele>13.618</ele>
        <time>2012-08-12T10:37:49Z</time>
      </trkpt>
      <trkpt lat="51.12706" lon="4.29453">
        <ele>13.185</ele>
        <time>2012-08-12T10:37:28Z</time>
      </trkpt>
      <trkpt lat="51.12694" lon="4.29419">
        <ele>13.672</ele>
        <time>2012-08-12T10:37:22Z</time>
      </trkpt>
      <trkpt lat="51.12686" lon="4.29416">
        <ele>13.112</ele>
        <time>2012-08-12T10:37:20Z</time>
      </trkpt>
      <trkpt lat="51.12668" lon="4.29364">
        <ele>11.72</ele>
        <time>2012-08-12T10:37:10Z</time>
      </trkpt>
      <trkpt lat="51.12662" lon="4.29345">
        <ele>12.622</ele>
        <time>2012-08-12T10:37:06Z</time>
      </trkpt>
      <trkpt lat="51.12641" lon="4.29349">
        <ele>12.684</ele>
        <time>2012-08-12T10:37:01Z</time>
      </trkpt>
      <trkpt lat="51.12631" lon="4.29358">
        <ele>13.107</ele>
        <time>2012-08-12T10:36:58Z</time>
      </trkpt>
      <trkpt lat="51.12611" lon="4.29367">
        <ele>12.217</ele>
        <time>2012-08-12T10:36:53Z</time>
      </trkpt>
      <trkpt lat="51.1257" lon="4.29366">
        <ele>12.698</ele>
        <time>2012-08-12T10:36:44Z</time>
      </trkpt>
      <trkpt lat="51.1255" lon="4.2936">
        <ele>13.118</ele>
        <time>2012-08-12T10:36:40Z</time>
      </trkpt>
      <trkpt lat="51.1254" lon="4.29362">
        <ele>13.145</ele>
        <time>2012-08-12T10:36:38Z</time>
      </trkpt>
      <trkpt lat="51.12527" lon="4.29356">
        <ele>13.182</ele>
        <time>2012-08-12T10:36:34Z</time>
      </trkpt>
      <trkpt lat="51.12523" lon="4.29335">
        <ele>13.199</ele>
        <time>2012-08-12T10:36:31Z</time>
      </trkpt>
      <trkpt lat="51.12522" lon="4.29315">
        <ele>13.119</ele>
        <time>2012-08-12T10:36:28Z</time>
      </trkpt>
      <trkpt lat="51.12522" lon="4.29309">
        <ele>13.147</ele>
        <time>2012-08-12T10:36:27Z</time>
      </trkpt>
      <trkpt lat="51.12533" lon="4.29248">
        <ele>12.299</ele>
        <time>2012-08-12T10:36:18Z</time>
      </trkpt>
      <trkpt lat="51.12533" lon="4.2924">
        <ele>12.271</ele>
        <time>2012-08-12T10:36:17Z</time>
      </trkpt>
      <trkpt lat="51.12533" lon="4.29233">
        <ele>12.207</ele>
        <time>2012-08-12T10:36:16Z</time>
      </trkpt>
      <trkpt lat="51.12531" lon="4.29226">
        <ele>12.617</ele>
        <time>2012-08-12T10:36:15Z</time>
      </trkpt>
      <trkpt lat="51.12496" lon="4.29154">
        <ele>13.161</ele>
        <time>2012-08-12T10:36:01Z</time>
      </trkpt>
      <trkpt lat="51.12494" lon="4.29148">
        <ele>12.681</ele>
        <time>2012-08-12T10:36:00Z</time>
      </trkpt>
      <trkpt lat="51.12491" lon="4.29143">
        <ele>12.622</ele>
        <time>2012-08-12T10:35:59Z</time>
      </trkpt>
      <trkpt lat="51.12489" lon="4.29137">
        <ele>13.119</ele>
        <time>2012-08-12T10:35:58Z</time>
      </trkpt>
      <trkpt lat="51.12488" lon="4.29131">
        <ele>13.116</ele>
        <time>2012-08-12T10:35:57Z</time>
      </trkpt>
      <trkpt lat="51.12487" lon="4.29125">
        <ele>12.686</ele>
        <time>2012-08-12T10:35:56Z</time>
      </trkpt>
      <trkpt lat="51.1249" lon="4.29057">
        <ele>12.634</ele>
        <time>2012-08-12T10:35:44Z</time>
      </trkpt>
      <trkpt lat="51.1249" lon="4.2905">
        <ele>12.646</ele>
        <time>2012-08-12T10:35:41Z</time>
      </trkpt>
      <trkpt lat="51.12492" lon="4.2904">
        <ele>12.698</ele>
        <time>2012-08-12T10:35:29Z</time>
      </trkpt>
      <trkpt lat="51.12491" lon="4.29034">
        <ele>13.107</ele>
        <time>2012-08-12T10:35:09Z</time>
      </trkpt>
      <trkpt lat="51.12491" lon="4.29022">
        <ele>13.608</ele>
        <time>2012-08-12T10:34:55Z</time>
      </trkpt>
      <trkpt lat="51.12481" lon="4.29021">
        <ele>13.153</ele>
        <time>2012-08-12T10:34:39Z</time>
      </trkpt>
      <trkpt lat="51.12466" lon="4.29018">
        <ele>12.252</ele>
        <time>2012-08-12T10:34:24Z</time>
      </trkpt>
      <trkpt lat="51.12453" lon="4.29009">
        <ele>11.221</ele>
        <time>2012-08-12T10:34:11Z</time>
      </trkpt>
      <trkpt lat="51.12452" lon="4.29005">
        <ele>11.248</ele>
        <time>2012-08-12T10:34:03Z</time>
      </trkpt>
      <trkpt lat="51.12451" lon="4.29005">
        <ele>10.785</ele>
        <time>2012-08-12T10:33:41Z</time>
      </trkpt>
      <trkpt lat="51.12445" lon="4.28969">
        <ele>11.235</ele>
        <time>2012-08-12T10:33:12Z</time>
      </trkpt>
      <trkpt lat="51.12402" lon="4.28895">
        <ele>11.213</ele>
        <time>2012-08-12T10:32:39Z</time>
      </trkpt>
      <trkpt lat="51.12349" lon="4.28838">
        <ele>11.785</ele>
        <time>2012-08-12T10:32:09Z</time>
      </trkpt>
      <trkpt lat="51.12294" lon="4.28783">
        <ele>11.277</ele>
        <time>2012-08-12T10:31:41Z</time>
      </trkpt>
      <trkpt lat="51.12269" lon="4.28734">
        <ele>11.207</ele>
        <time>2012-08-12T10:31:19Z</time>
      </trkpt>
      <trkpt lat="51.12268" lon="4.2873">
        <ele>10.721</ele>
        <time>2012-08-12T10:31:10Z</time>
      </trkpt>
      <trkpt lat="51.12267" lon="4.28745">
        <ele>11.229</ele>
        <time>2012-08-12T10:30:43Z</time>
      </trkpt>
      <trkpt lat="51.12268" lon="4.28745">
        <ele>10.747</ele>
        <time>2012-08-12T10:30:07Z</time>
      </trkpt>
      <trkpt lat="51.12267" lon="4.28746">
        <ele>11.215</ele>
        <time>2012-08-12T10:29:44Z</time>
      </trkpt>
      <trkpt lat="51.12263" lon="4.28751">
        <ele>11.712</ele>
        <time>2012-08-12T10:29:33Z</time>
      </trkpt>
      <trkpt lat="51.12262" lon="4.28751">
        <ele>11.299</ele>
        <time>2012-08-12T10:29:32Z</time>
      </trkpt>
      <trkpt lat="51.12229" lon="4.28755">
        <ele>13.149</ele>
        <time>2012-08-12T10:29:20Z</time>
      </trkpt>
      <trkpt lat="51.12228" lon="4.28758">
        <ele>13.177</ele>
        <time>2012-08-12T10:29:18Z</time>
      </trkpt>
      <trkpt lat="51.12228" lon="4.28785">
        <ele>13.169</ele>
        <time>2012-08-12T10:29:12Z</time>
      </trkpt>
      <trkpt lat="51.1221" lon="4.28932">
        <ele>13.681</ele>
        <time>2012-08-12T10:28:55Z</time>
      </trkpt>
      <trkpt lat="51.12184" lon="4.29083">
        <ele>13.107</ele>
        <time>2012-08-12T10:28:39Z</time>
      </trkpt>
      <trkpt lat="51.12194" lon="4.29255">
        <ele>13.126</ele>
        <time>2012-08-12T10:28:22Z</time>
      </trkpt>
      <trkpt lat="51.12214" lon="4.29386">
        <ele>14.16</ele>
        <time>2012-08-12T10:28:07Z</time>
      </trkpt>
      <trkpt lat="51.12214" lon="4.29394">
        <ele>14.186</ele>
        <time>2012-08-12T10:28:06Z</time>
      </trkpt>
      <trkpt lat="51.12213" lon="4.29429">
        <ele>13.689</ele>
        <time>2012-08-12T10:28:01Z</time>
      </trkpt>
      <trkpt lat="51.12203" lon="4.29538">
        <ele>14.156</ele>
        <time>2012-08-12T10:27:48Z</time>
      </trkpt>
      <trkpt lat="51.12202" lon="4.29547">
        <ele>13.663</ele>
        <time>2012-08-12T10:27:47Z</time>
      </trkpt>
      <trkpt lat="51.12201" lon="4.29556">
        <ele>13.643</ele>
        <time>2012-08-12T10:27:46Z</time>
      </trkpt>
      <trkpt lat="51.12198" lon="4.29627">
        <ele>13.621</ele>
        <time>2012-08-12T10:27:39Z</time>
      </trkpt>
      <trkpt lat="51.12193" lon="4.29811">
        <ele>13.693</ele>
        <time>2012-08-12T10:27:21Z</time>
      </trkpt>
      <trkpt lat="51.12186" lon="4.30043">
        <ele>13.185</ele>
        <time>2012-08-12T10:26:57Z</time>
      </trkpt>
      <trkpt lat="51.12181" lon="4.30194">
        <ele>13.607</ele>
        <time>2012-08-12T10:26:40Z</time>
      </trkpt>
      <trkpt lat="51.1218" lon="4.30202">
        <ele>14.111</ele>
        <time>2012-08-12T10:26:39Z</time>
      </trkpt>
      <trkpt lat="51.12179" lon="4.3021">
        <ele>14.147</ele>
        <time>2012-08-12T10:26:38Z</time>
      </trkpt>
      <trkpt lat="51.12177" lon="4.30217">
        <ele>14.126</ele>
        <time>2012-08-12T10:26:37Z</time>
      </trkpt>
      <trkpt lat="51.12165" lon="4.30239">
        <ele>14.696</ele>
        <time>2012-08-12T10:26:33Z</time>
      </trkpt>
      <trkpt lat="51.1216" lon="4.30241">
        <ele>14.653</ele>
        <time>2012-08-12T10:26:32Z</time>
      </trkpt>
      <trkpt lat="51.12156" lon="4.30243">
        <ele>14.63</ele>
        <time>2012-08-12T10:26:31Z</time>
      </trkpt>
      <trkpt lat="51.12151" lon="4.30244">
        <ele>14.19</ele>
        <time>2012-08-12T10:26:30Z</time>
      </trkpt>
      <trkpt lat="51.12137" lon="4.30243">
        <ele>14.138</ele>
        <time>2012-08-12T10:26:27Z</time>
      </trkpt>
      <trkpt lat="51.12128" lon="4.3024">
        <ele>14.12</ele>
        <time>2012-08-12T10:26:25Z</time>
      </trkpt>
      <trkpt lat="51.12038" lon="4.30202">
        <ele>14.652</ele>
        <time>2012-08-12T10:26:06Z</time>
      </trkpt>
      <trkpt lat="51.1196" lon="4.30169">
        <ele>14.607</ele>
        <time>2012-08-12T10:25:50Z</time>
      </trkpt>
      <trkpt lat="51.11945" lon="4.30166">
        <ele>14.624</ele>
        <time>2012-08-12T10:25:47Z</time>
      </trkpt>
      <trkpt lat="51.11906" lon="4.30167">
        <ele>14.631</ele>
        <time>2012-08-12T10:25:39Z</time>
      </trkpt>
      <trkpt lat="51.11901" lon="4.30168">
        <ele>14.696</ele>
        <time>2012-08-12T10:25:38Z</time>
      </trkpt>
      <trkpt lat="51.11897" lon="4.30169">
        <ele>14.648</ele>
        <time>2012-08-12T10:25:37Z</time>
      </trkpt>
      <trkpt lat="51.11885" lon="4.30177">
        <ele>15.075</ele>
        <time>2012-08-12T10:25:34Z</time>
      </trkpt>
      <trkpt lat="51.11846" lon="4.30211">
        <ele>14.632</ele>
        <time>2012-08-12T10:25:22Z</time>
      </trkpt>
      <trkpt lat="51.11843" lon="4.30214">
        <ele>14.632</ele>
        <time>2012-08-12T10:25:21Z</time>
      </trkpt>
      <trkpt lat="51.11818" lon="4.30205">
        <ele>14.66</ele>
        <time>2012-08-12T10:25:14Z</time>
      </trkpt>
      <trkpt lat="51.11814" lon="4.30202">
        <ele>14.672</ele>
        <time>2012-08-12T10:25:13Z</time>
      </trkpt>
      <trkpt lat="51.11811" lon="4.302">
        <ele>15.044</ele>
        <time>2012-08-12T10:25:12Z</time>
      </trkpt>
      <trkpt lat="51.11807" lon="4.30196">
        <ele>15.007</ele>
        <time>2012-08-12T10:25:11Z</time>
      </trkpt>
      <trkpt lat="51.11804" lon="4.30192">
        <ele>15.013</ele>
        <time>2012-08-12T10:25:10Z</time>
      </trkpt>
      <trkpt lat="51.11801" lon="4.30188">
        <ele>14.676</ele>
        <time>2012-08-12T10:25:09Z</time>
      </trkpt>
      <trkpt lat="51.11779" lon="4.3014">
        <ele>14.616</ele>
        <time>2012-08-12T10:25:00Z</time>
      </trkpt>
      <trkpt lat="51.11754" lon="4.30104">
        <ele>14.674</ele>
        <time>2012-08-12T10:24:50Z</time>
      </trkpt>
      <trkpt lat="51.1175" lon="4.30103">
        <ele>14.151</ele>
        <time>2012-08-12T10:24:49Z</time>
      </trkpt>
      <trkpt lat="51.11672" lon="4.30095">
        <ele>14.668</ele>
        <time>2012-08-12T10:24:31Z</time>
      </trkpt>
      <trkpt lat="51.11668" lon="4.30095">
        <ele>15.058</ele>
        <time>2012-08-12T10:24:30Z</time>
      </trkpt>
      <trkpt lat="51.11643" lon="4.30093">
        <ele>14.666</ele>
        <time>2012-08-12T10:24:24Z</time>
      </trkpt>
      <trkpt lat="51.1164" lon="4.30092">
        <ele>14.698</ele>
        <time>2012-08-12T10:24:23Z</time>
      </trkpt>
      <trkpt lat="51.11636" lon="4.30092">
        <ele>14.62</ele>
        <time>2012-08-12T10:24:22Z</time>
      </trkpt>
      <trkpt lat="51.11632" lon="4.30092">
        <ele>14.607</ele>
        <time>2012-08-12T10:24:21Z</time>
      </trkpt>
      <trkpt lat="51.11629" lon="4.30093">
        <ele>15.019</ele>
        <time>2012-08-12T10:24:20Z</time>
      </trkpt>
      <trkpt lat="51.11623" lon="4.30122">
        <ele>14.19</ele>
        <time>2012-08-12T10:24:13Z</time>
      </trkpt>
      <trkpt lat="51.11623" lon="4.30125">
        <ele>14.676</ele>
        <time>2012-08-12T10:24:12Z</time>
      </trkpt>
      <trkpt lat="51.11622" lon="4.30129">
        <ele>14.659</ele>
        <time>2012-08-12T10:24:11Z</time>
      </trkpt>
      <trkpt lat="51.11622" lon="4.30131">
        <ele>14.116</ele>
        <time>2012-08-12T10:24:10Z</time>
      </trkpt>
      <trkpt lat="51.11621" lon="4.30133">
        <ele>14.153</ele>
        <time>2012-08-12T10:24:09Z</time>
      </trkpt>
      <trkpt lat="51.11619" lon="4.30133">
        <ele>14.163</ele>
        <time>2012-08-12T10:24:08Z</time>
      </trkpt>
      <trkpt lat="51.11618" lon="4.30132">
        <ele>14.191</ele>
        <time>2012-08-12T10:24:06Z</time>
      </trkpt>
      <trkpt lat="51.11618" lon="4.3013">
        <ele>14.173</ele>
        <time>2012-08-12T10:24:05Z</time>
      </trkpt>
      <trkpt lat="51.11622" lon="4.30115">
        <ele>14.685</ele>
        <time>2012-08-12T10:24:00Z</time>
      </trkpt>
      <trkpt lat="51.11623" lon="4.30111">
        <ele>14.607</ele>
        <time>2012-08-12T10:23:59Z</time>
      </trkpt>
      <trkpt lat="51.11623" lon="4.30108">
        <ele>14.611</ele>
        <time>2012-08-12T10:23:58Z</time>
      </trkpt>
      <trkpt lat="51.11624" lon="4.30104">
        <ele>14.683</ele>
        <time>2012-08-12T10:23:57Z</time>
      </trkpt>
      <trkpt lat="51.11624" lon="4.301">
        <ele>14.623</ele>
        <time>2012-08-12T10:23:56Z</time>
      </trkpt>
      <trkpt lat="51.11625" lon="4.30096">
        <ele>14.698</ele>
        <time>2012-08-12T10:23:55Z</time>
      </trkpt>
      <trkpt lat="51.11626" lon="4.30093">
        <ele>14.625</ele>
        <time>2012-08-12T10:23:54Z</time>
      </trkpt>
      <trkpt lat="51.11628" lon="4.3009">
        <ele>14.672</ele>
        <time>2012-08-12T10:23:53Z</time>
      </trkpt>
      <trkpt lat="51.11672" lon="4.30094">
        <ele>14.162</ele>
        <time>2012-08-12T10:23:38Z</time>
      </trkpt>
      <trkpt lat="51.11675" lon="4.30095">
        <ele>14.13</ele>
        <time>2012-08-12T10:23:37Z</time>
      </trkpt>
      <trkpt lat="51.11678" lon="4.30095">
        <ele>14.192</ele>
        <time>2012-08-12T10:23:36Z</time>
      </trkpt>
      <trkpt lat="51.11681" lon="4.30095">
        <ele>14.134</ele>
        <time>2012-08-12T10:23:35Z</time>
      </trkpt>
      <trkpt lat="51.11684" lon="4.30094">
        <ele>14.107</ele>
        <time>2012-08-12T10:23:34Z</time>
      </trkpt>
      <trkpt lat="51.11687" lon="4.30093">
        <ele>14.605</ele>
        <time>2012-08-12T10:23:33Z</time>
      </trkpt>
      <trkpt lat="51.11689" lon="4.30092">
        <ele>14.132</ele>
        <time>2012-08-12T10:23:32Z</time>
      </trkpt>
      <trkpt lat="51.11692" lon="4.30091">
        <ele>14.112</ele>
        <time>2012-08-12T10:23:31Z</time>
      </trkpt>
      <trkpt lat="51.11694" lon="4.30089">
        <ele>14.666</ele>
        <time>2012-08-12T10:23:30Z</time>
      </trkpt>
      <trkpt lat="51.11696" lon="4.3009">
        <ele>14.153</ele>
        <time>2012-08-12T10:23:29Z</time>
      </trkpt>
      <trkpt lat="51.11696" lon="4.30098">
        <ele>14.68</ele>
        <time>2012-08-12T10:23:26Z</time>
      </trkpt>
      <trkpt lat="51.11693" lon="4.30098">
        <ele>14.69</ele>
        <time>2012-08-12T10:23:25Z</time>
      </trkpt>
      <trkpt lat="51.11689" lon="4.30097">
        <ele>14.658</ele>
        <time>2012-08-12T10:23:24Z</time>
      </trkpt>
      <trkpt lat="51.11686" lon="4.30095">
        <ele>14.65</ele>
        <time>2012-08-12T10:23:23Z</time>
      </trkpt>
      <trkpt lat="51.11682" lon="4.3009">
        <ele>14.672</ele>
        <time>2012-08-12T10:23:22Z</time>
      </trkpt>
      <trkpt lat="51.11662" lon="4.30057">
        <ele>15.007</ele>
        <time>2012-08-12T10:23:16Z</time>
      </trkpt>
      <trkpt lat="51.11652" lon="4.3004">
        <ele>14.623</ele>
        <time>2012-08-12T10:23:13Z</time>
      </trkpt>
      <trkpt lat="51.11649" lon="4.30034">
        <ele>14.649</ele>
        <time>2012-08-12T10:23:12Z</time>
      </trkpt>
      <trkpt lat="51.11646" lon="4.30028">
        <ele>15.095</ele>
        <time>2012-08-12T10:23:11Z</time>
      </trkpt>
      <trkpt lat="51.11642" lon="4.30022">
        <ele>14.646</ele>
        <time>2012-08-12T10:23:10Z</time>
      </trkpt>
      <trkpt lat="51.11639" lon="4.30018">
        <ele>14.643</ele>
        <time>2012-08-12T10:23:09Z</time>
      </trkpt>
      <trkpt lat="51.11634" lon="4.30014">
        <ele>14.12</ele>
        <time>2012-08-12T10:23:08Z</time>
      </trkpt>
      <trkpt lat="51.11563" lon="4.29983">
        <ele>13.13</ele>
        <time>2012-08-12T10:22:54Z</time>
      </trkpt>
      <trkpt lat="51.11482" lon="4.29941">
        <ele>12.238</ele>
        <time>2012-08-12T10:22:38Z</time>
      </trkpt>
      <trkpt lat="51.11397" lon="4.29897">
        <ele>12.24</ele>
        <time>2012-08-12T10:22:21Z</time>
      </trkpt>
      <trkpt lat="51.11305" lon="4.29848">
        <ele>12.212</ele>
        <time>2012-08-12T10:22:01Z</time>
      </trkpt>
      <trkpt lat="51.11223" lon="4.29806">
        <ele>12.607</ele>
        <time>2012-08-12T10:21:43Z</time>
      </trkpt>
      <trkpt lat="51.11205" lon="4.29795">
        <ele>12.624</ele>
        <time>2012-08-12T10:21:39Z</time>
      </trkpt>
      <trkpt lat="51.112" lon="4.29792">
        <ele>12.631</ele>
        <time>2012-08-12T10:21:38Z</time>
      </trkpt>
      <trkpt lat="51.11196" lon="4.2979">
        <ele>12.696</ele>
        <time>2012-08-12T10:21:37Z</time>
      </trkpt>
      <trkpt lat="51.11191" lon="4.29789">
        <ele>12.684</ele>
        <time>2012-08-12T10:21:36Z</time>
      </trkpt>
      <trkpt lat="51.11186" lon="4.2979">
        <ele>11.771</ele>
        <time>2012-08-12T10:21:35Z</time>
      </trkpt>
      <trkpt lat="51.11181" lon="4.29792">
        <ele>12.248</ele>
        <time>2012-08-12T10:21:34Z</time>
      </trkpt>
      <trkpt lat="51.11177" lon="4.29796">
        <ele>12.268</ele>
        <time>2012-08-12T10:21:33Z</time>
      </trkpt>
      <trkpt lat="51.11171" lon="4.29806">
        <ele>12.296</ele>
        <time>2012-08-12T10:21:31Z</time>
      </trkpt>
      <trkpt lat="51.11155" lon="4.29823">
        <ele>12.278</ele>
        <time>2012-08-12T10:21:27Z</time>
      </trkpt>
      <trkpt lat="51.11101" lon="4.29879">
        <ele>12.29</ele>
        <time>2012-08-12T10:21:12Z</time>
      </trkpt>
      <trkpt lat="51.1108" lon="4.29901">
        <ele>12.207</ele>
        <time>2012-08-12T10:21:06Z</time>
      </trkpt>
      <trkpt lat="51.11023" lon="4.29958">
        <ele>12.22</ele>
        <time>2012-08-12T10:20:48Z</time>
      </trkpt>
      <trkpt lat="51.1102" lon="4.29962">
        <ele>11.728</ele>
        <time>2012-08-12T10:20:47Z</time>
      </trkpt>
      <trkpt lat="51.11014" lon="4.29963">
        <ele>11.775</ele>
        <time>2012-08-12T10:20:44Z</time>
      </trkpt>
      <trkpt lat="51.11014" lon="4.29961">
        <ele>12.275</ele>
        <time>2012-08-12T10:20:43Z</time>
      </trkpt>
      <trkpt lat="51.11036" lon="4.29939">
        <ele>11.772</ele>
        <time>2012-08-12T10:20:31Z</time>
      </trkpt>
      <trkpt lat="51.11038" lon="4.29936">
        <ele>11.269</ele>
        <time>2012-08-12T10:20:30Z</time>
      </trkpt>
      <trkpt lat="51.1104" lon="4.29934">
        <ele>11.739</ele>
        <time>2012-08-12T10:20:29Z</time>
      </trkpt>
      <trkpt lat="51.11043" lon="4.29932">
        <ele>11.247</ele>
        <time>2012-08-12T10:20:28Z</time>
      </trkpt>
      <trkpt lat="51.11049" lon="4.29935">
        <ele>11.239</ele>
        <time>2012-08-12T10:20:25Z</time>
      </trkpt>
      <trkpt lat="51.11048" lon="4.29938">
        <ele>11.711</ele>
        <time>2012-08-12T10:20:24Z</time>
      </trkpt>
      <trkpt lat="51.11046" lon="4.29941">
        <ele>11.707</ele>
        <time>2012-08-12T10:20:23Z</time>
      </trkpt>
      <trkpt lat="51.11043" lon="4.29943">
        <ele>11.726</ele>
        <time>2012-08-12T10:20:22Z</time>
      </trkpt>
      <trkpt lat="51.11039" lon="4.29944">
        <ele>11.224</ele>
        <time>2012-08-12T10:20:21Z</time>
      </trkpt>
      <trkpt lat="51.11035" lon="4.29945">
        <ele>11.788</ele>
        <time>2012-08-12T10:20:20Z</time>
      </trkpt>
      <trkpt lat="51.10989" lon="4.2999">
        <ele>11.792</ele>
        <time>2012-08-12T10:20:11Z</time>
      </trkpt>
      <trkpt lat="51.10919" lon="4.30086">
        <ele>12.279</ele>
        <time>2012-08-12T10:19:56Z</time>
      </trkpt>
      <trkpt lat="51.10837" lon="4.30172">
        <ele>12.296</ele>
        <time>2012-08-12T10:19:41Z</time>
      </trkpt>
      <trkpt lat="51.10708" lon="4.30303">
        <ele>11.786</ele>
        <time>2012-08-12T10:19:19Z</time>
      </trkpt>
      <trkpt lat="51.10572" lon="4.30441">
        <ele>12.224</ele>
        <time>2012-08-12T10:18:58Z</time>
      </trkpt>
      <trkpt lat="51.10452" lon="4.30565">
        <ele>12.216</ele>
        <time>2012-08-12T10:18:40Z</time>
      </trkpt>
      <trkpt lat="51.10314" lon="4.30724">
        <ele>11.798</ele>
        <time>2012-08-12T10:18:18Z</time>
      </trkpt>
      <trkpt lat="51.10199" lon="4.30855">
        <ele>11.707</ele>
        <time>2012-08-12T10:17:59Z</time>
      </trkpt>
      <trkpt lat="51.10076" lon="4.30995">
        <ele>11.711</ele>
        <time>2012-08-12T10:17:40Z</time>
      </trkpt>
      <trkpt lat="51.10069" lon="4.31003">
        <ele>12.256</ele>
        <time>2012-08-12T10:17:39Z</time>
      </trkpt>
      <trkpt lat="51.10063" lon="4.31012">
        <ele>11.754</ele>
        <time>2012-08-12T10:17:38Z</time>
      </trkpt>
      <trkpt lat="51.09933" lon="4.31259">
        <ele>11.781</ele>
        <time>2012-08-12T10:17:14Z</time>
      </trkpt>
      <trkpt lat="51.0981" lon="4.31487">
        <ele>11.768</ele>
        <time>2012-08-12T10:16:51Z</time>
      </trkpt>
      <trkpt lat="51.09805" lon="4.31497">
        <ele>11.235</ele>
        <time>2012-08-12T10:16:50Z</time>
      </trkpt>
      <trkpt lat="51.09771" lon="4.31596">
        <ele>11.285</ele>
        <time>2012-08-12T10:16:41Z</time>
      </trkpt>
      <trkpt lat="51.09683" lon="4.31866">
        <ele>11.223</ele>
        <time>2012-08-12T10:16:17Z</time>
      </trkpt>
      <trkpt lat="51.09678" lon="4.31876">
        <ele>11.755</ele>
        <time>2012-08-12T10:16:16Z</time>
      </trkpt>
      <trkpt lat="51.09673" lon="4.31886">
        <ele>11.777</ele>
        <time>2012-08-12T10:16:15Z</time>
      </trkpt>
      <trkpt lat="51.09662" lon="4.31902">
        <ele>11.707</ele>
        <time>2012-08-12T10:16:13Z</time>
      </trkpt>
      <trkpt lat="51.09657" lon="4.31911">
        <ele>12.214</ele>
        <time>2012-08-12T10:16:12Z</time>
      </trkpt>
      <trkpt lat="51.0962" lon="4.32024">
        <ele>11.722</ele>
        <time>2012-08-12T10:16:01Z</time>
      </trkpt>
      <trkpt lat="51.0958" lon="4.32226">
        <ele>11.742</ele>
        <time>2012-08-12T10:15:44Z</time>
      </trkpt>
      <trkpt lat="51.09536" lon="4.32495">
        <ele>11.236</ele>
        <time>2012-08-12T10:15:24Z</time>
      </trkpt>
      <trkpt lat="51.09496" lon="4.32715">
        <ele>11.253</ele>
        <time>2012-08-12T10:15:07Z</time>
      </trkpt>
      <trkpt lat="51.09444" lon="4.32965">
        <ele>11.72</ele>
        <time>2012-08-12T10:14:47Z</time>
      </trkpt>
      <trkpt lat="51.09409" lon="4.33121">
        <ele>11.29</ele>
        <time>2012-08-12T10:14:33Z</time>
      </trkpt>
      <trkpt lat="51.09406" lon="4.33131">
        <ele>11.758</ele>
        <time>2012-08-12T10:14:32Z</time>
      </trkpt>
      <trkpt lat="51.09379" lon="4.33195">
        <ele>11.25</ele>
        <time>2012-08-12T10:14:25Z</time>
      </trkpt>
      <trkpt lat="51.09375" lon="4.33203">
        <ele>11.272</ele>
        <time>2012-08-12T10:14:24Z</time>
      </trkpt>
      <trkpt lat="51.09371" lon="4.33211">
        <ele>10.707</ele>
        <time>2012-08-12T10:14:23Z</time>
      </trkpt>
      <trkpt lat="51.09366" lon="4.33217">
        <ele>10.727</ele>
        <time>2012-08-12T10:14:22Z</time>
      </trkpt>
      <trkpt lat="51.09359" lon="4.33231">
        <ele>11.207</ele>
        <time>2012-08-12T10:14:20Z</time>
      </trkpt>
      <trkpt lat="51.09337" lon="4.33287">
        <ele>11.299</ele>
        <time>2012-08-12T10:14:12Z</time>
      </trkpt>
      <trkpt lat="51.09299" lon="4.33377">
        <ele>12.289</ele>
        <time>2012-08-12T10:13:57Z</time>
      </trkpt>
      <trkpt lat="51.09293" lon="4.33388">
        <ele>12.246</ele>
        <time>2012-08-12T10:13:54Z</time>
      </trkpt>
      <trkpt lat="51.09286" lon="4.33393">
        <ele>11.763</ele>
        <time>2012-08-12T10:13:51Z</time>
      </trkpt>
      <trkpt lat="51.0928" lon="4.33405">
        <ele>11.723</ele>
        <time>2012-08-12T10:13:47Z</time>
      </trkpt>
      <trkpt lat="51.0928" lon="4.33408">
        <ele>11.761</ele>
        <time>2012-08-12T10:13:46Z</time>
      </trkpt>
      <trkpt lat="51.09301" lon="4.33439">
        <ele>12.213</ele>
        <time>2012-08-12T10:13:35Z</time>
      </trkpt>
      <trkpt lat="51.09303" lon="4.33442">
        <ele>12.255</ele>
        <time>2012-08-12T10:13:34Z</time>
      </trkpt>
      <trkpt lat="51.09304" lon="4.33446">
        <ele>12.207</ele>
        <time>2012-08-12T10:13:33Z</time>
      </trkpt>
      <trkpt lat="51.0929" lon="4.33483">
        <ele>11.711</ele>
        <time>2012-08-12T10:13:19Z</time>
      </trkpt>
      <trkpt lat="51.0927" lon="4.33532">
        <ele>10.783</ele>
        <time>2012-08-12T10:13:06Z</time>
      </trkpt>
      <trkpt lat="51.09232" lon="4.33617">
        <ele>11.723</ele>
        <time>2012-08-12T10:12:50Z</time>
      </trkpt>
      <trkpt lat="51.09229" lon="4.33621">
        <ele>10.751</ele>
        <time>2012-08-12T10:12:49Z</time>
      </trkpt>
      <trkpt lat="51.09226" lon="4.33625">
        <ele>10.298</ele>
        <time>2012-08-12T10:12:48Z</time>
      </trkpt>
      <trkpt lat="51.09223" lon="4.33628">
        <ele>10.795</ele>
        <time>2012-08-12T10:12:47Z</time>
      </trkpt>
      <trkpt lat="51.09219" lon="4.3363">
        <ele>11.245</ele>
        <time>2012-08-12T10:12:46Z</time>
      </trkpt>
      <trkpt lat="51.09197" lon="4.33607">
        <ele>10.263</ele>
        <time>2012-08-12T10:12:39Z</time>
      </trkpt>
      <trkpt lat="51.09195" lon="4.33603">
        <ele>10.215</ele>
        <time>2012-08-12T10:12:38Z</time>
      </trkpt>
      <trkpt lat="51.09192" lon="4.336">
        <ele>10.257</ele>
        <time>2012-08-12T10:12:37Z</time>
      </trkpt>
      <trkpt lat="51.09188" lon="4.33597">
        <ele>10.207</ele>
        <time>2012-08-12T10:12:36Z</time>
      </trkpt>
      <trkpt lat="51.09185" lon="4.33595">
        <ele>10.715</ele>
        <time>2012-08-12T10:12:35Z</time>
      </trkpt>
      <trkpt lat="51.09149" lon="4.33573">
        <ele>10.705</ele>
        <time>2012-08-12T10:12:28Z</time>
      </trkpt>
      <trkpt lat="51.09109" lon="4.33565">
        <ele>10.244</ele>
        <time>2012-08-12T10:12:21Z</time>
      </trkpt>
      <trkpt lat="51.09042" lon="4.33586">
        <ele>8.836</ele>
        <time>2012-08-12T10:12:09Z</time>
      </trkpt>
      <trkpt lat="51.08961" lon="4.33626">
        <ele>8.343</ele>
        <time>2012-08-12T10:11:54Z</time>
      </trkpt>
      <trkpt lat="51.08884" lon="4.33657">
        <ele>7.81</ele>
        <time>2012-08-12T10:11:39Z</time>
      </trkpt>
      <trkpt lat="51.08879" lon="4.33657">
        <ele>8.34</ele>
        <time>2012-08-12T10:11:38Z</time>
      </trkpt>
      <trkpt lat="51.08852" lon="4.33645">
        <ele>6.958</ele>
        <time>2012-08-12T10:11:27Z</time>
      </trkpt>
      <trkpt lat="51.08849" lon="4.33642">
        <ele>6.98</ele>
        <time>2012-08-12T10:11:13Z</time>
      </trkpt>
      <trkpt lat="51.08847" lon="4.3364">
        <ele>7.472</ele>
        <time>2012-08-12T10:11:12Z</time>
      </trkpt>
      <trkpt lat="51.08845" lon="4.33638">
        <ele>6.907</ele>
        <time>2012-08-12T10:11:11Z</time>
      </trkpt>
      <trkpt lat="51.08842" lon="4.33638">
        <ele>7.426</ele>
        <time>2012-08-12T10:11:10Z</time>
      </trkpt>
      <trkpt lat="51.08839" lon="4.33639">
        <ele>6.915</ele>
        <time>2012-08-12T10:11:09Z</time>
      </trkpt>
      <trkpt lat="51.08836" lon="4.33643">
        <ele>7.498</ele>
        <time>2012-08-12T10:11:08Z</time>
      </trkpt>
      <trkpt lat="51.08797" lon="4.33741">
        <ele>7.842</ele>
        <time>2012-08-12T10:10:57Z</time>
      </trkpt>
      <trkpt lat="51.08734" lon="4.3391">
        <ele>7.469</ele>
        <time>2012-08-12T10:10:40Z</time>
      </trkpt>
      <trkpt lat="51.08642" lon="4.34071">
        <ele>7.436</ele>
        <time>2012-08-12T10:10:21Z</time>
      </trkpt>
      <trkpt lat="51.0856" lon="4.34219">
        <ele>7.436</ele>
        <time>2012-08-12T10:10:03Z</time>
      </trkpt>
      <trkpt lat="51.08496" lon="4.34397">
        <ele>7.414</ele>
        <time>2012-08-12T10:09:44Z</time>
      </trkpt>
      <trkpt lat="51.08437" lon="4.3456">
        <ele>6.486</ele>
        <time>2012-08-12T10:09:26Z</time>
      </trkpt>
      <trkpt lat="51.08382" lon="4.34659">
        <ele>6.978</ele>
        <time>2012-08-12T10:09:12Z</time>
      </trkpt>
      <trkpt lat="51.08338" lon="4.34696">
        <ele>7.407</ele>
        <time>2012-08-12T10:09:04Z</time>
      </trkpt>
      <trkpt lat="51.08308" lon="4.34723">
        <ele>7.811</ele>
        <time>2012-08-12T10:08:59Z</time>
      </trkpt>
      <trkpt lat="51.08302" lon="4.34727">
        <ele>7.856</ele>
        <time>2012-08-12T10:08:58Z</time>
      </trkpt>
      <trkpt lat="51.08243" lon="4.34775">
        <ele>7.854</ele>
        <time>2012-08-12T10:08:49Z</time>
      </trkpt>
      <trkpt lat="51.08235" lon="4.34781">
        <ele>7.472</ele>
        <time>2012-08-12T10:08:48Z</time>
      </trkpt>
      <trkpt lat="51.08228" lon="4.34788">
        <ele>7.419</ele>
        <time>2012-08-12T10:08:47Z</time>
      </trkpt>
      <trkpt lat="51.08222" lon="4.34796">
        <ele>8.336</ele>
        <time>2012-08-12T10:08:46Z</time>
      </trkpt>
      <trkpt lat="51.08217" lon="4.34806">
        <ele>7.426</ele>
        <time>2012-08-12T10:08:45Z</time>
      </trkpt>
      <trkpt lat="51.08213" lon="4.34817">
        <ele>8.384</ele>
        <time>2012-08-12T10:08:44Z</time>
      </trkpt>
      <trkpt lat="51.08209" lon="4.34829">
        <ele>7.836</ele>
        <time>2012-08-12T10:08:43Z</time>
      </trkpt>
      <trkpt lat="51.08206" lon="4.34841">
        <ele>8.318</ele>
        <time>2012-08-12T10:08:42Z</time>
      </trkpt>
      <trkpt lat="51.08204" lon="4.34854">
        <ele>8.807</ele>
        <time>2012-08-12T10:08:41Z</time>
      </trkpt>
      <trkpt lat="51.08203" lon="4.34867">
        <ele>8.314</ele>
        <time>2012-08-12T10:08:40Z</time>
      </trkpt>
      <trkpt lat="51.08202" lon="4.34879">
        <ele>8.859</ele>
        <time>2012-08-12T10:08:39Z</time>
      </trkpt>
      <trkpt lat="51.08202" lon="4.34893">
        <ele>8.856</ele>
        <time>2012-08-12T10:08:38Z</time>
      </trkpt>
      <trkpt lat="51.08204" lon="4.34905">
        <ele>9.388</ele>
        <time>2012-08-12T10:08:37Z</time>
      </trkpt>
      <trkpt lat="51.08206" lon="4.34918">
        <ele>9.385</ele>
        <time>2012-08-12T10:08:36Z</time>
      </trkpt>
      <trkpt lat="51.08281" lon="4.35105">
        <ele>11.212</ele>
        <time>2012-08-12T10:08:18Z</time>
      </trkpt>
      <trkpt lat="51.08286" lon="4.35115">
        <ele>11.282</ele>
        <time>2012-08-12T10:08:17Z</time>
      </trkpt>
      <trkpt lat="51.0829" lon="4.35126">
        <ele>11.26</ele>
        <time>2012-08-12T10:08:16Z</time>
      </trkpt>
      <trkpt lat="51.08294" lon="4.35137">
        <ele>11.232</ele>
        <time>2012-08-12T10:08:15Z</time>
      </trkpt>
      <trkpt lat="51.08297" lon="4.35148">
        <ele>11.224</ele>
        <time>2012-08-12T10:08:14Z</time>
      </trkpt>
      <trkpt lat="51.083" lon="4.3516">
        <ele>10.707</ele>
        <time>2012-08-12T10:08:13Z</time>
      </trkpt>
      <trkpt lat="51.08301" lon="4.35171">
        <ele>11.711</ele>
        <time>2012-08-12T10:08:12Z</time>
      </trkpt>
      <trkpt lat="51.08302" lon="4.35183">
        <ele>11.765</ele>
        <time>2012-08-12T10:08:11Z</time>
      </trkpt>
      <trkpt lat="51.08302" lon="4.35195">
        <ele>11.215</ele>
        <time>2012-08-12T10:08:10Z</time>
      </trkpt>
      <trkpt lat="51.08302" lon="4.35207">
        <ele>11.254</ele>
        <time>2012-08-12T10:08:09Z</time>
      </trkpt>
      <trkpt lat="51.083" lon="4.35218">
        <ele>11.281</ele>
        <time>2012-08-12T10:08:08Z</time>
      </trkpt>
      <trkpt lat="51.08298" lon="4.35229">
        <ele>11.258</ele>
        <time>2012-08-12T10:08:07Z</time>
      </trkpt>
      <trkpt lat="51.08296" lon="4.3524">
        <ele>11.228</ele>
        <time>2012-08-12T10:08:06Z</time>
      </trkpt>
      <trkpt lat="51.08292" lon="4.3525">
        <ele>11.276</ele>
        <time>2012-08-12T10:08:05Z</time>
      </trkpt>
      <trkpt lat="51.08289" lon="4.3526">
        <ele>11.288</ele>
        <time>2012-08-12T10:08:04Z</time>
      </trkpt>
      <trkpt lat="51.08261" lon="4.3531">
        <ele>12.28</ele>
        <time>2012-08-12T10:07:58Z</time>
      </trkpt>
      <trkpt lat="51.08183" lon="4.35391">
        <ele>13.107</ele>
        <time>2012-08-12T10:07:44Z</time>
      </trkpt>
      <trkpt lat="51.08146" lon="4.3541">
        <ele>14.12</ele>
        <time>2012-08-12T10:07:38Z</time>
      </trkpt>
      <trkpt lat="51.08099" lon="4.35477">
        <ele>15.528</ele>
        <time>2012-08-12T10:07:27Z</time>
      </trkpt>
      <trkpt lat="51.0808" lon="4.35531">
        <ele>16.075</ele>
        <time>2012-08-12T10:07:16Z</time>
      </trkpt>
      <trkpt lat="51.08077" lon="4.35536">
        <ele>16.074</ele>
        <time>2012-08-12T10:07:15Z</time>
      </trkpt>
      <trkpt lat="51.08074" lon="4.35541">
        <ele>15.551</ele>
        <time>2012-08-12T10:07:14Z</time>
      </trkpt>
      <trkpt lat="51.08071" lon="4.35547">
        <ele>15.018</ele>
        <time>2012-08-12T10:07:13Z</time>
      </trkpt>
      <trkpt lat="51.08069" lon="4.35553">
        <ele>15.058</ele>
        <time>2012-08-12T10:07:12Z</time>
      </trkpt>
      <trkpt lat="51.08068" lon="4.3556">
        <ele>15.526</ele>
        <time>2012-08-12T10:07:11Z</time>
      </trkpt>
      <trkpt lat="51.08067" lon="4.35568">
        <ele>14.638</ele>
        <time>2012-08-12T10:07:10Z</time>
      </trkpt>
      <trkpt lat="51.08067" lon="4.35576">
        <ele>14.64</ele>
        <time>2012-08-12T10:07:09Z</time>
      </trkpt>
      <trkpt lat="51.08068" lon="4.35584">
        <ele>14.107</ele>
        <time>2012-08-12T10:07:08Z</time>
      </trkpt>
      <trkpt lat="51.08067" lon="4.35592">
        <ele>13.62</ele>
        <time>2012-08-12T10:07:07Z</time>
      </trkpt>
      <trkpt lat="51.08066" lon="4.35599">
        <ele>13.628</ele>
        <time>2012-08-12T10:07:06Z</time>
      </trkpt>
      <trkpt lat="51.08053" lon="4.35617">
        <ele>14.175</ele>
        <time>2012-08-12T10:07:02Z</time>
      </trkpt>
      <trkpt lat="51.0805" lon="4.35621">
        <ele>14.114</ele>
        <time>2012-08-12T10:07:01Z</time>
      </trkpt>
      <trkpt lat="51.08047" lon="4.35625">
        <ele>14.651</ele>
        <time>2012-08-12T10:07:00Z</time>
      </trkpt>
      <trkpt lat="51.08041" lon="4.35626">
        <ele>15.018</ele>
        <time>2012-08-12T10:06:58Z</time>
      </trkpt>
      <trkpt lat="51.08037" lon="4.35625">
        <ele>15.098</ele>
        <time>2012-08-12T10:06:57Z</time>
      </trkpt>
      <trkpt lat="51.08032" lon="4.35624">
        <ele>15.516</ele>
        <time>2012-08-12T10:06:56Z</time>
      </trkpt>
      <trkpt lat="51.08027" lon="4.35624">
        <ele>16.028</ele>
        <time>2012-08-12T10:06:55Z</time>
      </trkpt>
      <trkpt lat="51.08023" lon="4.35627">
        <ele>16.01</ele>
        <time>2012-08-12T10:06:54Z</time>
      </trkpt>
      <trkpt lat="51.08015" lon="4.35635">
        <ele>16.007</ele>
        <time>2012-08-12T10:06:52Z</time>
      </trkpt>
      <trkpt lat="51.08012" lon="4.35638">
        <ele>16.526</ele>
        <time>2012-08-12T10:06:51Z</time>
      </trkpt>
      <trkpt lat="51.08008" lon="4.35639">
        <ele>16.033</ele>
        <time>2012-08-12T10:06:50Z</time>
      </trkpt>
      <trkpt lat="51.07974" lon="4.35691">
        <ele>14.178</ele>
        <time>2012-08-12T10:06:39Z</time>
      </trkpt>
      <trkpt lat="51.07971" lon="4.35696">
        <ele>14.64</ele>
        <time>2012-08-12T10:06:38Z</time>
      </trkpt>
      <trkpt lat="51.07969" lon="4.35702">
        <ele>14.137</ele>
        <time>2012-08-12T10:06:37Z</time>
      </trkpt>
      <trkpt lat="51.07965" lon="4.35723">
        <ele>14.644</ele>
        <time>2012-08-12T10:06:34Z</time>
      </trkpt>
      <trkpt lat="51.07962" lon="4.35737">
        <ele>13.624</ele>
        <time>2012-08-12T10:06:32Z</time>
      </trkpt>
      <trkpt lat="51.0796" lon="4.35743">
        <ele>14.152</ele>
        <time>2012-08-12T10:06:31Z</time>
      </trkpt>
      <trkpt lat="51.07957" lon="4.35749">
        <ele>14.194</ele>
        <time>2012-08-12T10:06:30Z</time>
      </trkpt>
      <trkpt lat="51.07891" lon="4.35841">
        <ele>11.756</ele>
        <time>2012-08-12T10:06:11Z</time>
      </trkpt>
      <trkpt lat="51.07805" lon="4.35947">
        <ele>10.207</ele>
        <time>2012-08-12T10:05:52Z</time>
      </trkpt>
      <trkpt lat="51.0773" lon="4.36038">
        <ele>10.21</ele>
        <time>2012-08-12T10:05:36Z</time>
      </trkpt>
      <trkpt lat="51.0765" lon="4.36115">
        <ele>8.855</ele>
        <time>2012-08-12T10:05:19Z</time>
      </trkpt>
      <trkpt lat="51.0757" lon="4.36126">
        <ele>8.334</ele>
        <time>2012-08-12T10:05:04Z</time>
      </trkpt>
      <trkpt lat="51.0747" lon="4.36106">
        <ele>7.849</ele>
        <time>2012-08-12T10:04:47Z</time>
      </trkpt>
      <trkpt lat="51.0738" lon="4.3609">
        <ele>7.816</ele>
        <time>2012-08-12T10:04:31Z</time>
      </trkpt>
      <trkpt lat="51.07295" lon="4.36084">
        <ele>7.493</ele>
        <time>2012-08-12T10:04:15Z</time>
      </trkpt>
      <trkpt lat="51.07209" lon="4.36077">
        <ele>7.443</ele>
        <time>2012-08-12T10:04:00Z</time>
      </trkpt>
      <trkpt lat="51.07103" lon="4.36064">
        <ele>6.931</ele>
        <time>2012-08-12T10:03:42Z</time>
      </trkpt>
      <trkpt lat="51.07097" lon="4.36064">
        <ele>6.963</ele>
        <time>2012-08-12T10:03:41Z</time>
      </trkpt>
      <trkpt lat="51.07091" lon="4.36065">
        <ele>6.985</ele>
        <time>2012-08-12T10:03:40Z</time>
      </trkpt>
      <trkpt lat="51.0708" lon="4.36068">
        <ele>6.907</ele>
        <time>2012-08-12T10:03:38Z</time>
      </trkpt>
      <trkpt lat="51.07074" lon="4.3607">
        <ele>7.408</ele>
        <time>2012-08-12T10:03:37Z</time>
      </trkpt>
      <trkpt lat="51.07069" lon="4.36071">
        <ele>7.462</ele>
        <time>2012-08-12T10:03:36Z</time>
      </trkpt>
      <trkpt lat="51.0703" lon="4.36067">
        <ele>7.422</ele>
        <time>2012-08-12T10:03:29Z</time>
      </trkpt>
      <trkpt lat="51.07025" lon="4.36067">
        <ele>6.916</ele>
        <time>2012-08-12T10:03:28Z</time>
      </trkpt>
      <trkpt lat="51.07016" lon="4.3607">
        <ele>7.483</ele>
        <time>2012-08-12T10:03:26Z</time>
      </trkpt>
      <trkpt lat="51.06995" lon="4.36068">
        <ele>6.99</ele>
        <time>2012-08-12T10:03:21Z</time>
      </trkpt>
      <trkpt lat="51.06992" lon="4.36067">
        <ele>6.96</ele>
        <time>2012-08-12T10:03:20Z</time>
      </trkpt>
      <trkpt lat="51.06989" lon="4.36068">
        <ele>7.498</ele>
        <time>2012-08-12T10:03:19Z</time>
      </trkpt>
      <trkpt lat="51.06987" lon="4.36071">
        <ele>7.43</ele>
        <time>2012-08-12T10:03:18Z</time>
      </trkpt>
      <trkpt lat="51.06984" lon="4.36075">
        <ele>7.862</ele>
        <time>2012-08-12T10:03:17Z</time>
      </trkpt>
      <trkpt lat="51.06951" lon="4.3617">
        <ele>8.307</ele>
        <time>2012-08-12T10:03:05Z</time>
      </trkpt>
      <trkpt lat="51.06907" lon="4.36303">
        <ele>7.826</ele>
        <time>2012-08-12T10:02:48Z</time>
      </trkpt>
      <trkpt lat="51.06869" lon="4.36415">
        <ele>8.315</ele>
        <time>2012-08-12T10:02:32Z</time>
      </trkpt>
      <trkpt lat="51.06867" lon="4.36421">
        <ele>8.898</ele>
        <time>2012-08-12T10:02:31Z</time>
      </trkpt>
      <trkpt lat="51.06865" lon="4.36426">
        <ele>8.882</ele>
        <time>2012-08-12T10:02:30Z</time>
      </trkpt>
      <trkpt lat="51.06863" lon="4.36431">
        <ele>8.889</ele>
        <time>2012-08-12T10:02:29Z</time>
      </trkpt>
      <trkpt lat="51.06862" lon="4.36437">
        <ele>9.326</ele>
        <time>2012-08-12T10:02:28Z</time>
      </trkpt>
      <trkpt lat="51.0686" lon="4.36441">
        <ele>9.816</ele>
        <time>2012-08-12T10:02:27Z</time>
      </trkpt>
      <trkpt lat="51.06859" lon="4.36445">
        <ele>9.364</ele>
        <time>2012-08-12T10:02:26Z</time>
      </trkpt>
      <trkpt lat="51.06841" lon="4.36446">
        <ele>9.316</ele>
        <time>2012-08-12T10:02:17Z</time>
      </trkpt>
      <trkpt lat="51.06813" lon="4.36441">
        <ele>9.388</ele>
        <time>2012-08-12T10:02:04Z</time>
      </trkpt>
      <trkpt lat="51.06812" lon="4.36441">
        <ele>8.807</ele>
        <time>2012-08-12T10:02:03Z</time>
      </trkpt>
      <trkpt lat="51.06811" lon="4.36441">
        <ele>9.314</ele>
        <time>2012-08-12T10:02:02Z</time>
      </trkpt>
      <trkpt lat="51.06809" lon="4.36442">
        <ele>9.304</ele>
        <time>2012-08-12T10:02:01Z</time>
      </trkpt>
      <trkpt lat="51.06808" lon="4.36443">
        <ele>9.353</ele>
        <time>2012-08-12T10:02:00Z</time>
      </trkpt>
      <trkpt lat="51.06807" lon="4.36445">
        <ele>9.364</ele>
        <time>2012-08-12T10:01:59Z</time>
      </trkpt>
      <trkpt lat="51.06806" lon="4.36447">
        <ele>9.361</ele>
        <time>2012-08-12T10:01:58Z</time>
      </trkpt>
      <trkpt lat="51.06805" lon="4.36448">
        <ele>8.898</ele>
        <time>2012-08-12T10:01:57Z</time>
      </trkpt>
      <trkpt lat="51.06786" lon="4.36448">
        <ele>8.848</ele>
        <time>2012-08-12T10:01:48Z</time>
      </trkpt>
      <trkpt lat="51.06737" lon="4.36436">
        <ele>9.866</ele>
        <time>2012-08-12T10:01:35Z</time>
      </trkpt>
      <trkpt lat="51.06649" lon="4.36422">
        <ele>9.388</ele>
        <time>2012-08-12T10:01:20Z</time>
      </trkpt>
      <trkpt lat="51.06643" lon="4.36421">
        <ele>9.82</ele>
        <time>2012-08-12T10:01:19Z</time>
      </trkpt>
      <trkpt lat="51.06637" lon="4.36422">
        <ele>9.807</ele>
        <time>2012-08-12T10:01:18Z</time>
      </trkpt>
      <trkpt lat="51.06631" lon="4.36424">
        <ele>10.219</ele>
        <time>2012-08-12T10:01:17Z</time>
      </trkpt>
      <trkpt lat="51.06625" lon="4.36426">
        <ele>9.89</ele>
        <time>2012-08-12T10:01:16Z</time>
      </trkpt>
      <trkpt lat="51.06618" lon="4.36426">
        <ele>9.876</ele>
        <time>2012-08-12T10:01:15Z</time>
      </trkpt>
      <trkpt lat="51.06612" lon="4.36426">
        <ele>10.299</ele>
        <time>2012-08-12T10:01:14Z</time>
      </trkpt>
      <trkpt lat="51.06606" lon="4.36425">
        <ele>9.836</ele>
        <time>2012-08-12T10:01:13Z</time>
      </trkpt>
      <trkpt lat="51.06516" lon="4.36404">
        <ele>9.843</ele>
        <time>2012-08-12T10:00:58Z</time>
      </trkpt>
      <trkpt lat="51.06407" lon="4.36385">
        <ele>9.833</ele>
        <time>2012-08-12T10:00:40Z</time>
      </trkpt>
      <trkpt lat="51.06331" lon="4.3638">
        <ele>9.331</ele>
        <time>2012-08-12T10:00:27Z</time>
      </trkpt>
      <trkpt lat="51.06234" lon="4.36363">
        <ele>9.353</ele>
        <time>2012-08-12T10:00:11Z</time>
      </trkpt>
      <trkpt lat="51.06137" lon="4.36347">
        <ele>9.885</ele>
        <time>2012-08-12T09:59:54Z</time>
      </trkpt>
      <trkpt lat="51.06055" lon="4.36334">
        <ele>9.307</ele>
        <time>2012-08-12T09:59:37Z</time>
      </trkpt>
      <trkpt lat="51.06" lon="4.36324">
        <ele>10.711</ele>
        <time>2012-08-12T09:59:24Z</time>
      </trkpt>
      <trkpt lat="51.05997" lon="4.36323">
        <ele>11.283</ele>
        <time>2012-08-12T09:59:23Z</time>
      </trkpt>
      <trkpt lat="51.05996" lon="4.36322">
        <ele>11.223</ele>
        <time>2012-08-12T09:59:22Z</time>
      </trkpt>
      <trkpt lat="51.05988" lon="4.36321">
        <ele>10.738</ele>
        <time>2012-08-12T09:59:18Z</time>
      </trkpt>
      <trkpt lat="51.05986" lon="4.36321">
        <ele>11.215</ele>
        <time>2012-08-12T09:59:17Z</time>
      </trkpt>
      <trkpt lat="51.05984" lon="4.36321">
        <ele>10.732</ele>
        <time>2012-08-12T09:59:16Z</time>
      </trkpt>
      <trkpt lat="51.05978" lon="4.3632">
        <ele>11.232</ele>
        <time>2012-08-12T09:59:07Z</time>
      </trkpt>
      <trkpt lat="51.05935" lon="4.36314">
        <ele>11.24</ele>
        <time>2012-08-12T09:58:55Z</time>
      </trkpt>
      <trkpt lat="51.05851" lon="4.36298">
        <ele>10.712</ele>
        <time>2012-08-12T09:58:37Z</time>
      </trkpt>
      <trkpt lat="51.05757" lon="4.36283">
        <ele>11.244</ele>
        <time>2012-08-12T09:58:20Z</time>
      </trkpt>
      <trkpt lat="51.05641" lon="4.36259">
        <ele>10.707</ele>
        <time>2012-08-12T09:58:00Z</time>
      </trkpt>
      <trkpt lat="51.05548" lon="4.36237">
        <ele>11.203</ele>
        <time>2012-08-12T09:57:43Z</time>
      </trkpt>
      <trkpt lat="51.05465" lon="4.36197">
        <ele>11.721</ele>
        <time>2012-08-12T09:57:26Z</time>
      </trkpt>
      <trkpt lat="51.05393" lon="4.36145">
        <ele>11.211</ele>
        <time>2012-08-12T09:57:10Z</time>
      </trkpt>
      <trkpt lat="51.0539" lon="4.36141">
        <ele>10.744</ele>
        <time>2012-08-12T09:57:09Z</time>
      </trkpt>
      <trkpt lat="51.05386" lon="4.36137">
        <ele>10.741</ele>
        <time>2012-08-12T09:57:08Z</time>
      </trkpt>
      <trkpt lat="51.05384" lon="4.36134">
        <ele>10.788</ele>
        <time>2012-08-12T09:57:07Z</time>
      </trkpt>
      <trkpt lat="51.05382" lon="4.36132">
        <ele>10.768</ele>
        <time>2012-08-12T09:57:06Z</time>
      </trkpt>
      <trkpt lat="51.0538" lon="4.36129">
        <ele>10.776</ele>
        <time>2012-08-12T09:57:05Z</time>
      </trkpt>
      <trkpt lat="51.05377" lon="4.36127">
        <ele>10.798</ele>
        <time>2012-08-12T09:57:04Z</time>
      </trkpt>
      <trkpt lat="51.05375" lon="4.36126">
        <ele>10.75</ele>
        <time>2012-08-12T09:57:03Z</time>
      </trkpt>
      <trkpt lat="51.05373" lon="4.36124">
        <ele>11.207</ele>
        <time>2012-08-12T09:57:02Z</time>
      </trkpt>
      <trkpt lat="51.05373" lon="4.36122">
        <ele>10.725</ele>
        <time>2012-08-12T09:57:01Z</time>
      </trkpt>
      <trkpt lat="51.05372" lon="4.3612">
        <ele>10.705</ele>
        <time>2012-08-12T09:57:00Z</time>
      </trkpt>
      <trkpt lat="51.05372" lon="4.36118">
        <ele>11.279</ele>
        <time>2012-08-12T09:56:59Z</time>
      </trkpt>
      <trkpt lat="51.05306" lon="4.36082">
        <ele>11.223</ele>
        <time>2012-08-12T09:56:46Z</time>
      </trkpt>
      <trkpt lat="51.05243" lon="4.36061">
        <ele>11.24</ele>
        <time>2012-08-12T09:56:34Z</time>
      </trkpt>
      <trkpt lat="51.05159" lon="4.3605">
        <ele>11.727</ele>
        <time>2012-08-12T09:56:19Z</time>
      </trkpt>
      <trkpt lat="51.05075" lon="4.36064">
        <ele>12.237</ele>
        <time>2012-08-12T09:56:04Z</time>
      </trkpt>
      <trkpt lat="51.05004" lon="4.36086">
        <ele>12.695</ele>
        <time>2012-08-12T09:55:51Z</time>
      </trkpt>
      <trkpt lat="51.04946" lon="4.36099">
        <ele>12.287</ele>
        <time>2012-08-12T09:55:40Z</time>
      </trkpt>
      <trkpt lat="51.04864" lon="4.3611">
        <ele>12.239</ele>
        <time>2012-08-12T09:55:27Z</time>
      </trkpt>
      <trkpt lat="51.04784" lon="4.36098">
        <ele>11.707</ele>
        <time>2012-08-12T09:55:14Z</time>
      </trkpt>
      <trkpt lat="51.04778" lon="4.36097">
        <ele>12.213</ele>
        <time>2012-08-12T09:55:13Z</time>
      </trkpt>
      <trkpt lat="51.04744" lon="4.36092">
        <ele>11.721</ele>
        <time>2012-08-12T09:55:07Z</time>
      </trkpt>
      <trkpt lat="51.04664" lon="4.36078">
        <ele>11.761</ele>
        <time>2012-08-12T09:54:53Z</time>
      </trkpt>
      <trkpt lat="51.04579" lon="4.36064">
        <ele>12.639</ele>
        <time>2012-08-12T09:54:38Z</time>
      </trkpt>
      <trkpt lat="51.04477" lon="4.36048">
        <ele>12.216</ele>
        <time>2012-08-12T09:54:20Z</time>
      </trkpt>
      <trkpt lat="51.04472" lon="4.36046">
        <ele>12.293</ele>
        <time>2012-08-12T09:54:19Z</time>
      </trkpt>
      <trkpt lat="51.04388" lon="4.3603">
        <ele>12.293</ele>
        <time>2012-08-12T09:54:04Z</time>
      </trkpt>
      <trkpt lat="51.04291" lon="4.36005">
        <ele>12.211</ele>
        <time>2012-08-12T09:53:48Z</time>
      </trkpt>
      <trkpt lat="51.0419" lon="4.35997">
        <ele>11.753</ele>
        <time>2012-08-12T09:53:32Z</time>
      </trkpt>
      <trkpt lat="51.04184" lon="4.35995">
        <ele>11.755</ele>
        <time>2012-08-12T09:53:31Z</time>
      </trkpt>
      <trkpt lat="51.04155" lon="4.35987">
        <ele>12.207</ele>
        <time>2012-08-12T09:53:26Z</time>
      </trkpt>
      <trkpt lat="51.04046" lon="4.35952">
        <ele>12.208</ele>
        <time>2012-08-12T09:53:08Z</time>
      </trkpt>
      <trkpt lat="51.03954" lon="4.35916">
        <ele>12.626</ele>
        <time>2012-08-12T09:52:53Z</time>
      </trkpt>
      <trkpt lat="51.03871" lon="4.35882">
        <ele>12.625</ele>
        <time>2012-08-12T09:52:37Z</time>
      </trkpt>
      <trkpt lat="51.03794" lon="4.35853">
        <ele>13.178</ele>
        <time>2012-08-12T09:52:21Z</time>
      </trkpt>
      <trkpt lat="51.03706" lon="4.35818">
        <ele>13.635</ele>
        <time>2012-08-12T09:52:03Z</time>
      </trkpt>
      <trkpt lat="51.03624" lon="4.35785">
        <ele>15.082</ele>
        <time>2012-08-12T09:51:46Z</time>
      </trkpt>
      <trkpt lat="51.03534" lon="4.35747">
        <ele>15.512</ele>
        <time>2012-08-12T09:51:27Z</time>
      </trkpt>
      <trkpt lat="51.03481" lon="4.35729">
        <ele>16.08</ele>
        <time>2012-08-12T09:51:14Z</time>
      </trkpt>
      <trkpt lat="51.03478" lon="4.35728">
        <ele>16.052</ele>
        <time>2012-08-12T09:51:13Z</time>
      </trkpt>
      <trkpt lat="51.03476" lon="4.35728">
        <ele>15.564</ele>
        <time>2012-08-12T09:51:12Z</time>
      </trkpt>
      <trkpt lat="51.03473" lon="4.35728">
        <ele>15.007</ele>
        <time>2012-08-12T09:51:11Z</time>
      </trkpt>
      <trkpt lat="51.0347" lon="4.35728">
        <ele>15.003</ele>
        <time>2012-08-12T09:51:10Z</time>
      </trkpt>
      <trkpt lat="51.03468" lon="4.35729">
        <ele>15.021</ele>
        <time>2012-08-12T09:51:09Z</time>
      </trkpt>
      <trkpt lat="51.03464" lon="4.35735">
        <ele>15.011</ele>
        <time>2012-08-12T09:51:06Z</time>
      </trkpt>
      <trkpt lat="51.03465" lon="4.35736">
        <ele>15.035</ele>
        <time>2012-08-12T09:51:05Z</time>
      </trkpt>
      <trkpt lat="51.03465" lon="4.35738">
        <ele>15.062</ele>
        <time>2012-08-12T09:51:04Z</time>
      </trkpt>
      <trkpt lat="51.03465" lon="4.35741">
        <ele>14.679</ele>
        <time>2012-08-12T09:51:02Z</time>
      </trkpt>
      <trkpt lat="51.03463" lon="4.35737">
        <ele>14.619</ele>
        <time>2012-08-12T09:50:12Z</time>
      </trkpt>
      <trkpt lat="51.03462" lon="4.3574">
        <ele>15.567</ele>
        <time>2012-08-12T09:49:34Z</time>
      </trkpt>
      <trkpt lat="51.03463" lon="4.35736">
        <ele>15.539</ele>
        <time>2012-08-12T09:48:46Z</time>
      </trkpt>
      <trkpt lat="51.03461" lon="4.35731">
        <ele>15.521</ele>
        <time>2012-08-12T09:47:54Z</time>
      </trkpt>
      <trkpt lat="51.03462" lon="4.35731">
        <ele>15.507</ele>
        <time>2012-08-12T09:47:08Z</time>
      </trkpt>
      <trkpt lat="51.03465" lon="4.35737">
        <ele>15.017</ele>
        <time>2012-08-12T09:46:26Z</time>
      </trkpt>
      <trkpt lat="51.03466" lon="4.35736">
        <ele>15.007</ele>
        <time>2012-08-12T09:45:48Z</time>
      </trkpt>
      <trkpt lat="51.03467" lon="4.35736">
        <ele>14.684</ele>
        <time>2012-08-12T09:45:04Z</time>
      </trkpt>
      <trkpt lat="51.03464" lon="4.35737">
        <ele>15.024</ele>
        <time>2012-08-12T09:44:23Z</time>
      </trkpt>
      <trkpt lat="51.0346" lon="4.35738">
        <ele>15.021</ele>
        <time>2012-08-12T09:44:11Z</time>
      </trkpt>
      <trkpt lat="51.03458" lon="4.35737">
        <ele>15.018</ele>
        <time>2012-08-12T09:44:10Z</time>
      </trkpt>
      <trkpt lat="51.03456" lon="4.35736">
        <ele>15.578</ele>
        <time>2012-08-12T09:44:09Z</time>
      </trkpt>
      <trkpt lat="51.03454" lon="4.35734">
        <ele>15.056</ele>
        <time>2012-08-12T09:44:08Z</time>
      </trkpt>
      <trkpt lat="51.03455" lon="4.35709">
        <ele>14.118</ele>
        <time>2012-08-12T09:44:01Z</time>
      </trkpt>
      <trkpt lat="51.03455" lon="4.35704">
        <ele>14.13</ele>
        <time>2012-08-12T09:44:00Z</time>
      </trkpt>
      <trkpt lat="51.03455" lon="4.357">
        <ele>14.607</ele>
        <time>2012-08-12T09:43:59Z</time>
      </trkpt>
      <trkpt lat="51.03455" lon="4.35696">
        <ele>13.614</ele>
        <time>2012-08-12T09:43:58Z</time>
      </trkpt>
      <trkpt lat="51.03455" lon="4.35692">
        <ele>13.613</ele>
        <time>2012-08-12T09:43:57Z</time>
      </trkpt>
      <trkpt lat="51.03457" lon="4.35689">
        <ele>14.172</ele>
        <time>2012-08-12T09:43:56Z</time>
      </trkpt>
      <trkpt lat="51.03459" lon="4.35689">
        <ele>13.629</ele>
        <time>2012-08-12T09:43:55Z</time>
      </trkpt>
      <trkpt lat="51.03461" lon="4.3569">
        <ele>14.166</ele>
        <time>2012-08-12T09:43:54Z</time>
      </trkpt>
      <trkpt lat="51.03462" lon="4.35692">
        <ele>13.683</ele>
        <time>2012-08-12T09:43:53Z</time>
      </trkpt>
      <trkpt lat="51.03463" lon="4.35694">
        <ele>14.173</ele>
        <time>2012-08-12T09:43:33Z</time>
      </trkpt>
      <trkpt lat="51.03461" lon="4.35694">
        <ele>13.641</ele>
        <time>2012-08-12T09:43:03Z</time>
      </trkpt>
      <trkpt lat="51.03462" lon="4.35689">
        <ele>13.653</ele>
        <time>2012-08-12T09:42:31Z</time>
      </trkpt>
      <trkpt lat="51.03464" lon="4.35691">
        <ele>14.165</ele>
        <time>2012-08-12T09:42:19Z</time>
      </trkpt>
      <trkpt lat="51.03464" lon="4.35692">
        <ele>13.607</ele>
        <time>2012-08-12T09:42:18Z</time>
      </trkpt>
      <trkpt lat="51.03463" lon="4.35693">
        <ele>13.605</ele>
        <time>2012-08-12T09:42:17Z</time>
      </trkpt>
      <trkpt lat="51.03461" lon="4.35693">
        <ele>14.141</ele>
        <time>2012-08-12T09:42:16Z</time>
      </trkpt>
      <trkpt lat="51.0346" lon="4.35694">
        <ele>14.121</ele>
        <time>2012-08-12T09:42:15Z</time>
      </trkpt>
      <trkpt lat="51.03458" lon="4.35695">
        <ele>14.183</ele>
        <time>2012-08-12T09:42:14Z</time>
      </trkpt>
      <trkpt lat="51.03457" lon="4.35696">
        <ele>13.62</ele>
        <time>2012-08-12T09:42:13Z</time>
      </trkpt>
      <trkpt lat="51.03455" lon="4.35697">
        <ele>14.157</ele>
        <time>2012-08-12T09:42:12Z</time>
      </trkpt>
      <trkpt lat="51.03454" lon="4.35698">
        <ele>14.137</ele>
        <time>2012-08-12T09:42:11Z</time>
      </trkpt>
      <trkpt lat="51.0343" lon="4.35694">
        <ele>14.655</ele>
        <time>2012-08-12T09:42:01Z</time>
      </trkpt>
      <trkpt lat="51.03426" lon="4.35696">
        <ele>14.677</ele>
        <time>2012-08-12T09:42:00Z</time>
      </trkpt>
      <trkpt lat="51.03422" lon="4.35697">
        <ele>14.689</ele>
        <time>2012-08-12T09:41:59Z</time>
      </trkpt>
      <trkpt lat="51.03418" lon="4.35696">
        <ele>15.007</ele>
        <time>2012-08-12T09:41:58Z</time>
      </trkpt>
      <trkpt lat="51.03347" lon="4.35673">
        <ele>14.621</ele>
        <time>2012-08-12T09:41:42Z</time>
      </trkpt>
      <trkpt lat="51.03338" lon="4.35673">
        <ele>14.129</ele>
        <time>2012-08-12T09:41:40Z</time>
      </trkpt>
      <trkpt lat="51.03288" lon="4.35659">
        <ele>14.166</ele>
        <time>2012-08-12T09:41:29Z</time>
      </trkpt>
      <trkpt lat="51.03227" lon="4.35637">
        <ele>15.051</ele>
        <time>2012-08-12T09:41:17Z</time>
      </trkpt>
      <trkpt lat="51.03105" lon="4.35622">
        <ele>15.048</ele>
        <time>2012-08-12T09:40:59Z</time>
      </trkpt>
      <trkpt lat="51.02987" lon="4.35637">
        <ele>15.515</ele>
        <time>2012-08-12T09:40:42Z</time>
      </trkpt>
      <trkpt lat="51.0289" lon="4.35666">
        <ele>16.075</ele>
        <time>2012-08-12T09:40:27Z</time>
      </trkpt>
      <trkpt lat="51.02813" lon="4.35699">
        <ele>16.523</ele>
        <time>2012-08-12T09:40:14Z</time>
      </trkpt>
      <trkpt lat="51.02768" lon="4.35718">
        <ele>16.055</ele>
        <time>2012-08-12T09:40:06Z</time>
      </trkpt>
      <trkpt lat="51.02759" lon="4.35723">
        <ele>16.067</ele>
        <time>2012-08-12T09:40:04Z</time>
      </trkpt>
      <trkpt lat="51.02727" lon="4.35736">
        <ele>16.507</ele>
        <time>2012-08-12T09:39:58Z</time>
      </trkpt>
      <trkpt lat="51.02662" lon="4.35765">
        <ele>16.017</ele>
        <time>2012-08-12T09:39:46Z</time>
      </trkpt>
      <trkpt lat="51.02568" lon="4.35803">
        <ele>16.061</ele>
        <time>2012-08-12T09:39:31Z</time>
      </trkpt>
      <trkpt lat="51.02449" lon="4.35856">
        <ele>16.548</ele>
        <time>2012-08-12T09:39:12Z</time>
      </trkpt>
      <trkpt lat="51.02365" lon="4.35895">
        <ele>16.019</ele>
        <time>2012-08-12T09:38:57Z</time>
      </trkpt>
      <trkpt lat="51.0236" lon="4.35897">
        <ele>16.046</ele>
        <time>2012-08-12T09:38:56Z</time>
      </trkpt>
      <trkpt lat="51.02356" lon="4.35898">
        <ele>16.593</ele>
        <time>2012-08-12T09:38:55Z</time>
      </trkpt>
      <trkpt lat="51.02346" lon="4.35902">
        <ele>15.563</ele>
        <time>2012-08-12T09:38:53Z</time>
      </trkpt>
      <trkpt lat="51.02269" lon="4.35962">
        <ele>16.511</ele>
        <time>2012-08-12T09:38:41Z</time>
      </trkpt>
      <trkpt lat="51.0219" lon="4.36006">
        <ele>15.513</ele>
        <time>2012-08-12T09:38:29Z</time>
      </trkpt>
      <trkpt lat="51.02106" lon="4.36024">
        <ele>15.075</ele>
        <time>2012-08-12T09:38:16Z</time>
      </trkpt>
      <trkpt lat="51.02082" lon="4.36032">
        <ele>15.507</ele>
        <time>2012-08-12T09:38:12Z</time>
      </trkpt>
      <trkpt lat="51.02076" lon="4.36034">
        <ele>15.008</ele>
        <time>2012-08-12T09:38:11Z</time>
      </trkpt>
      <trkpt lat="51.02057" lon="4.36039">
        <ele>15.562</ele>
        <time>2012-08-12T09:38:08Z</time>
      </trkpt>
      <trkpt lat="51.02037" lon="4.36044">
        <ele>15.522</ele>
        <time>2012-08-12T09:38:05Z</time>
      </trkpt>
      <trkpt lat="51.02025" lon="4.36046">
        <ele>15.022</ele>
        <time>2012-08-12T09:38:03Z</time>
      </trkpt>
      <trkpt lat="51.02009" lon="4.36047">
        <ele>15.059</ele>
        <time>2012-08-12T09:38:00Z</time>
      </trkpt>
      <trkpt lat="51.01941" lon="4.36074">
        <ele>15.046</ele>
        <time>2012-08-12T09:37:48Z</time>
      </trkpt>
      <trkpt lat="51.01935" lon="4.36077">
        <ele>16.036</ele>
        <time>2012-08-12T09:37:47Z</time>
      </trkpt>
      <trkpt lat="51.01888" lon="4.36096">
        <ele>15.584</ele>
        <time>2012-08-12T09:37:39Z</time>
      </trkpt>
      <trkpt lat="51.0182" lon="4.36127">
        <ele>16.056</ele>
        <time>2012-08-12T09:37:27Z</time>
      </trkpt>
      <trkpt lat="51.01741" lon="4.36164">
        <ele>16.528</ele>
        <time>2012-08-12T09:37:12Z</time>
      </trkpt>
      <trkpt lat="51.01669" lon="4.36195">
        <ele>16.007</ele>
        <time>2012-08-12T09:36:58Z</time>
      </trkpt>
      <trkpt lat="51.01605" lon="4.36218">
        <ele>16.014</ele>
        <time>2012-08-12T09:36:45Z</time>
      </trkpt>
      <trkpt lat="51.01518" lon="4.36255">
        <ele>17.059</ele>
        <time>2012-08-12T09:36:27Z</time>
      </trkpt>
      <trkpt lat="51.01513" lon="4.36258">
        <ele>17.456</ele>
        <time>2012-08-12T09:36:26Z</time>
      </trkpt>
      <trkpt lat="51.01502" lon="4.36269">
        <ele>17.051</ele>
        <time>2012-08-12T09:36:23Z</time>
      </trkpt>
      <trkpt lat="51.015" lon="4.36271">
        <ele>16.588</ele>
        <time>2012-08-12T09:36:22Z</time>
      </trkpt>
      <trkpt lat="51.01498" lon="4.36273">
        <ele>17.085</ele>
        <time>2012-08-12T09:36:21Z</time>
      </trkpt>
      <trkpt lat="51.01496" lon="4.36274">
        <ele>17.055</ele>
        <time>2012-08-12T09:36:20Z</time>
      </trkpt>
      <trkpt lat="51.01495" lon="4.36276">
        <ele>17.023</ele>
        <time>2012-08-12T09:36:19Z</time>
      </trkpt>
      <trkpt lat="51.01493" lon="4.36277">
        <ele>16.515</ele>
        <time>2012-08-12T09:36:15Z</time>
      </trkpt>
      <trkpt lat="51.01492" lon="4.36279">
        <ele>17.077</ele>
        <time>2012-08-12T09:36:02Z</time>
      </trkpt>
      <trkpt lat="51.0149" lon="4.36278">
        <ele>17.007</ele>
        <time>2012-08-12T09:36:01Z</time>
      </trkpt>
      <trkpt lat="51.01488" lon="4.36276">
        <ele>17.411</ele>
        <time>2012-08-12T09:36:00Z</time>
      </trkpt>
      <trkpt lat="51.01485" lon="4.36274">
        <ele>17.047</ele>
        <time>2012-08-12T09:35:59Z</time>
      </trkpt>
      <trkpt lat="51.01481" lon="4.36274">
        <ele>17.445</ele>
        <time>2012-08-12T09:35:58Z</time>
      </trkpt>
      <trkpt lat="51.01476" lon="4.36277">
        <ele>17.061</ele>
        <time>2012-08-12T09:35:57Z</time>
      </trkpt>
      <trkpt lat="51.01471" lon="4.3628">
        <ele>17.018</ele>
        <time>2012-08-12T09:35:56Z</time>
      </trkpt>
      <trkpt lat="51.01466" lon="4.36284">
        <ele>17.425</ele>
        <time>2012-08-12T09:35:55Z</time>
      </trkpt>
      <trkpt lat="51.01462" lon="4.3629">
        <ele>17.055</ele>
        <time>2012-08-12T09:35:54Z</time>
      </trkpt>
      <trkpt lat="51.01457" lon="4.36295">
        <ele>17.053</ele>
        <time>2012-08-12T09:35:53Z</time>
      </trkpt>
      <trkpt lat="51.01453" lon="4.363">
        <ele>17.455</ele>
        <time>2012-08-12T09:35:52Z</time>
      </trkpt>
      <trkpt lat="51.0139" lon="4.36332">
        <ele>17.057</ele>
        <time>2012-08-12T09:35:40Z</time>
      </trkpt>
      <trkpt lat="51.013" lon="4.36371">
        <ele>17.907</ele>
        <time>2012-08-12T09:35:23Z</time>
      </trkpt>
      <trkpt lat="51.01218" lon="4.36405">
        <ele>17.922</ele>
        <time>2012-08-12T09:35:05Z</time>
      </trkpt>
      <trkpt lat="51.01152" lon="4.36431">
        <ele>17.002</ele>
        <time>2012-08-12T09:34:49Z</time>
      </trkpt>
      <trkpt lat="51.01144" lon="4.36429">
        <ele>17.449</ele>
        <time>2012-08-12T09:34:46Z</time>
      </trkpt>
      <trkpt lat="51.01142" lon="4.36426">
        <ele>17.499</ele>
        <time>2012-08-12T09:34:45Z</time>
      </trkpt>
      <trkpt lat="51.0114" lon="4.3642">
        <ele>17.046</ele>
        <time>2012-08-12T09:34:44Z</time>
      </trkpt>
      <trkpt lat="51.01131" lon="4.363">
        <ele>17.023</ele>
        <time>2012-08-12T09:34:29Z</time>
      </trkpt>
      <trkpt lat="51.01125" lon="4.36167">
        <ele>16.543</ele>
        <time>2012-08-12T09:34:14Z</time>
      </trkpt>
      <trkpt lat="51.01125" lon="4.36159">
        <ele>17.061</ele>
        <time>2012-08-12T09:34:13Z</time>
      </trkpt>
      <trkpt lat="51.01124" lon="4.36153">
        <ele>17.083</ele>
        <time>2012-08-12T09:34:12Z</time>
      </trkpt>
      <trkpt lat="51.01123" lon="4.36147">
        <ele>16.515</ele>
        <time>2012-08-12T09:34:11Z</time>
      </trkpt>
      <trkpt lat="51.01122" lon="4.36142">
        <ele>16.507</ele>
        <time>2012-08-12T09:34:10Z</time>
      </trkpt>
      <trkpt lat="51.0112" lon="4.36139">
        <ele>17.008</ele>
        <time>2012-08-12T09:34:09Z</time>
      </trkpt>
      <trkpt lat="51.01113" lon="4.36139">
        <ele>16.562</ele>
        <time>2012-08-12T09:34:06Z</time>
      </trkpt>
      <trkpt lat="51.01108" lon="4.36118">
        <ele>17.022</ele>
        <time>2012-08-12T09:34:01Z</time>
      </trkpt>
      <trkpt lat="51.01107" lon="4.36112">
        <ele>17.019</ele>
        <time>2012-08-12T09:34:00Z</time>
      </trkpt>
      <trkpt lat="51.01107" lon="4.36105">
        <ele>17.016</ele>
        <time>2012-08-12T09:33:59Z</time>
      </trkpt>
      <trkpt lat="51.01105" lon="4.36098">
        <ele>17.053</ele>
        <time>2012-08-12T09:33:58Z</time>
      </trkpt>
      <trkpt lat="51.01102" lon="4.36092">
        <ele>16.523</ele>
        <time>2012-08-12T09:33:57Z</time>
      </trkpt>
      <trkpt lat="51.01097" lon="4.36089">
        <ele>16.091</ele>
        <time>2012-08-12T09:33:56Z</time>
      </trkpt>
      <trkpt lat="51.01087" lon="4.36089">
        <ele>17.063</ele>
        <time>2012-08-12T09:33:54Z</time>
      </trkpt>
      <trkpt lat="51.01061" lon="4.3609">
        <ele>16.035</ele>
        <time>2012-08-12T09:33:49Z</time>
      </trkpt>
      <trkpt lat="51.00981" lon="4.36092">
        <ele>16.507</ele>
        <time>2012-08-12T09:33:35Z</time>
      </trkpt>
      <trkpt lat="51.00971" lon="4.36092">
        <ele>16.008</ele>
        <time>2012-08-12T09:33:33Z</time>
      </trkpt>
      <trkpt lat="51.00878" lon="4.36111">
        <ele>16.562</ele>
        <time>2012-08-12T09:33:16Z</time>
      </trkpt>
      <trkpt lat="51.00795" lon="4.36129">
        <ele>17.022</ele>
        <time>2012-08-12T09:33:01Z</time>
      </trkpt>
      <trkpt lat="51.00734" lon="4.36136">
        <ele>16.533</ele>
        <time>2012-08-12T09:32:50Z</time>
      </trkpt>
      <trkpt lat="51.00662" lon="4.36147">
        <ele>16.51</ele>
        <time>2012-08-12T09:32:36Z</time>
      </trkpt>
      <trkpt lat="51.00553" lon="4.36161">
        <ele>17.467</ele>
        <time>2012-08-12T09:32:16Z</time>
      </trkpt>
      <trkpt lat="51.00472" lon="4.36153">
        <ele>17.927</ele>
        <time>2012-08-12T09:32:01Z</time>
      </trkpt>
      <trkpt lat="51.00402" lon="4.36133">
        <ele>17.095</ele>
        <time>2012-08-12T09:31:47Z</time>
      </trkpt>
      <trkpt lat="51.00398" lon="4.36132">
        <ele>17.057</ele>
        <time>2012-08-12T09:31:46Z</time>
      </trkpt>
      <trkpt lat="51.00394" lon="4.3613">
        <ele>17.059</ele>
        <time>2012-08-12T09:31:45Z</time>
      </trkpt>
      <trkpt lat="51.0039" lon="4.3613">
        <ele>17.007</ele>
        <time>2012-08-12T09:31:44Z</time>
      </trkpt>
      <trkpt lat="51.00387" lon="4.36133">
        <ele>17.416</ele>
        <time>2012-08-12T09:31:43Z</time>
      </trkpt>
      <trkpt lat="51.00386" lon="4.36138">
        <ele>17.006</ele>
        <time>2012-08-12T09:31:42Z</time>
      </trkpt>
      <trkpt lat="51.00386" lon="4.36144">
        <ele>17.064</ele>
        <time>2012-08-12T09:31:41Z</time>
      </trkpt>
      <trkpt lat="51.00397" lon="4.36179">
        <ele>16.555</ele>
        <time>2012-08-12T09:31:36Z</time>
      </trkpt>
      <trkpt lat="51.00444" lon="4.36303">
        <ele>17.042</ele>
        <time>2012-08-12T09:31:18Z</time>
      </trkpt>
      <trkpt lat="51.00464" lon="4.36364">
        <ele>16.569</ele>
        <time>2012-08-12T09:31:07Z</time>
      </trkpt>
      <trkpt lat="51.00477" lon="4.36471">
        <ele>17.059</ele>
        <time>2012-08-12T09:30:53Z</time>
      </trkpt>
      <trkpt lat="51.00487" lon="4.36587">
        <ele>17.077</ele>
        <time>2012-08-12T09:30:39Z</time>
      </trkpt>
      <trkpt lat="51.00487" lon="4.36595">
        <ele>17.069</ele>
        <time>2012-08-12T09:30:38Z</time>
      </trkpt>
      <trkpt lat="51.00487" lon="4.36602">
        <ele>16.571</ele>
        <time>2012-08-12T09:30:37Z</time>
      </trkpt>
      <trkpt lat="51.00486" lon="4.36609">
        <ele>17.007</ele>
        <time>2012-08-12T09:30:36Z</time>
      </trkpt>
      <trkpt lat="51.00486" lon="4.36616">
        <ele>17.017</ele>
        <time>2012-08-12T09:30:35Z</time>
      </trkpt>
      <trkpt lat="51.00485" lon="4.36623">
        <ele>16.507</ele>
        <time>2012-08-12T09:30:34Z</time>
      </trkpt>
      <trkpt lat="51.00484" lon="4.3663">
        <ele>17.084</ele>
        <time>2012-08-12T09:30:33Z</time>
      </trkpt>
      <trkpt lat="51.00481" lon="4.36637">
        <ele>17.055</ele>
        <time>2012-08-12T09:30:32Z</time>
      </trkpt>
      <trkpt lat="51.00478" lon="4.36643">
        <ele>17.412</ele>
        <time>2012-08-12T09:30:31Z</time>
      </trkpt>
      <trkpt lat="51.00473" lon="4.36649">
        <ele>17.079</ele>
        <time>2012-08-12T09:30:30Z</time>
      </trkpt>
      <trkpt lat="51.00438" lon="4.36674">
        <ele>17.059</ele>
        <time>2012-08-12T09:30:23Z</time>
      </trkpt>
      <trkpt lat="51.00373" lon="4.36717">
        <ele>17.497</ele>
        <time>2012-08-12T09:30:11Z</time>
      </trkpt>
      <trkpt lat="51.00296" lon="4.36767">
        <ele>17.959</ele>
        <time>2012-08-12T09:29:57Z</time>
      </trkpt>
      <trkpt lat="51.00212" lon="4.36824">
        <ele>18.911</ele>
        <time>2012-08-12T09:29:43Z</time>
      </trkpt>
      <trkpt lat="51.00143" lon="4.36859">
        <ele>19.807</ele>
        <time>2012-08-12T09:29:29Z</time>
      </trkpt>
      <trkpt lat="51.00114" lon="4.36873">
        <ele>20.317</ele>
        <time>2012-08-12T09:29:23Z</time>
      </trkpt>
      <trkpt lat="51.0011" lon="4.36875">
        <ele>20.307</ele>
        <time>2012-08-12T09:29:22Z</time>
      </trkpt>
      <trkpt lat="51.00105" lon="4.36876">
        <ele>19.884</ele>
        <time>2012-08-12T09:29:21Z</time>
      </trkpt>
      <trkpt lat="51.00077" lon="4.36887">
        <ele>19.481</ele>
        <time>2012-08-12T09:29:15Z</time>
      </trkpt>
      <trkpt lat="51.00019" lon="4.36911">
        <ele>18.968</ele>
        <time>2012-08-12T09:29:01Z</time>
      </trkpt>
      <trkpt lat="50.99977" lon="4.36941">
        <ele>19.415</ele>
        <time>2012-08-12T09:28:48Z</time>
      </trkpt>
      <trkpt lat="50.99917" lon="4.37008">
        <ele>19.885</ele>
        <time>2012-08-12T09:28:32Z</time>
      </trkpt>
      <trkpt lat="50.99853" lon="4.37065">
        <ele>21.363</ele>
        <time>2012-08-12T09:28:19Z</time>
      </trkpt>
      <trkpt lat="50.99847" lon="4.37068">
        <ele>21.385</ele>
        <time>2012-08-12T09:28:18Z</time>
      </trkpt>
      <trkpt lat="50.99836" lon="4.37077">
        <ele>21.377</ele>
        <time>2012-08-12T09:28:16Z</time>
      </trkpt>
      <trkpt lat="50.99724" lon="4.37202">
        <ele>21.307</ele>
        <time>2012-08-12T09:27:54Z</time>
      </trkpt>
      <trkpt lat="50.99618" lon="4.37319">
        <ele>21.316</ele>
        <time>2012-08-12T09:27:34Z</time>
      </trkpt>
      <trkpt lat="50.9952" lon="4.37428">
        <ele>21.388</ele>
        <time>2012-08-12T09:27:14Z</time>
      </trkpt>
      <trkpt lat="50.99441" lon="4.37515">
        <ele>21.346</ele>
        <time>2012-08-12T09:26:58Z</time>
      </trkpt>
      <trkpt lat="50.99359" lon="4.37606">
        <ele>21.358</ele>
        <time>2012-08-12T09:26:41Z</time>
      </trkpt>
      <trkpt lat="50.99277" lon="4.377">
        <ele>21.345</ele>
        <time>2012-08-12T09:26:24Z</time>
      </trkpt>
      <trkpt lat="50.99221" lon="4.37766">
        <ele>21.332</ele>
        <time>2012-08-12T09:26:11Z</time>
      </trkpt>
      <trkpt lat="50.99166" lon="4.37823">
        <ele>21.352</ele>
        <time>2012-08-12T09:25:59Z</time>
      </trkpt>
      <trkpt lat="50.99161" lon="4.37827">
        <ele>21.35</ele>
        <time>2012-08-12T09:25:58Z</time>
      </trkpt>
      <trkpt lat="50.99157" lon="4.37832">
        <ele>21.322</ele>
        <time>2012-08-12T09:25:57Z</time>
      </trkpt>
      <trkpt lat="50.99153" lon="4.37838">
        <ele>21.334</ele>
        <time>2012-08-12T09:25:56Z</time>
      </trkpt>
      <trkpt lat="50.9915" lon="4.37845">
        <ele>21.307</ele>
        <time>2012-08-12T09:25:55Z</time>
      </trkpt>
      <trkpt lat="50.99147" lon="4.37852">
        <ele>21.317</ele>
        <time>2012-08-12T09:25:54Z</time>
      </trkpt>
      <trkpt lat="50.99143" lon="4.37859">
        <ele>21.898</ele>
        <time>2012-08-12T09:25:53Z</time>
      </trkpt>
      <trkpt lat="50.99075" lon="4.37936">
        <ele>20.818</ele>
        <time>2012-08-12T09:25:39Z</time>
      </trkpt>
      <trkpt lat="50.98985" lon="4.38036">
        <ele>21.376</ele>
        <time>2012-08-12T09:25:21Z</time>
      </trkpt>
      <trkpt lat="50.98898" lon="4.38126">
        <ele>21.313</ele>
        <time>2012-08-12T09:25:05Z</time>
      </trkpt>
      <trkpt lat="50.98817" lon="4.38202">
        <ele>20.88</ele>
        <time>2012-08-12T09:24:50Z</time>
      </trkpt>
      <trkpt lat="50.98705" lon="4.38295">
        <ele>21.36</ele>
        <time>2012-08-12T09:24:30Z</time>
      </trkpt>
      <trkpt lat="50.98613" lon="4.38369">
        <ele>21.328</ele>
        <time>2012-08-12T09:24:14Z</time>
      </trkpt>
      <trkpt lat="50.98535" lon="4.38431">
        <ele>20.89</ele>
        <time>2012-08-12T09:24:00Z</time>
      </trkpt>
      <trkpt lat="50.98429" lon="4.38514">
        <ele>21.372</ele>
        <time>2012-08-12T09:23:41Z</time>
      </trkpt>
      <trkpt lat="50.98337" lon="4.38586">
        <ele>21.307</ele>
        <time>2012-08-12T09:23:24Z</time>
      </trkpt>
      <trkpt lat="50.98233" lon="4.38668">
        <ele>21.826</ele>
        <time>2012-08-12T09:23:05Z</time>
      </trkpt>
      <trkpt lat="50.98141" lon="4.38738">
        <ele>21.315</ele>
        <time>2012-08-12T09:22:48Z</time>
      </trkpt>
      <trkpt lat="50.98088" lon="4.38778">
        <ele>21.398</ele>
        <time>2012-08-12T09:22:37Z</time>
      </trkpt>
      <trkpt lat="50.98083" lon="4.3878">
        <ele>21.37</ele>
        <time>2012-08-12T09:22:36Z</time>
      </trkpt>
      <trkpt lat="50.98078" lon="4.38783">
        <ele>21.897</ele>
        <time>2012-08-12T09:22:35Z</time>
      </trkpt>
      <trkpt lat="50.98074" lon="4.38786">
        <ele>21.374</ele>
        <time>2012-08-12T09:22:34Z</time>
      </trkpt>
      <trkpt lat="50.9807" lon="4.3879">
        <ele>21.864</ele>
        <time>2012-08-12T09:22:33Z</time>
      </trkpt>
      <trkpt lat="50.98066" lon="4.38793">
        <ele>21.362</ele>
        <time>2012-08-12T09:22:32Z</time>
      </trkpt>
      <trkpt lat="50.98063" lon="4.38796">
        <ele>21.814</ele>
        <time>2012-08-12T09:22:31Z</time>
      </trkpt>
      <trkpt lat="50.98059" lon="4.38797">
        <ele>21.336</ele>
        <time>2012-08-12T09:22:30Z</time>
      </trkpt>
      <trkpt lat="50.98041" lon="4.38804">
        <ele>20.807</ele>
        <time>2012-08-12T09:22:26Z</time>
      </trkpt>
      <trkpt lat="50.98026" lon="4.38815">
        <ele>20.813</ele>
        <time>2012-08-12T09:22:22Z</time>
      </trkpt>
      <trkpt lat="50.98023" lon="4.38818">
        <ele>20.349</ele>
        <time>2012-08-12T09:22:21Z</time>
      </trkpt>
      <trkpt lat="50.9802" lon="4.38821">
        <ele>20.337</ele>
        <time>2012-08-12T09:22:20Z</time>
      </trkpt>
      <trkpt lat="50.98018" lon="4.38826">
        <ele>20.876</ele>
        <time>2012-08-12T09:22:19Z</time>
      </trkpt>
      <trkpt lat="50.98015" lon="4.38833">
        <ele>21.373</ele>
        <time>2012-08-12T09:22:18Z</time>
      </trkpt>
      <trkpt lat="50.98012" lon="4.3884">
        <ele>21.37</ele>
        <time>2012-08-12T09:22:17Z</time>
      </trkpt>
      <trkpt lat="50.9801" lon="4.38846">
        <ele>21.83</ele>
        <time>2012-08-12T09:22:16Z</time>
      </trkpt>
      <trkpt lat="50.9799" lon="4.38873">
        <ele>20.898</ele>
        <time>2012-08-12T09:22:11Z</time>
      </trkpt>
      <trkpt lat="50.97917" lon="4.38929">
        <ele>20.81</ele>
        <time>2012-08-12T09:21:55Z</time>
      </trkpt>
      <trkpt lat="50.97845" lon="4.38982">
        <ele>20.862</ele>
        <time>2012-08-12T09:21:38Z</time>
      </trkpt>
      <trkpt lat="50.97842" lon="4.38984">
        <ele>20.807</ele>
        <time>2012-08-12T09:21:37Z</time>
      </trkpt>
      <trkpt lat="50.97839" lon="4.38986">
        <ele>20.825</ele>
        <time>2012-08-12T09:21:36Z</time>
      </trkpt>
      <trkpt lat="50.97837" lon="4.38987">
        <ele>20.823</ele>
        <time>2012-08-12T09:21:35Z</time>
      </trkpt>
      <trkpt lat="50.97835" lon="4.38988">
        <ele>21.397</ele>
        <time>2012-08-12T09:21:34Z</time>
      </trkpt>
      <trkpt lat="50.97834" lon="4.38989">
        <ele>21.395</ele>
        <time>2012-08-12T09:21:33Z</time>
      </trkpt>
      <trkpt lat="50.97833" lon="4.38989">
        <ele>21.852</ele>
        <time>2012-08-12T09:21:28Z</time>
      </trkpt>
      <trkpt lat="50.97835" lon="4.3899">
        <ele>21.829</ele>
        <time>2012-08-12T09:20:55Z</time>
      </trkpt>
      <trkpt lat="50.97834" lon="4.38988">
        <ele>21.899</ele>
        <time>2012-08-12T09:20:23Z</time>
      </trkpt>
      <trkpt lat="50.97835" lon="4.3899">
        <ele>22.347</ele>
        <time>2012-08-12T09:20:00Z</time>
      </trkpt>
      <trkpt lat="50.97833" lon="4.38989">
        <ele>21.889</ele>
        <time>2012-08-12T09:19:38Z</time>
      </trkpt>
      <trkpt lat="50.97833" lon="4.38986">
        <ele>21.881</ele>
        <time>2012-08-12T09:19:27Z</time>
      </trkpt>
      <trkpt lat="50.97821" lon="4.38992">
        <ele>21.807</ele>
        <time>2012-08-12T09:19:21Z</time>
      </trkpt>
      <trkpt lat="50.97819" lon="4.38994">
        <ele>21.826</ele>
        <time>2012-08-12T09:19:20Z</time>
      </trkpt>
      <trkpt lat="50.97818" lon="4.38995">
        <ele>21.824</ele>
        <time>2012-08-12T09:19:19Z</time>
      </trkpt>
      <trkpt lat="50.97815" lon="4.38997">
        <ele>22.388</ele>
        <time>2012-08-12T09:19:14Z</time>
      </trkpt>
      <trkpt lat="50.97814" lon="4.38998">
        <ele>21.888</ele>
        <time>2012-08-12T09:19:13Z</time>
      </trkpt>
      <trkpt lat="50.97812" lon="4.39">
        <ele>21.895</ele>
        <time>2012-08-12T09:19:12Z</time>
      </trkpt>
      <trkpt lat="50.9781" lon="4.39003">
        <ele>21.862</ele>
        <time>2012-08-12T09:19:11Z</time>
      </trkpt>
      <trkpt lat="50.97808" lon="4.39007">
        <ele>21.312</ele>
        <time>2012-08-12T09:19:10Z</time>
      </trkpt>
      <trkpt lat="50.97805" lon="4.39012">
        <ele>21.85</ele>
        <time>2012-08-12T09:19:09Z</time>
      </trkpt>
      <trkpt lat="50.97801" lon="4.39017">
        <ele>22.342</ele>
        <time>2012-08-12T09:19:08Z</time>
      </trkpt>
      <trkpt lat="50.97792" lon="4.39025">
        <ele>21.814</ele>
        <time>2012-08-12T09:19:06Z</time>
      </trkpt>
      <trkpt lat="50.97703" lon="4.39096">
        <ele>22.307</ele>
        <time>2012-08-12T09:18:48Z</time>
      </trkpt>
      <trkpt lat="50.97559" lon="4.39208">
        <ele>22.305</ele>
        <time>2012-08-12T09:18:23Z</time>
      </trkpt>
      <trkpt lat="50.97462" lon="4.39279">
        <ele>22.332</ele>
        <time>2012-08-12T09:18:06Z</time>
      </trkpt>
      <trkpt lat="50.97372" lon="4.39345">
        <ele>23.212</ele>
        <time>2012-08-12T09:17:50Z</time>
      </trkpt>
      <trkpt lat="50.97349" lon="4.39356">
        <ele>22.759</ele>
        <time>2012-08-12T09:17:46Z</time>
      </trkpt>
      <trkpt lat="50.97343" lon="4.39357">
        <ele>23.236</ele>
        <time>2012-08-12T09:17:45Z</time>
      </trkpt>
      <trkpt lat="50.97338" lon="4.39357">
        <ele>22.793</ele>
        <time>2012-08-12T09:17:44Z</time>
      </trkpt>
      <trkpt lat="50.97332" lon="4.39357">
        <ele>23.733</ele>
        <time>2012-08-12T09:17:43Z</time>
      </trkpt>
      <trkpt lat="50.97326" lon="4.39357">
        <ele>23.221</ele>
        <time>2012-08-12T09:17:42Z</time>
      </trkpt>
      <trkpt lat="50.9732" lon="4.39358">
        <ele>23.223</ele>
        <time>2012-08-12T09:17:41Z</time>
      </trkpt>
      <trkpt lat="50.97315" lon="4.3936">
        <ele>23.275</ele>
        <time>2012-08-12T09:17:40Z</time>
      </trkpt>
      <trkpt lat="50.97257" lon="4.39408">
        <ele>23.207</ele>
        <time>2012-08-12T09:17:29Z</time>
      </trkpt>
      <trkpt lat="50.97181" lon="4.39469">
        <ele>23.22</ele>
        <time>2012-08-12T09:17:15Z</time>
      </trkpt>
      <trkpt lat="50.97117" lon="4.39515">
        <ele>22.3</ele>
        <time>2012-08-12T09:17:02Z</time>
      </trkpt>
      <trkpt lat="50.97058" lon="4.39547">
        <ele>22.729</ele>
        <time>2012-08-12T09:16:50Z</time>
      </trkpt>
      <trkpt lat="50.97053" lon="4.39549">
        <ele>22.753</ele>
        <time>2012-08-12T09:16:49Z</time>
      </trkpt>
      <trkpt lat="50.97049" lon="4.39551">
        <ele>23.29</ele>
        <time>2012-08-12T09:16:48Z</time>
      </trkpt>
      <trkpt lat="50.97036" lon="4.39562">
        <ele>23.257</ele>
        <time>2012-08-12T09:16:45Z</time>
      </trkpt>
      <trkpt lat="50.97031" lon="4.39566">
        <ele>23.797</ele>
        <time>2012-08-12T09:16:44Z</time>
      </trkpt>
      <trkpt lat="50.97005" lon="4.39584">
        <ele>24.775</ele>
        <time>2012-08-12T09:16:39Z</time>
      </trkpt>
      <trkpt lat="50.96951" lon="4.39625">
        <ele>24.237</ele>
        <time>2012-08-12T09:16:27Z</time>
      </trkpt>
      <trkpt lat="50.96854" lon="4.39701">
        <ele>24.279</ele>
        <time>2012-08-12T09:16:09Z</time>
      </trkpt>
      <trkpt lat="50.96755" lon="4.39779">
        <ele>23.707</ele>
        <time>2012-08-12T09:15:51Z</time>
      </trkpt>
      <trkpt lat="50.96653" lon="4.39859">
        <ele>24.714</ele>
        <time>2012-08-12T09:15:32Z</time>
      </trkpt>
      <trkpt lat="50.96565" lon="4.39929">
        <ele>25.168</ele>
        <time>2012-08-12T09:15:16Z</time>
      </trkpt>
      <trkpt lat="50.9644" lon="4.40027">
        <ele>24.765</ele>
        <time>2012-08-12T09:14:54Z</time>
      </trkpt>
      <trkpt lat="50.96332" lon="4.40113">
        <ele>25.195</ele>
        <time>2012-08-12T09:14:34Z</time>
      </trkpt>
      <trkpt lat="50.9621" lon="4.40208">
        <ele>26.192</ele>
        <time>2012-08-12T09:14:12Z</time>
      </trkpt>
      <trkpt lat="50.96103" lon="4.40283">
        <ele>25.669</ele>
        <time>2012-08-12T09:13:53Z</time>
      </trkpt>
      <trkpt lat="50.95998" lon="4.40359">
        <ele>25.159</ele>
        <time>2012-08-12T09:13:34Z</time>
      </trkpt>
      <trkpt lat="50.95885" lon="4.4044">
        <ele>25.167</ele>
        <time>2012-08-12T09:13:14Z</time>
      </trkpt>
      <trkpt lat="50.95798" lon="4.405">
        <ele>25.619</ele>
        <time>2012-08-12T09:12:58Z</time>
      </trkpt>
      <trkpt lat="50.95718" lon="4.40558">
        <ele>26.131</ele>
        <time>2012-08-12T09:12:40Z</time>
      </trkpt>
      <trkpt lat="50.95664" lon="4.40597">
        <ele>26.107</ele>
        <time>2012-08-12T09:12:25Z</time>
      </trkpt>
      <trkpt lat="50.95649" lon="4.40608">
        <ele>25.606</ele>
        <time>2012-08-12T09:11:50Z</time>
      </trkpt>
      <trkpt lat="50.95649" lon="4.4061">
        <ele>26.189</ele>
        <time>2012-08-12T09:11:16Z</time>
      </trkpt>
      <trkpt lat="50.95649" lon="4.40611">
        <ele>25.613</ele>
        <time>2012-08-12T09:10:46Z</time>
      </trkpt>
      <trkpt lat="50.9565" lon="4.4061">
        <ele>26.16</ele>
        <time>2012-08-12T09:10:16Z</time>
      </trkpt>
      <trkpt lat="50.95649" lon="4.40611">
        <ele>26.167</ele>
        <time>2012-08-12T09:09:44Z</time>
      </trkpt>
      <trkpt lat="50.95649" lon="4.4061">
        <ele>26.635</ele>
        <time>2012-08-12T09:08:34Z</time>
      </trkpt>
      <trkpt lat="50.95648" lon="4.4061">
        <ele>26.617</ele>
        <time>2012-08-12T09:08:18Z</time>
      </trkpt>
      <trkpt lat="50.95648" lon="4.40608">
        <ele>26.699</ele>
        <time>2012-08-12T09:07:43Z</time>
      </trkpt>
      <trkpt lat="50.95623" lon="4.40629">
        <ele>27.107</ele>
        <time>2012-08-12T09:07:32Z</time>
      </trkpt>
      <trkpt lat="50.9562" lon="4.40632">
        <ele>27.126</ele>
        <time>2012-08-12T09:07:31Z</time>
      </trkpt>
      <trkpt lat="50.9561" lon="4.40649">
        <ele>26.142</ele>
        <time>2012-08-12T09:07:28Z</time>
      </trkpt>
      <trkpt lat="50.95606" lon="4.40656">
        <ele>25.168</ele>
        <time>2012-08-12T09:07:27Z</time>
      </trkpt>
      <trkpt lat="50.95601" lon="4.40663">
        <ele>25.68</ele>
        <time>2012-08-12T09:07:26Z</time>
      </trkpt>
      <trkpt lat="50.95512" lon="4.40731">
        <ele>25.687</ele>
        <time>2012-08-12T09:07:11Z</time>
      </trkpt>
      <trkpt lat="50.95446" lon="4.40781">
        <ele>25.674</ele>
        <time>2012-08-12T09:07:00Z</time>
      </trkpt>
      <trkpt lat="50.95351" lon="4.40849">
        <ele>25.114</ele>
        <time>2012-08-12T09:06:44Z</time>
      </trkpt>
      <trkpt lat="50.95254" lon="4.40921">
        <ele>25.632</ele>
        <time>2012-08-12T09:06:27Z</time>
      </trkpt>
      <trkpt lat="50.95171" lon="4.40984">
        <ele>25.674</ele>
        <time>2012-08-12T09:06:12Z</time>
      </trkpt>
      <trkpt lat="50.95087" lon="4.41046">
        <ele>25.656</ele>
        <time>2012-08-12T09:05:56Z</time>
      </trkpt>
      <trkpt lat="50.95062" lon="4.41067">
        <ele>25.607</ele>
        <time>2012-08-12T09:05:51Z</time>
      </trkpt>
      <trkpt lat="50.94974" lon="4.41139">
        <ele>26.615</ele>
        <time>2012-08-12T09:05:36Z</time>
      </trkpt>
      <trkpt lat="50.94918" lon="4.41183">
        <ele>26.123</ele>
        <time>2012-08-12T09:05:24Z</time>
      </trkpt>
      <trkpt lat="50.9485" lon="4.41233">
        <ele>26.133</ele>
        <time>2012-08-12T09:05:11Z</time>
      </trkpt>
      <trkpt lat="50.9479" lon="4.41279">
        <ele>25.681</ele>
        <time>2012-08-12T09:05:00Z</time>
      </trkpt>
      <trkpt lat="50.94786" lon="4.41282">
        <ele>25.148</ele>
        <time>2012-08-12T09:04:59Z</time>
      </trkpt>
      <trkpt lat="50.9478" lon="4.4129">
        <ele>25.615</ele>
        <time>2012-08-12T09:04:57Z</time>
      </trkpt>
      <trkpt lat="50.94778" lon="4.41293">
        <ele>25.615</ele>
        <time>2012-08-12T09:04:56Z</time>
      </trkpt>
      <trkpt lat="50.94776" lon="4.41296">
        <ele>24.733</ele>
        <time>2012-08-12T09:04:55Z</time>
      </trkpt>
      <trkpt lat="50.94773" lon="4.41296">
        <ele>25.175</ele>
        <time>2012-08-12T09:04:54Z</time>
      </trkpt>
      <trkpt lat="50.94771" lon="4.41294">
        <ele>24.737</ele>
        <time>2012-08-12T09:04:53Z</time>
      </trkpt>
      <trkpt lat="50.94769" lon="4.41292">
        <ele>25.107</ele>
        <time>2012-08-12T09:04:52Z</time>
      </trkpt>
      <trkpt lat="50.94766" lon="4.41291">
        <ele>24.721</ele>
        <time>2012-08-12T09:04:51Z</time>
      </trkpt>
      <trkpt lat="50.94762" lon="4.41291">
        <ele>24.729</ele>
        <time>2012-08-12T09:04:50Z</time>
      </trkpt>
      <trkpt lat="50.94758" lon="4.41293">
        <ele>24.747</ele>
        <time>2012-08-12T09:04:49Z</time>
      </trkpt>
      <trkpt lat="50.94753" lon="4.41296">
        <ele>25.174</ele>
        <time>2012-08-12T09:04:48Z</time>
      </trkpt>
      <trkpt lat="50.94745" lon="4.41306">
        <ele>25.161</ele>
        <time>2012-08-12T09:04:46Z</time>
      </trkpt>
      <trkpt lat="50.94653" lon="4.41377">
        <ele>26.168</ele>
        <time>2012-08-12T09:04:29Z</time>
      </trkpt>
      <trkpt lat="50.94612" lon="4.41404">
        <ele>26.188</ele>
        <time>2012-08-12T09:04:22Z</time>
      </trkpt>
      <trkpt lat="50.94505" lon="4.4146">
        <ele>25.696</ele>
        <time>2012-08-12T09:04:04Z</time>
      </trkpt>
      <trkpt lat="50.94398" lon="4.41504">
        <ele>25.688</ele>
        <time>2012-08-12T09:03:46Z</time>
      </trkpt>
      <trkpt lat="50.94387" lon="4.41507">
        <ele>25.69</ele>
        <time>2012-08-12T09:03:44Z</time>
      </trkpt>
      <trkpt lat="50.94304" lon="4.41529">
        <ele>25.607</ele>
        <time>2012-08-12T09:03:30Z</time>
      </trkpt>
      <trkpt lat="50.94181" lon="4.41545">
        <ele>26.12</ele>
        <time>2012-08-12T09:03:10Z</time>
      </trkpt>
      <trkpt lat="50.9406" lon="4.41539">
        <ele>25.628</ele>
        <time>2012-08-12T09:02:50Z</time>
      </trkpt>
      <trkpt lat="50.93947" lon="4.41517">
        <ele>25.675</ele>
        <time>2012-08-12T09:02:31Z</time>
      </trkpt>
      <trkpt lat="50.93842" lon="4.41483">
        <ele>25.654</ele>
        <time>2012-08-12T09:02:13Z</time>
      </trkpt>
      <trkpt lat="50.93739" lon="4.41426">
        <ele>25.191</ele>
        <time>2012-08-12T09:01:54Z</time>
      </trkpt>
      <trkpt lat="50.9369" lon="4.41396">
        <ele>25.158</ele>
        <time>2012-08-12T09:01:45Z</time>
      </trkpt>
      <trkpt lat="50.93618" lon="4.41351">
        <ele>25.128</ele>
        <time>2012-08-12T09:01:30Z</time>
      </trkpt>
      <trkpt lat="50.93509" lon="4.41286">
        <ele>25.616</ele>
        <time>2012-08-12T09:01:10Z</time>
      </trkpt>
      <trkpt lat="50.93385" lon="4.41223">
        <ele>25.658</ele>
        <time>2012-08-12T09:00:49Z</time>
      </trkpt>
      <trkpt lat="50.93273" lon="4.4117">
        <ele>25.63</ele>
        <time>2012-08-12T09:00:29Z</time>
      </trkpt>
      <trkpt lat="50.93183" lon="4.4115">
        <ele>25.607</ele>
        <time>2012-08-12T09:00:14Z</time>
      </trkpt>
      <trkpt lat="50.93105" lon="4.41152">
        <ele>26.127</ele>
        <time>2012-08-12T09:00:01Z</time>
      </trkpt>
      <trkpt lat="50.9308" lon="4.41157">
        <ele>26.161</ele>
        <time>2012-08-12T08:59:57Z</time>
      </trkpt>
      <trkpt lat="50.92986" lon="4.41187">
        <ele>26.177</ele>
        <time>2012-08-12T08:59:42Z</time>
      </trkpt>
      <trkpt lat="50.92903" lon="4.41236">
        <ele>26.131</ele>
        <time>2012-08-12T08:59:28Z</time>
      </trkpt>
      <trkpt lat="50.92801" lon="4.41353">
        <ele>26.188</ele>
        <time>2012-08-12T08:59:08Z</time>
      </trkpt>
      <trkpt lat="50.92727" lon="4.41457">
        <ele>26.165</ele>
        <time>2012-08-12T08:58:52Z</time>
      </trkpt>
      <trkpt lat="50.92723" lon="4.41464">
        <ele>26.655</ele>
        <time>2012-08-12T08:58:51Z</time>
      </trkpt>
      <trkpt lat="50.9272" lon="4.4147">
        <ele>26.683</ele>
        <time>2012-08-12T08:58:50Z</time>
      </trkpt>
      <trkpt lat="50.92718" lon="4.41477">
        <ele>26.635</ele>
        <time>2012-08-12T08:58:49Z</time>
      </trkpt>
      <trkpt lat="50.92717" lon="4.41485">
        <ele>26.697</ele>
        <time>2012-08-12T08:58:48Z</time>
      </trkpt>
      <trkpt lat="50.92716" lon="4.41494">
        <ele>26.607</ele>
        <time>2012-08-12T08:58:47Z</time>
      </trkpt>
      <trkpt lat="50.92714" lon="4.41502">
        <ele>26.616</ele>
        <time>2012-08-12T08:58:46Z</time>
      </trkpt>
      <trkpt lat="50.92674" lon="4.41551">
        <ele>27.188</ele>
        <time>2012-08-12T08:58:37Z</time>
      </trkpt>
      <trkpt lat="50.92593" lon="4.41638">
        <ele>28.546</ele>
        <time>2012-08-12T08:58:22Z</time>
      </trkpt>
      <trkpt lat="50.92588" lon="4.41643">
        <ele>29.048</ele>
        <time>2012-08-12T08:58:21Z</time>
      </trkpt>
      <trkpt lat="50.92583" lon="4.41648">
        <ele>29.535</ele>
        <time>2012-08-12T08:58:20Z</time>
      </trkpt>
      <trkpt lat="50.9258" lon="4.41655">
        <ele>29.052</ele>
        <time>2012-08-12T08:58:19Z</time>
      </trkpt>
      <trkpt lat="50.92576" lon="4.41661">
        <ele>29.032</ele>
        <time>2012-08-12T08:58:18Z</time>
      </trkpt>
      <trkpt lat="50.92571" lon="4.41667">
        <ele>29.52</ele>
        <time>2012-08-12T08:58:17Z</time>
      </trkpt>
      <trkpt lat="50.92566" lon="4.41671">
        <ele>29.012</ele>
        <time>2012-08-12T08:58:16Z</time>
      </trkpt>
      <trkpt lat="50.92561" lon="4.41674">
        <ele>29.014</ele>
        <time>2012-08-12T08:58:15Z</time>
      </trkpt>
      <trkpt lat="50.92508" lon="4.41718">
        <ele>29.007</ele>
        <time>2012-08-12T08:58:04Z</time>
      </trkpt>
      <trkpt lat="50.92435" lon="4.41769">
        <ele>29.017</ele>
        <time>2012-08-12T08:57:50Z</time>
      </trkpt>
      <trkpt lat="50.92383" lon="4.41806">
        <ele>28.598</ele>
        <time>2012-08-12T08:57:40Z</time>
      </trkpt>
      <trkpt lat="50.92301" lon="4.41854">
        <ele>28.018</ele>
        <time>2012-08-12T08:57:25Z</time>
      </trkpt>
      <trkpt lat="50.92218" lon="4.41885">
        <ele>27.172</ele>
        <time>2012-08-12T08:57:10Z</time>
      </trkpt>
      <trkpt lat="50.92114" lon="4.41903">
        <ele>27.159</ele>
        <time>2012-08-12T08:56:52Z</time>
      </trkpt>
      <trkpt lat="50.92027" lon="4.41901">
        <ele>27.126</ele>
        <time>2012-08-12T08:56:37Z</time>
      </trkpt>
      <trkpt lat="50.91932" lon="4.41881">
        <ele>27.596</ele>
        <time>2012-08-12T08:56:20Z</time>
      </trkpt>
      <trkpt lat="50.91829" lon="4.41845">
        <ele>26.614</ele>
        <time>2012-08-12T08:56:02Z</time>
      </trkpt>
      <trkpt lat="50.91823" lon="4.41844">
        <ele>26.626</ele>
        <time>2012-08-12T08:56:01Z</time>
      </trkpt>
      <trkpt lat="50.91818" lon="4.41842">
        <ele>26.678</ele>
        <time>2012-08-12T08:56:00Z</time>
      </trkpt>
      <trkpt lat="50.91814" lon="4.41838">
        <ele>27.107</ele>
        <time>2012-08-12T08:55:59Z</time>
      </trkpt>
      <trkpt lat="50.9181" lon="4.41834">
        <ele>26.62</ele>
        <time>2012-08-12T08:55:58Z</time>
      </trkpt>
      <trkpt lat="50.91786" lon="4.41815">
        <ele>26.6</ele>
        <time>2012-08-12T08:55:53Z</time>
      </trkpt>
      <trkpt lat="50.91781" lon="4.41811">
        <ele>26.657</ele>
        <time>2012-08-12T08:55:52Z</time>
      </trkpt>
      <trkpt lat="50.91776" lon="4.41806">
        <ele>26.633</ele>
        <time>2012-08-12T08:55:51Z</time>
      </trkpt>
      <trkpt lat="50.91737" lon="4.41775">
        <ele>27.15</ele>
        <time>2012-08-12T08:55:44Z</time>
      </trkpt>
      <trkpt lat="50.91731" lon="4.41772">
        <ele>26.647</ele>
        <time>2012-08-12T08:55:43Z</time>
      </trkpt>
      <trkpt lat="50.91725" lon="4.41769">
        <ele>27.567</ele>
        <time>2012-08-12T08:55:42Z</time>
      </trkpt>
      <trkpt lat="50.91714" lon="4.41761">
        <ele>27.515</ele>
        <time>2012-08-12T08:55:40Z</time>
      </trkpt>
      <trkpt lat="50.91709" lon="4.41756">
        <ele>27.177</ele>
        <time>2012-08-12T08:55:39Z</time>
      </trkpt>
      <trkpt lat="50.91697" lon="4.41751">
        <ele>26.679</ele>
        <time>2012-08-12T08:55:37Z</time>
      </trkpt>
      <trkpt lat="50.91604" lon="4.4168">
        <ele>27.507</ele>
        <time>2012-08-12T08:55:20Z</time>
      </trkpt>
      <trkpt lat="50.9152" lon="4.41615">
        <ele>28.514</ele>
        <time>2012-08-12T08:55:05Z</time>
      </trkpt>
      <trkpt lat="50.9143" lon="4.41535">
        <ele>29.068</ele>
        <time>2012-08-12T08:54:48Z</time>
      </trkpt>
      <trkpt lat="50.91349" lon="4.41462">
        <ele>29.065</ele>
        <time>2012-08-12T08:54:32Z</time>
      </trkpt>
      <trkpt lat="50.91344" lon="4.41457">
        <ele>29.546</ele>
        <time>2012-08-12T08:54:31Z</time>
      </trkpt>
      <trkpt lat="50.91339" lon="4.41452">
        <ele>29.053</ele>
        <time>2012-08-12T08:54:30Z</time>
      </trkpt>
      <trkpt lat="50.91334" lon="4.41447">
        <ele>28.57</ele>
        <time>2012-08-12T08:54:29Z</time>
      </trkpt>
      <trkpt lat="50.9133" lon="4.41441">
        <ele>29.06</ele>
        <time>2012-08-12T08:54:28Z</time>
      </trkpt>
      <trkpt lat="50.9132" lon="4.4143">
        <ele>29.028</ele>
        <time>2012-08-12T08:54:26Z</time>
      </trkpt>
      <trkpt lat="50.91242" lon="4.4136">
        <ele>29.09</ele>
        <time>2012-08-12T08:54:11Z</time>
      </trkpt>
      <trkpt lat="50.91169" lon="4.41302">
        <ele>29.062</ele>
        <time>2012-08-12T08:53:57Z</time>
      </trkpt>
      <trkpt lat="50.91161" lon="4.41294">
        <ele>29.007</ele>
        <time>2012-08-12T08:53:55Z</time>
      </trkpt>
      <trkpt lat="50.91157" lon="4.4129">
        <ele>29.022</ele>
        <time>2012-08-12T08:53:54Z</time>
      </trkpt>
      <trkpt lat="50.91153" lon="4.41288">
        <ele>29.057</ele>
        <time>2012-08-12T08:53:53Z</time>
      </trkpt>
      <trkpt lat="50.91148" lon="4.41287">
        <ele>29.094</ele>
        <time>2012-08-12T08:53:52Z</time>
      </trkpt>
      <trkpt lat="50.91144" lon="4.41285">
        <ele>29.058</ele>
        <time>2012-08-12T08:53:51Z</time>
      </trkpt>
      <trkpt lat="50.9114" lon="4.41282">
        <ele>29.025</ele>
        <time>2012-08-12T08:53:50Z</time>
      </trkpt>
      <trkpt lat="50.91136" lon="4.41275">
        <ele>29.032</ele>
        <time>2012-08-12T08:53:49Z</time>
      </trkpt>
      <trkpt lat="50.91134" lon="4.41267">
        <ele>29.592</ele>
        <time>2012-08-12T08:53:48Z</time>
      </trkpt>
      <trkpt lat="50.91133" lon="4.41258">
        <ele>29.57</ele>
        <time>2012-08-12T08:53:47Z</time>
      </trkpt>
      <trkpt lat="50.91135" lon="4.4124">
        <ele>29.592</ele>
        <time>2012-08-12T08:53:45Z</time>
      </trkpt>
      <trkpt lat="50.91156" lon="4.41164">
        <ele>30.934</ele>
        <time>2012-08-12T08:53:37Z</time>
      </trkpt>
      <trkpt lat="50.91162" lon="4.41116">
        <ele>32.307</ele>
        <time>2012-08-12T08:53:32Z</time>
      </trkpt>
      <trkpt lat="50.91154" lon="4.41059">
        <ele>32.819</ele>
        <time>2012-08-12T08:53:26Z</time>
      </trkpt>
      <trkpt lat="50.91143" lon="4.41015">
        <ele>32.309</ele>
        <time>2012-08-12T08:53:21Z</time>
      </trkpt>
      <trkpt lat="50.91089" lon="4.40892">
        <ele>32.319</ele>
        <time>2012-08-12T08:53:05Z</time>
      </trkpt>
      <trkpt lat="50.91006" lon="4.40803">
        <ele>32.85</ele>
        <time>2012-08-12T08:52:48Z</time>
      </trkpt>
      <trkpt lat="50.90887" lon="4.40707">
        <ele>32.897</ele>
        <time>2012-08-12T08:52:26Z</time>
      </trkpt>
      <trkpt lat="50.9079" lon="4.40629">
        <ele>33.354</ele>
        <time>2012-08-12T08:52:08Z</time>
      </trkpt>
      <trkpt lat="50.90677" lon="4.40556">
        <ele>33.344</ele>
        <time>2012-08-12T08:51:48Z</time>
      </trkpt>
      <trkpt lat="50.90567" lon="4.40491">
        <ele>33.392</ele>
        <time>2012-08-12T08:51:27Z</time>
      </trkpt>
      <trkpt lat="50.90553" lon="4.40489">
        <ele>33.334</ele>
        <time>2012-08-12T08:51:24Z</time>
      </trkpt>
      <trkpt lat="50.9055" lon="4.40494">
        <ele>33.326</ele>
        <time>2012-08-12T08:51:23Z</time>
      </trkpt>
      <trkpt lat="50.90547" lon="4.405">
        <ele>33.307</ele>
        <time>2012-08-12T08:51:22Z</time>
      </trkpt>
      <trkpt lat="50.90528" lon="4.406">
        <ele>31.411</ele>
        <time>2012-08-12T08:51:09Z</time>
      </trkpt>
      <trkpt lat="50.90492" lon="4.40721">
        <ele>30.492</ele>
        <time>2012-08-12T08:50:52Z</time>
      </trkpt>
      <trkpt lat="50.90489" lon="4.40733">
        <ele>30.432</ele>
        <time>2012-08-12T08:50:50Z</time>
      </trkpt>
      <trkpt lat="50.90487" lon="4.40738">
        <ele>30.446</ele>
        <time>2012-08-12T08:50:49Z</time>
      </trkpt>
      <trkpt lat="50.90485" lon="4.40744">
        <ele>30.443</ele>
        <time>2012-08-12T08:50:48Z</time>
      </trkpt>
      <trkpt lat="50.90483" lon="4.40747">
        <ele>30.41</ele>
        <time>2012-08-12T08:50:47Z</time>
      </trkpt>
      <trkpt lat="50.90481" lon="4.40749">
        <ele>29.92</ele>
        <time>2012-08-12T08:50:46Z</time>
      </trkpt>
      <trkpt lat="50.90455" lon="4.40729">
        <ele>29.968</ele>
        <time>2012-08-12T08:50:35Z</time>
      </trkpt>
      <trkpt lat="50.90384" lon="4.40673">
        <ele>29.92</ele>
        <time>2012-08-12T08:50:18Z</time>
      </trkpt>
      <trkpt lat="50.90282" lon="4.40593">
        <ele>29.982</ele>
        <time>2012-08-12T08:49:58Z</time>
      </trkpt>
      <trkpt lat="50.9016" lon="4.40497">
        <ele>29.907</ele>
        <time>2012-08-12T08:49:35Z</time>
      </trkpt>
      <trkpt lat="50.90063" lon="4.4042">
        <ele>29.92</ele>
        <time>2012-08-12T08:49:17Z</time>
      </trkpt>
      <trkpt lat="50.89974" lon="4.40349">
        <ele>29.973</ele>
        <time>2012-08-12T08:49:00Z</time>
      </trkpt>
      <trkpt lat="50.89918" lon="4.40303">
        <ele>30.492</ele>
        <time>2012-08-12T08:48:49Z</time>
      </trkpt>
      <trkpt lat="50.89843" lon="4.40245">
        <ele>30.485</ele>
        <time>2012-08-12T08:48:34Z</time>
      </trkpt>
      <trkpt lat="50.89837" lon="4.40241">
        <ele>30.442</ele>
        <time>2012-08-12T08:48:33Z</time>
      </trkpt>
      <trkpt lat="50.89802" lon="4.40213">
        <ele>30.989</ele>
        <time>2012-08-12T08:48:26Z</time>
      </trkpt>
      <trkpt lat="50.89797" lon="4.40209">
        <ele>31.449</ele>
        <time>2012-08-12T08:48:25Z</time>
      </trkpt>
      <trkpt lat="50.89783" lon="4.40197">
        <ele>30.457</ele>
        <time>2012-08-12T08:48:22Z</time>
      </trkpt>
      <trkpt lat="50.89677" lon="4.40109">
        <ele>30.949</ele>
        <time>2012-08-12T08:48:02Z</time>
      </trkpt>
      <trkpt lat="50.89606" lon="4.40037">
        <ele>31.491</ele>
        <time>2012-08-12T08:47:48Z</time>
      </trkpt>
      <trkpt lat="50.895" lon="4.39921">
        <ele>31.407</ele>
        <time>2012-08-12T08:47:26Z</time>
      </trkpt>
      <trkpt lat="50.8941" lon="4.39822">
        <ele>31.926</ele>
        <time>2012-08-12T08:47:07Z</time>
      </trkpt>
      <trkpt lat="50.89373" lon="4.39776">
        <ele>32.324</ele>
        <time>2012-08-12T08:46:59Z</time>
      </trkpt>
      <trkpt lat="50.89287" lon="4.39682">
        <ele>31.988</ele>
        <time>2012-08-12T08:46:41Z</time>
      </trkpt>
      <trkpt lat="50.89193" lon="4.3958">
        <ele>31.926</ele>
        <time>2012-08-12T08:46:21Z</time>
      </trkpt>
      <trkpt lat="50.89119" lon="4.39475">
        <ele>32.313</ele>
        <time>2012-08-12T08:46:04Z</time>
      </trkpt>
      <trkpt lat="50.89063" lon="4.39366">
        <ele>32.33</ele>
        <time>2012-08-12T08:45:49Z</time>
      </trkpt>
      <trkpt lat="50.89034" lon="4.39233">
        <ele>32.32</ele>
        <time>2012-08-12T08:45:34Z</time>
      </trkpt>
      <trkpt lat="50.89035" lon="4.39084">
        <ele>32.378</ele>
        <time>2012-08-12T08:45:18Z</time>
      </trkpt>
      <trkpt lat="50.89027" lon="4.38959">
        <ele>32.35</ele>
        <time>2012-08-12T08:45:04Z</time>
      </trkpt>
      <trkpt lat="50.88978" lon="4.38834">
        <ele>32.362</ele>
        <time>2012-08-12T08:44:48Z</time>
      </trkpt>
      <trkpt lat="50.88909" lon="4.38747">
        <ele>32.307</ele>
        <time>2012-08-12T08:44:32Z</time>
      </trkpt>
      <trkpt lat="50.88849" lon="4.38635">
        <ele>32.324</ele>
        <time>2012-08-12T08:44:16Z</time>
      </trkpt>
      <trkpt lat="50.88846" lon="4.38627">
        <ele>32.331</ele>
        <time>2012-08-12T08:44:15Z</time>
      </trkpt>
      <trkpt lat="50.88799" lon="4.3852">
        <ele>32.396</ele>
        <time>2012-08-12T08:44:01Z</time>
      </trkpt>
      <trkpt lat="50.88796" lon="4.38512">
        <ele>32.34</ele>
        <time>2012-08-12T08:44:00Z</time>
      </trkpt>
      <trkpt lat="50.88793" lon="4.38496">
        <ele>32.377</ele>
        <time>2012-08-12T08:43:58Z</time>
      </trkpt>
      <trkpt lat="50.88791" lon="4.38487">
        <ele>32.374</ele>
        <time>2012-08-12T08:43:57Z</time>
      </trkpt>
      <trkpt lat="50.88765" lon="4.38424">
        <ele>32.844</ele>
        <time>2012-08-12T08:43:49Z</time>
      </trkpt>
      <trkpt lat="50.88703" lon="4.38278">
        <ele>32.882</ele>
        <time>2012-08-12T08:43:30Z</time>
      </trkpt>
      <trkpt lat="50.88699" lon="4.3827">
        <ele>32.854</ele>
        <time>2012-08-12T08:43:29Z</time>
      </trkpt>
      <trkpt lat="50.88695" lon="4.38263">
        <ele>33.376</ele>
        <time>2012-08-12T08:43:28Z</time>
      </trkpt>
      <trkpt lat="50.88691" lon="4.38255">
        <ele>32.807</ele>
        <time>2012-08-12T08:43:27Z</time>
      </trkpt>
      <trkpt lat="50.88687" lon="4.38249">
        <ele>32.815</ele>
        <time>2012-08-12T08:43:26Z</time>
      </trkpt>
      <trkpt lat="50.88682" lon="4.38242">
        <ele>33.323</ele>
        <time>2012-08-12T08:43:25Z</time>
      </trkpt>
      <trkpt lat="50.88668" lon="4.38211">
        <ele>33.333</ele>
        <time>2012-08-12T08:43:21Z</time>
      </trkpt>
      <trkpt lat="50.88663" lon="4.38194">
        <ele>33.874</ele>
        <time>2012-08-12T08:43:19Z</time>
      </trkpt>
      <trkpt lat="50.88659" lon="4.38177">
        <ele>33.891</ele>
        <time>2012-08-12T08:43:17Z</time>
      </trkpt>
      <trkpt lat="50.88637" lon="4.3812">
        <ele>33.388</ele>
        <time>2012-08-12T08:43:10Z</time>
      </trkpt>
      <trkpt lat="50.88583" lon="4.37992">
        <ele>34.368</ele>
        <time>2012-08-12T08:42:54Z</time>
      </trkpt>
      <trkpt lat="50.88535" lon="4.37885">
        <ele>34.376</ele>
        <time>2012-08-12T08:42:40Z</time>
      </trkpt>
      <trkpt lat="50.88532" lon="4.37879">
        <ele>34.738</ele>
        <time>2012-08-12T08:42:39Z</time>
      </trkpt>
      <trkpt lat="50.88528" lon="4.37873">
        <ele>34.34</ele>
        <time>2012-08-12T08:42:38Z</time>
      </trkpt>
      <trkpt lat="50.88525" lon="4.37869">
        <ele>34.307</ele>
        <time>2012-08-12T08:42:37Z</time>
      </trkpt>
      <trkpt lat="50.88521" lon="4.37866">
        <ele>34.721</ele>
        <time>2012-08-12T08:42:36Z</time>
      </trkpt>
      <trkpt lat="50.88518" lon="4.37866">
        <ele>34.756</ele>
        <time>2012-08-12T08:42:35Z</time>
      </trkpt>
      <trkpt lat="50.88513" lon="4.37866">
        <ele>35.274</ele>
        <time>2012-08-12T08:42:34Z</time>
      </trkpt>
      <trkpt lat="50.88507" lon="4.37865">
        <ele>35.251</ele>
        <time>2012-08-12T08:42:33Z</time>
      </trkpt>
      <trkpt lat="50.88491" lon="4.37853">
        <ele>35.748</ele>
        <time>2012-08-12T08:42:30Z</time>
      </trkpt>
      <trkpt lat="50.88486" lon="4.37848">
        <ele>36.255</ele>
        <time>2012-08-12T08:42:29Z</time>
      </trkpt>
      <trkpt lat="50.88474" lon="4.37841">
        <ele>36.795</ele>
        <time>2012-08-12T08:42:27Z</time>
      </trkpt>
      <trkpt lat="50.88468" lon="4.37838">
        <ele>36.253</ele>
        <time>2012-08-12T08:42:26Z</time>
      </trkpt>
      <trkpt lat="50.88403" lon="4.37774">
        <ele>37.695</ele>
        <time>2012-08-12T08:42:13Z</time>
      </trkpt>
      <trkpt lat="50.8835" lon="4.37668">
        <ele>38.677</ele>
        <time>2012-08-12T08:41:57Z</time>
      </trkpt>
      <trkpt lat="50.88297" lon="4.37549">
        <ele>38.607</ele>
        <time>2012-08-12T08:41:39Z</time>
      </trkpt>
      <trkpt lat="50.88263" lon="4.37491">
        <ele>39.114</ele>
        <time>2012-08-12T08:41:29Z</time>
      </trkpt>
      <trkpt lat="50.88259" lon="4.37486">
        <ele>38.622</ele>
        <time>2012-08-12T08:41:28Z</time>
      </trkpt>
      <trkpt lat="50.88229" lon="4.37452">
        <ele>38.642</ele>
        <time>2012-08-12T08:41:21Z</time>
      </trkpt>
      <trkpt lat="50.88225" lon="4.37448">
        <ele>38.613</ele>
        <time>2012-08-12T08:41:20Z</time>
      </trkpt>
      <trkpt lat="50.8822" lon="4.37444">
        <ele>38.68</ele>
        <time>2012-08-12T08:41:19Z</time>
      </trkpt>
      <trkpt lat="50.88216" lon="4.3744">
        <ele>39.127</ele>
        <time>2012-08-12T08:41:18Z</time>
      </trkpt>
      <trkpt lat="50.88212" lon="4.37436">
        <ele>38.697</ele>
        <time>2012-08-12T08:41:17Z</time>
      </trkpt>
      <trkpt lat="50.88172" lon="4.37392">
        <ele>39.125</ele>
        <time>2012-08-12T08:41:05Z</time>
      </trkpt>
      <trkpt lat="50.88168" lon="4.3739">
        <ele>38.147</ele>
        <time>2012-08-12T08:41:04Z</time>
      </trkpt>
      <trkpt lat="50.8816" lon="4.37389">
        <ele>38.629</ele>
        <time>2012-08-12T08:41:02Z</time>
      </trkpt>
      <trkpt lat="50.88156" lon="4.37388">
        <ele>39.107</ele>
        <time>2012-08-12T08:41:01Z</time>
      </trkpt>
      <trkpt lat="50.88152" lon="4.37386">
        <ele>39.114</ele>
        <time>2012-08-12T08:41:00Z</time>
      </trkpt>
      <trkpt lat="50.88147" lon="4.37377">
        <ele>39.168</ele>
        <time>2012-08-12T08:40:58Z</time>
      </trkpt>
      <trkpt lat="50.88145" lon="4.37373">
        <ele>38.665</ele>
        <time>2012-08-12T08:40:57Z</time>
      </trkpt>
      <trkpt lat="50.88143" lon="4.37369">
        <ele>38.613</ele>
        <time>2012-08-12T08:40:56Z</time>
      </trkpt>
      <trkpt lat="50.88141" lon="4.37364">
        <ele>38.63</ele>
        <time>2012-08-12T08:40:55Z</time>
      </trkpt>
      <trkpt lat="50.8814" lon="4.37361">
        <ele>38.617</ele>
        <time>2012-08-12T08:40:54Z</time>
      </trkpt>
      <trkpt lat="50.88136" lon="4.37358">
        <ele>39.117</ele>
        <time>2012-08-12T08:40:45Z</time>
      </trkpt>
      <trkpt lat="50.8813" lon="4.37347">
        <ele>39.165</ele>
        <time>2012-08-12T08:40:40Z</time>
      </trkpt>
      <trkpt lat="50.88129" lon="4.37345">
        <ele>39.177</ele>
        <time>2012-08-12T08:40:39Z</time>
      </trkpt>
      <trkpt lat="50.88114" lon="4.37313">
        <ele>38.179</ele>
        <time>2012-08-12T08:40:30Z</time>
      </trkpt>
      <trkpt lat="50.88111" lon="4.37309">
        <ele>38.607</ele>
        <time>2012-08-12T08:40:29Z</time>
      </trkpt>
      <trkpt lat="50.88109" lon="4.37304">
        <ele>38.118</ele>
        <time>2012-08-12T08:40:28Z</time>
      </trkpt>
      <trkpt lat="50.88106" lon="4.373">
        <ele>38.144</ele>
        <time>2012-08-12T08:40:27Z</time>
      </trkpt>
      <trkpt lat="50.88104" lon="4.37294">
        <ele>37.663</ele>
        <time>2012-08-12T08:40:26Z</time>
      </trkpt>
      <trkpt lat="50.88102" lon="4.37289">
        <ele>37.694</ele>
        <time>2012-08-12T08:40:25Z</time>
      </trkpt>
      <trkpt lat="50.88085" lon="4.37252">
        <ele>36.751</ele>
        <time>2012-08-12T08:40:18Z</time>
      </trkpt>
      <trkpt lat="50.88044" lon="4.37161">
        <ele>35.768</ele>
        <time>2012-08-12T08:40:02Z</time>
      </trkpt>
      <trkpt lat="50.88011" lon="4.37085">
        <ele>33.818</ele>
        <time>2012-08-12T08:39:48Z</time>
      </trkpt>
      <trkpt lat="50.87962" lon="4.3697">
        <ele>33.376</ele>
        <time>2012-08-12T08:39:32Z</time>
      </trkpt>
      <trkpt lat="50.87953" lon="4.36951">
        <ele>33.828</ele>
        <time>2012-08-12T08:39:29Z</time>
      </trkpt>
      <trkpt lat="50.8795" lon="4.36945">
        <ele>33.39</ele>
        <time>2012-08-12T08:39:28Z</time>
      </trkpt>
      <trkpt lat="50.87947" lon="4.36937">
        <ele>33.807</ele>
        <time>2012-08-12T08:39:27Z</time>
      </trkpt>
      <trkpt lat="50.87897" lon="4.36815">
        <ele>33.819</ele>
        <time>2012-08-12T08:39:10Z</time>
      </trkpt>
      <trkpt lat="50.87856" lon="4.36722">
        <ele>33.89</ele>
        <time>2012-08-12T08:38:57Z</time>
      </trkpt>
      <trkpt lat="50.87853" lon="4.36715">
        <ele>33.876</ele>
        <time>2012-08-12T08:38:56Z</time>
      </trkpt>
      <trkpt lat="50.8785" lon="4.36708">
        <ele>33.86</ele>
        <time>2012-08-12T08:38:55Z</time>
      </trkpt>
      <trkpt lat="50.87847" lon="4.36702">
        <ele>33.357</ele>
        <time>2012-08-12T08:38:54Z</time>
      </trkpt>
      <trkpt lat="50.87845" lon="4.36695">
        <ele>34.384</ele>
        <time>2012-08-12T08:38:53Z</time>
      </trkpt>
      <trkpt lat="50.87809" lon="4.36615">
        <ele>34.334</ele>
        <time>2012-08-12T08:38:41Z</time>
      </trkpt>
      <trkpt lat="50.87765" lon="4.36527">
        <ele>33.892</ele>
        <time>2012-08-12T08:38:27Z</time>
      </trkpt>
      <trkpt lat="50.87754" lon="4.36508">
        <ele>34.334</ele>
        <time>2012-08-12T08:38:24Z</time>
      </trkpt>
      <trkpt lat="50.87691" lon="4.36402">
        <ele>34.376</ele>
        <time>2012-08-12T08:38:07Z</time>
      </trkpt>
      <trkpt lat="50.87667" lon="4.36368">
        <ele>33.807</ele>
        <time>2012-08-12T08:38:01Z</time>
      </trkpt>
      <trkpt lat="50.87588" lon="4.3627">
        <ele>34.318</ele>
        <time>2012-08-12T08:37:44Z</time>
      </trkpt>
      <trkpt lat="50.87518" lon="4.36202">
        <ele>34.317</ele>
        <time>2012-08-12T08:37:31Z</time>
      </trkpt>
      <trkpt lat="50.87491" lon="4.36172">
        <ele>33.836</ele>
        <time>2012-08-12T08:37:25Z</time>
      </trkpt>
      <trkpt lat="50.87447" lon="4.36122">
        <ele>35.242</ele>
        <time>2012-08-12T08:37:16Z</time>
      </trkpt>
      <trkpt lat="50.87406" lon="4.36075">
        <ele>36.779</ele>
        <time>2012-08-12T08:37:06Z</time>
      </trkpt>
      <trkpt lat="50.87402" lon="4.3607">
        <ele>36.226</ele>
        <time>2012-08-12T08:37:05Z</time>
      </trkpt>
      <trkpt lat="50.87398" lon="4.36066">
        <ele>36.716</ele>
        <time>2012-08-12T08:37:04Z</time>
      </trkpt>
      <trkpt lat="50.87395" lon="4.36062">
        <ele>36.754</ele>
        <time>2012-08-12T08:37:03Z</time>
      </trkpt>
      <trkpt lat="50.87392" lon="4.36057">
        <ele>36.756</ele>
        <time>2012-08-12T08:37:02Z</time>
      </trkpt>
      <trkpt lat="50.87389" lon="4.36054">
        <ele>36.238</ele>
        <time>2012-08-12T08:37:01Z</time>
      </trkpt>
      <trkpt lat="50.87387" lon="4.36051">
        <ele>37.207</ele>
        <time>2012-08-12T08:37:00Z</time>
      </trkpt>
      <trkpt lat="50.87384" lon="4.36048">
        <ele>36.714</ele>
        <time>2012-08-12T08:36:59Z</time>
      </trkpt>
      <trkpt lat="50.87381" lon="4.36044">
        <ele>37.259</ele>
        <time>2012-08-12T08:36:58Z</time>
      </trkpt>
      <trkpt lat="50.87377" lon="4.3604">
        <ele>37.256</ele>
        <time>2012-08-12T08:36:57Z</time>
      </trkpt>
      <trkpt lat="50.87362" lon="4.36026">
        <ele>37.296</ele>
        <time>2012-08-12T08:36:53Z</time>
      </trkpt>
      <trkpt lat="50.87359" lon="4.36021">
        <ele>37.233</ele>
        <time>2012-08-12T08:36:52Z</time>
      </trkpt>
      <trkpt lat="50.87355" lon="4.36016">
        <ele>37.62</ele>
        <time>2012-08-12T08:36:51Z</time>
      </trkpt>
      <trkpt lat="50.8734" lon="4.35979">
        <ele>37.61</ele>
        <time>2012-08-12T08:36:45Z</time>
      </trkpt>
      <trkpt lat="50.87328" lon="4.35939">
        <ele>37.628</ele>
        <time>2012-08-12T08:36:35Z</time>
      </trkpt>
      <trkpt lat="50.87327" lon="4.35937">
        <ele>37.69</ele>
        <time>2012-08-12T08:36:34Z</time>
      </trkpt>
      <trkpt lat="50.87326" lon="4.35937">
        <ele>38.682</ele>
        <time>2012-08-12T08:36:26Z</time>
      </trkpt>
      <trkpt lat="50.87327" lon="4.35936">
        <ele>38.107</ele>
        <time>2012-08-12T08:35:55Z</time>
      </trkpt>
      <trkpt lat="50.87326" lon="4.35938">
        <ele>37.624</ele>
        <time>2012-08-12T08:35:31Z</time>
      </trkpt>
      <trkpt lat="50.87326" lon="4.35935">
        <ele>38.131</ele>
        <time>2012-08-12T08:35:20Z</time>
      </trkpt>
      <trkpt lat="50.87325" lon="4.35933">
        <ele>38.196</ele>
        <time>2012-08-12T08:35:19Z</time>
      </trkpt>
      <trkpt lat="50.87325" lon="4.3593">
        <ele>37.656</ele>
        <time>2012-08-12T08:35:18Z</time>
      </trkpt>
      <trkpt lat="50.87325" lon="4.35926">
        <ele>38.163</ele>
        <time>2012-08-12T08:35:17Z</time>
      </trkpt>
      <trkpt lat="50.87325" lon="4.35923">
        <ele>37.68</ele>
        <time>2012-08-12T08:35:16Z</time>
      </trkpt>
      <trkpt lat="50.87313" lon="4.35886">
        <ele>37.26</ele>
        <time>2012-08-12T08:35:07Z</time>
      </trkpt>
      <trkpt lat="50.87267" lon="4.35768">
        <ele>37.278</ele>
        <time>2012-08-12T08:34:50Z</time>
      </trkpt>
      <trkpt lat="50.87212" lon="4.35635">
        <ele>37.29</ele>
        <time>2012-08-12T08:34:33Z</time>
      </trkpt>
      <trkpt lat="50.87208" lon="4.35628">
        <ele>37.252</ele>
        <time>2012-08-12T08:34:32Z</time>
      </trkpt>
      <trkpt lat="50.87204" lon="4.3562">
        <ele>37.207</ele>
        <time>2012-08-12T08:34:31Z</time>
      </trkpt>
      <trkpt lat="50.872" lon="4.35613">
        <ele>36.721</ele>
        <time>2012-08-12T08:34:30Z</time>
      </trkpt>
      <trkpt lat="50.87195" lon="4.35606">
        <ele>37.265</ele>
        <time>2012-08-12T08:34:29Z</time>
      </trkpt>
      <trkpt lat="50.87161" lon="4.3558">
        <ele>36.793</ele>
        <time>2012-08-12T08:34:22Z</time>
      </trkpt>
      <trkpt lat="50.87126" lon="4.35558">
        <ele>36.286</ele>
        <time>2012-08-12T08:34:14Z</time>
      </trkpt>
      <trkpt lat="50.8707" lon="4.35522">
        <ele>36.713</ele>
        <time>2012-08-12T08:34:01Z</time>
      </trkpt>
      <trkpt lat="50.87023" lon="4.35484">
        <ele>36.72</ele>
        <time>2012-08-12T08:33:50Z</time>
      </trkpt>
      <trkpt lat="50.87014" lon="4.35477">
        <ele>36.71</ele>
        <time>2012-08-12T08:33:48Z</time>
      </trkpt>
      <trkpt lat="50.86999" lon="4.35465">
        <ele>36.798</ele>
        <time>2012-08-12T08:33:45Z</time>
      </trkpt>
      <trkpt lat="50.86948" lon="4.35419">
        <ele>36.78</ele>
        <time>2012-08-12T08:33:33Z</time>
      </trkpt>
      <trkpt lat="50.86896" lon="4.35374">
        <ele>36.732</ele>
        <time>2012-08-12T08:33:21Z</time>
      </trkpt>
      <trkpt lat="50.86892" lon="4.35371">
        <ele>36.707</ele>
        <time>2012-08-12T08:33:20Z</time>
      </trkpt>
      <trkpt lat="50.86864" lon="4.35352">
        <ele>36.72</ele>
        <time>2012-08-12T08:33:14Z</time>
      </trkpt>
      <trkpt lat="50.8686" lon="4.35349">
        <ele>36.773</ele>
        <time>2012-08-12T08:33:13Z</time>
      </trkpt>
      <trkpt lat="50.86855" lon="4.35346">
        <ele>37.292</ele>
        <time>2012-08-12T08:33:12Z</time>
      </trkpt>
      <trkpt lat="50.8682" lon="4.35318">
        <ele>37.669</ele>
        <time>2012-08-12T08:33:03Z</time>
      </trkpt>
      <trkpt lat="50.86815" lon="4.35315">
        <ele>37.656</ele>
        <time>2012-08-12T08:33:02Z</time>
      </trkpt>
      <trkpt lat="50.86811" lon="4.3531">
        <ele>37.223</ele>
        <time>2012-08-12T08:33:01Z</time>
      </trkpt>
      <trkpt lat="50.86805" lon="4.35306">
        <ele>37.253</ele>
        <time>2012-08-12T08:33:00Z</time>
      </trkpt>
      <trkpt lat="50.868" lon="4.35302">
        <ele>37.661</ele>
        <time>2012-08-12T08:32:59Z</time>
      </trkpt>
      <trkpt lat="50.86794" lon="4.35298">
        <ele>37.263</ele>
        <time>2012-08-12T08:32:58Z</time>
      </trkpt>
      <trkpt lat="50.86784" lon="4.35291">
        <ele>37.255</ele>
        <time>2012-08-12T08:32:56Z</time>
      </trkpt>
      <trkpt lat="50.86764" lon="4.35275">
        <ele>37.207</ele>
        <time>2012-08-12T08:32:52Z</time>
      </trkpt>
      <trkpt lat="50.86751" lon="4.35265">
        <ele>37.205</ele>
        <time>2012-08-12T08:32:49Z</time>
      </trkpt>
      <trkpt lat="50.8673" lon="4.3525">
        <ele>37.241</ele>
        <time>2012-08-12T08:32:43Z</time>
      </trkpt>
      <trkpt lat="50.86713" lon="4.35238">
        <ele>37.221</ele>
        <time>2012-08-12T08:32:32Z</time>
      </trkpt>
      <trkpt lat="50.86679" lon="4.35208">
        <ele>37.648</ele>
        <time>2012-08-12T08:32:22Z</time>
      </trkpt>
      <trkpt lat="50.86675" lon="4.35204">
        <ele>37.615</ele>
        <time>2012-08-12T08:32:21Z</time>
      </trkpt>
      <trkpt lat="50.86657" lon="4.35185">
        <ele>37.232</ele>
        <time>2012-08-12T08:32:17Z</time>
      </trkpt>
      <trkpt lat="50.8664" lon="4.3517">
        <ele>37.262</ele>
        <time>2012-08-12T08:32:13Z</time>
      </trkpt>
      <trkpt lat="50.86591" lon="4.35129">
        <ele>37.67</ele>
        <time>2012-08-12T08:32:03Z</time>
      </trkpt>
      <trkpt lat="50.86549" lon="4.35098">
        <ele>37.262</ele>
        <time>2012-08-12T08:31:54Z</time>
      </trkpt>
      <trkpt lat="50.86545" lon="4.35097">
        <ele>37.614</ele>
        <time>2012-08-12T08:31:53Z</time>
      </trkpt>
      <trkpt lat="50.8654" lon="4.35096">
        <ele>37.207</ele>
        <time>2012-08-12T08:31:52Z</time>
      </trkpt>
      <trkpt lat="50.86536" lon="4.35097">
        <ele>37.205</ele>
        <time>2012-08-12T08:31:51Z</time>
      </trkpt>
      <trkpt lat="50.86532" lon="4.35099">
        <ele>38.132</ele>
        <time>2012-08-12T08:31:50Z</time>
      </trkpt>
      <trkpt lat="50.86527" lon="4.35103">
        <ele>37.612</ele>
        <time>2012-08-12T08:31:49Z</time>
      </trkpt>
      <trkpt lat="50.86523" lon="4.35108">
        <ele>39.145</ele>
        <time>2012-08-12T08:31:48Z</time>
      </trkpt>
      <trkpt lat="50.86491" lon="4.35178">
        <ele>40.042</ele>
        <time>2012-08-12T08:31:37Z</time>
      </trkpt>
      <trkpt lat="50.86488" lon="4.35184">
        <ele>39.689</ele>
        <time>2012-08-12T08:31:36Z</time>
      </trkpt>
      <trkpt lat="50.86462" lon="4.35265">
        <ele>38.639</ele>
        <time>2012-08-12T08:31:25Z</time>
      </trkpt>
      <trkpt lat="50.86447" lon="4.35311">
        <ele>38.617</ele>
        <time>2012-08-12T08:31:19Z</time>
      </trkpt>
      <trkpt lat="50.86436" lon="4.35337">
        <ele>38.629</ele>
        <time>2012-08-12T08:31:15Z</time>
      </trkpt>
      <trkpt lat="50.86432" lon="4.35343">
        <ele>38.161</ele>
        <time>2012-08-12T08:31:14Z</time>
      </trkpt>
      <trkpt lat="50.86428" lon="4.35347">
        <ele>38.107</ele>
        <time>2012-08-12T08:31:13Z</time>
      </trkpt>
      <trkpt lat="50.86424" lon="4.3535">
        <ele>38.126</ele>
        <time>2012-08-12T08:31:12Z</time>
      </trkpt>
      <trkpt lat="50.86419" lon="4.35352">
        <ele>38.124</ele>
        <time>2012-08-12T08:31:11Z</time>
      </trkpt>
      <trkpt lat="50.86414" lon="4.35354">
        <ele>38.188</ele>
        <time>2012-08-12T08:31:10Z</time>
      </trkpt>
      <trkpt lat="50.8641" lon="4.35357">
        <ele>37.629</ele>
        <time>2012-08-12T08:31:09Z</time>
      </trkpt>
      <trkpt lat="50.86405" lon="4.35361">
        <ele>37.676</ele>
        <time>2012-08-12T08:31:08Z</time>
      </trkpt>
      <trkpt lat="50.86401" lon="4.35366">
        <ele>37.673</ele>
        <time>2012-08-12T08:31:07Z</time>
      </trkpt>
      <trkpt lat="50.86398" lon="4.3537">
        <ele>37.223</ele>
        <time>2012-08-12T08:31:06Z</time>
      </trkpt>
      <trkpt lat="50.86395" lon="4.35371">
        <ele>37.281</ele>
        <time>2012-08-12T08:31:05Z</time>
      </trkpt>
      <trkpt lat="50.86359" lon="4.35328">
        <ele>37.663</ele>
        <time>2012-08-12T08:30:55Z</time>
      </trkpt>
      <trkpt lat="50.86351" lon="4.3532">
        <ele>37.615</ele>
        <time>2012-08-12T08:30:53Z</time>
      </trkpt>
      <trkpt lat="50.86333" lon="4.35307">
        <ele>37.207</ele>
        <time>2012-08-12T08:30:49Z</time>
      </trkpt>
      <trkpt lat="50.86328" lon="4.35303">
        <ele>37.608</ele>
        <time>2012-08-12T08:30:48Z</time>
      </trkpt>
      <trkpt lat="50.86291" lon="4.35271">
        <ele>37.226</ele>
        <time>2012-08-12T08:30:40Z</time>
      </trkpt>
      <trkpt lat="50.86286" lon="4.35267">
        <ele>37.625</ele>
        <time>2012-08-12T08:30:39Z</time>
      </trkpt>
      <trkpt lat="50.86281" lon="4.35264">
        <ele>37.286</ele>
        <time>2012-08-12T08:30:38Z</time>
      </trkpt>
      <trkpt lat="50.86276" lon="4.3526">
        <ele>37.643</ele>
        <time>2012-08-12T08:30:37Z</time>
      </trkpt>
      <trkpt lat="50.86271" lon="4.35255">
        <ele>37.23</ele>
        <time>2012-08-12T08:30:36Z</time>
      </trkpt>
      <trkpt lat="50.86266" lon="4.35249">
        <ele>37.66</ele>
        <time>2012-08-12T08:30:35Z</time>
      </trkpt>
      <trkpt lat="50.86231" lon="4.35216">
        <ele>37.288</ele>
        <time>2012-08-12T08:30:28Z</time>
      </trkpt>
      <trkpt lat="50.86227" lon="4.35211">
        <ele>37.29</ele>
        <time>2012-08-12T08:30:27Z</time>
      </trkpt>
      <trkpt lat="50.86222" lon="4.35206">
        <ele>37.682</ele>
        <time>2012-08-12T08:30:26Z</time>
      </trkpt>
      <trkpt lat="50.86217" lon="4.35203">
        <ele>37.607</ele>
        <time>2012-08-12T08:30:25Z</time>
      </trkpt>
      <trkpt lat="50.86213" lon="4.35202">
        <ele>37.22</ele>
        <time>2012-08-12T08:30:24Z</time>
      </trkpt>
      <trkpt lat="50.86208" lon="4.35205">
        <ele>37.273</ele>
        <time>2012-08-12T08:30:23Z</time>
      </trkpt>
      <trkpt lat="50.86204" lon="4.35209">
        <ele>37.292</ele>
        <time>2012-08-12T08:30:22Z</time>
      </trkpt>
      <trkpt lat="50.862" lon="4.35216">
        <ele>37.294</ele>
        <time>2012-08-12T08:30:21Z</time>
      </trkpt>
      <trkpt lat="50.86197" lon="4.35223">
        <ele>37.291</ele>
        <time>2012-08-12T08:30:20Z</time>
      </trkpt>
      <trkpt lat="50.86178" lon="4.35319">
        <ele>36.278</ele>
        <time>2012-08-12T08:30:09Z</time>
      </trkpt>
      <trkpt lat="50.86151" lon="4.35479">
        <ele>36.738</ele>
        <time>2012-08-12T08:29:52Z</time>
      </trkpt>
      <trkpt lat="50.86139" lon="4.35566">
        <ele>35.746</ele>
        <time>2012-08-12T08:29:41Z</time>
      </trkpt>
      <trkpt lat="50.86135" lon="4.35599">
        <ele>35.278</ele>
        <time>2012-08-12T08:29:35Z</time>
      </trkpt>
      <trkpt lat="50.86134" lon="4.35602">
        <ele>35.22</ele>
        <time>2012-08-12T08:29:20Z</time>
      </trkpt>
      <trkpt lat="50.86128" lon="4.3561">
        <ele>35.207</ele>
        <time>2012-08-12T08:29:11Z</time>
      </trkpt>
      <trkpt lat="50.86126" lon="4.35615">
        <ele>35.213</ele>
        <time>2012-08-12T08:29:10Z</time>
      </trkpt>
      <trkpt lat="50.8612" lon="4.35638">
        <ele>35.285</ele>
        <time>2012-08-12T08:29:07Z</time>
      </trkpt>
      <trkpt lat="50.86118" lon="4.35647">
        <ele>35.773</ele>
        <time>2012-08-12T08:29:06Z</time>
      </trkpt>
      <trkpt lat="50.86114" lon="4.35664">
        <ele>35.291</ele>
        <time>2012-08-12T08:29:04Z</time>
      </trkpt>
      <trkpt lat="50.86092" lon="4.35773">
        <ele>35.798</ele>
        <time>2012-08-12T08:28:51Z</time>
      </trkpt>
      <trkpt lat="50.8609" lon="4.3578">
        <ele>35.755</ele>
        <time>2012-08-12T08:28:50Z</time>
      </trkpt>
      <trkpt lat="50.86087" lon="4.35785">
        <ele>35.725</ele>
        <time>2012-08-12T08:28:49Z</time>
      </trkpt>
      <trkpt lat="50.86084" lon="4.3579">
        <ele>36.253</ele>
        <time>2012-08-12T08:28:48Z</time>
      </trkpt>
      <trkpt lat="50.8608" lon="4.35792">
        <ele>36.225</ele>
        <time>2012-08-12T08:28:47Z</time>
      </trkpt>
      <trkpt lat="50.86056" lon="4.35778">
        <ele>36.217</ele>
        <time>2012-08-12T08:28:40Z</time>
      </trkpt>
      <trkpt lat="50.86009" lon="4.35758">
        <ele>35.707</ele>
        <time>2012-08-12T08:28:29Z</time>
      </trkpt>
      <trkpt lat="50.85951" lon="4.35725">
        <ele>36.716</ele>
        <time>2012-08-12T08:28:18Z</time>
      </trkpt>
      <trkpt lat="50.85945" lon="4.35721">
        <ele>36.788</ele>
        <time>2012-08-12T08:28:17Z</time>
      </trkpt>
      <trkpt lat="50.85922" lon="4.35709">
        <ele>36.246</ele>
        <time>2012-08-12T08:28:12Z</time>
      </trkpt>
      <trkpt lat="50.85884" lon="4.35693">
        <ele>36.235</ele>
        <time>2012-08-12T08:28:02Z</time>
      </trkpt>
      <trkpt lat="50.85811" lon="4.35656">
        <ele>35.712</ele>
        <time>2012-08-12T08:27:50Z</time>
      </trkpt>
      <trkpt lat="50.85738" lon="4.35615">
        <ele>35.739</ele>
        <time>2012-08-12T08:27:37Z</time>
      </trkpt>
      <trkpt lat="50.85667" lon="4.35579">
        <ele>35.769</ele>
        <time>2012-08-12T08:27:24Z</time>
      </trkpt>
      <trkpt lat="50.85611" lon="4.35547">
        <ele>34.797</ele>
        <time>2012-08-12T08:27:14Z</time>
      </trkpt>
      <trkpt lat="50.85607" lon="4.35544">
        <ele>35.719</ele>
        <time>2012-08-12T08:27:13Z</time>
      </trkpt>
      <trkpt lat="50.85606" lon="4.35544">
        <ele>35.291</ele>
        <time>2012-08-12T08:27:11Z</time>
      </trkpt>
      <trkpt lat="50.85604" lon="4.35547">
        <ele>35.707</ele>
        <time>2012-08-12T08:27:10Z</time>
      </trkpt>
      <trkpt lat="50.85602" lon="4.3555">
        <ele>34.726</ele>
        <time>2012-08-12T08:27:09Z</time>
      </trkpt>
      <trkpt lat="50.856" lon="4.35555">
        <ele>35.206</ele>
        <time>2012-08-12T08:27:08Z</time>
      </trkpt>
      <trkpt lat="50.85598" lon="4.3556">
        <ele>35.289</ele>
        <time>2012-08-12T08:27:07Z</time>
      </trkpt>
      <trkpt lat="50.85597" lon="4.35566">
        <ele>35.286</ele>
        <time>2012-08-12T08:27:06Z</time>
      </trkpt>
      <trkpt lat="50.85596" lon="4.35572">
        <ele>35.253</ele>
        <time>2012-08-12T08:27:05Z</time>
      </trkpt>
      <trkpt lat="50.85596" lon="4.3558">
        <ele>35.26</ele>
        <time>2012-08-12T08:27:04Z</time>
      </trkpt>
      <trkpt lat="50.85596" lon="4.35588">
        <ele>35.25</ele>
        <time>2012-08-12T08:27:03Z</time>
      </trkpt>
      <trkpt lat="50.85574" lon="4.35664">
        <ele>35.248</ele>
        <time>2012-08-12T08:26:54Z</time>
      </trkpt>
      <trkpt lat="50.85545" lon="4.35745">
        <ele>35.24</ele>
        <time>2012-08-12T08:26:43Z</time>
      </trkpt>
      <trkpt lat="50.85545" lon="4.35748">
        <ele>35.262</ele>
        <time>2012-08-12T08:26:42Z</time>
      </trkpt>
      <trkpt lat="50.85545" lon="4.35754">
        <ele>35.707</ele>
        <time>2012-08-12T08:26:41Z</time>
      </trkpt>
      <trkpt lat="50.85543" lon="4.35761">
        <ele>35.724</ele>
        <time>2012-08-12T08:26:40Z</time>
      </trkpt>
      <trkpt lat="50.85541" lon="4.35768">
        <ele>35.231</ele>
        <time>2012-08-12T08:26:39Z</time>
      </trkpt>
      <trkpt lat="50.8554" lon="4.35774">
        <ele>35.296</ele>
        <time>2012-08-12T08:26:38Z</time>
      </trkpt>
      <trkpt lat="50.85537" lon="4.35779">
        <ele>35.79</ele>
        <time>2012-08-12T08:26:37Z</time>
      </trkpt>
      <trkpt lat="50.85525" lon="4.35809">
        <ele>35.717</ele>
        <time>2012-08-12T08:26:28Z</time>
      </trkpt>
      <trkpt lat="50.85492" lon="4.35912">
        <ele>37.264</ele>
        <time>2012-08-12T08:26:16Z</time>
      </trkpt>
      <trkpt lat="50.85455" lon="4.36029">
        <ele>40.014</ele>
        <time>2012-08-12T08:26:06Z</time>
      </trkpt>
      <trkpt lat="50.85437" lon="4.36097">
        <ele>42.952</ele>
        <time>2012-08-12T08:26:00Z</time>
      </trkpt>
      <trkpt lat="50.85425" lon="4.36137">
        <ele>44.824</ele>
        <time>2012-08-12T08:25:57Z</time>
      </trkpt>
      <trkpt lat="50.85415" lon="4.36168">
        <ele>45.836</ele>
        <time>2012-08-12T08:25:55Z</time>
      </trkpt>
      <trkpt lat="50.854" lon="4.36214">
        <ele>47.207</ele>
        <time>2012-08-12T08:25:52Z</time>
      </trkpt>
      <trkpt lat="50.85373" lon="4.3629">
        <ele>51.121</ele>
        <time>2012-08-12T08:25:47Z</time>
      </trkpt>
      <trkpt lat="50.85355" lon="4.36364">
        <ele>54.001</ele>
        <time>2012-08-12T08:25:42Z</time>
      </trkpt>
      <trkpt lat="50.85353" lon="4.36378">
        <ele>54.039</ele>
        <time>2012-08-12T08:25:41Z</time>
      </trkpt>
      <trkpt lat="50.85337" lon="4.36458">
        <ele>57.353</ele>
        <time>2012-08-12T08:25:35Z</time>
      </trkpt>
      <trkpt lat="50.85328" lon="4.36492">
        <ele>58.85</ele>
        <time>2012-08-12T08:25:32Z</time>
      </trkpt>
      <trkpt lat="50.8532" lon="4.36528">
        <ele>60.287</ele>
        <time>2012-08-12T08:25:28Z</time>
      </trkpt>
      <trkpt lat="50.85319" lon="4.36536">
        <ele>60.777</ele>
        <time>2012-08-12T08:25:27Z</time>
      </trkpt>
      <trkpt lat="50.85313" lon="4.36582">
        <ele>61.745</ele>
        <time>2012-08-12T08:25:17Z</time>
      </trkpt>
      <trkpt lat="50.85305" lon="4.36615">
        <ele>62.697</ele>
        <time>2012-08-12T08:25:08Z</time>
      </trkpt>
      <trkpt lat="50.85285" lon="4.36694">
        <ele>65.039</ele>
        <time>2012-08-12T08:25:00Z</time>
      </trkpt>
      <trkpt lat="50.85266" lon="4.36749">
        <ele>67.007</ele>
        <time>2012-08-12T08:24:54Z</time>
      </trkpt>
      <trkpt lat="50.85264" lon="4.36758">
        <ele>67.019</ele>
        <time>2012-08-12T08:24:53Z</time>
      </trkpt>
      <trkpt lat="50.85262" lon="4.36777">
        <ele>67.481</ele>
        <time>2012-08-12T08:24:51Z</time>
      </trkpt>
      <trkpt lat="50.85258" lon="4.36794">
        <ele>67.967</ele>
        <time>2012-08-12T08:24:49Z</time>
      </trkpt>
      <trkpt lat="50.85257" lon="4.36803">
        <ele>68.45</ele>
        <time>2012-08-12T08:24:48Z</time>
      </trkpt>
      <trkpt lat="50.85256" lon="4.3681">
        <ele>68.487</ele>
        <time>2012-08-12T08:24:47Z</time>
      </trkpt>
      <trkpt lat="50.85255" lon="4.36834">
        <ele>68.974</ele>
        <time>2012-08-12T08:24:44Z</time>
      </trkpt>
      <trkpt lat="50.85252" lon="4.36862">
        <ele>69.454</ele>
        <time>2012-08-12T08:24:41Z</time>
      </trkpt>
      <trkpt lat="50.85251" lon="4.3687">
        <ele>68.982</ele>
        <time>2012-08-12T08:24:40Z</time>
      </trkpt>
      <trkpt lat="50.85248" lon="4.36877">
        <ele>68.984</ele>
        <time>2012-08-12T08:24:39Z</time>
      </trkpt>
      <trkpt lat="50.85235" lon="4.36895">
        <ele>68.946</ele>
        <time>2012-08-12T08:24:34Z</time>
      </trkpt>
      <trkpt lat="50.85232" lon="4.36897">
        <ele>69.407</ele>
        <time>2012-08-12T08:24:33Z</time>
      </trkpt>
      <trkpt lat="50.85225" lon="4.36916">
        <ele>69.414</ele>
        <time>2012-08-12T08:24:29Z</time>
      </trkpt>
      <trkpt lat="50.85213" lon="4.36936">
        <ele>69.886</ele>
        <time>2012-08-12T08:24:24Z</time>
      </trkpt>
      <trkpt lat="50.85185" lon="4.3693">
        <ele>69.835</ele>
        <time>2012-08-12T08:24:15Z</time>
      </trkpt>
      <trkpt lat="50.85184" lon="4.36926">
        <ele>69.454</ele>
        <time>2012-08-12T08:24:13Z</time>
      </trkpt>
      <trkpt lat="50.85187" lon="4.36898">
        <ele>71.311</ele>
        <time>2012-08-12T08:24:05Z</time>
      </trkpt>
      <trkpt lat="50.85188" lon="4.36894">
        <ele>70.328</ele>
        <time>2012-08-12T08:24:04Z</time>
      </trkpt>
      <trkpt lat="50.8519" lon="4.36876">
        <ele>70.338</ele>
        <time>2012-08-12T08:24:00Z</time>
      </trkpt>
      <trkpt lat="50.8519" lon="4.36872">
        <ele>70.866</ele>
        <time>2012-08-12T08:23:59Z</time>
      </trkpt>
      <trkpt lat="50.85189" lon="4.3687">
        <ele>70.848</ele>
        <time>2012-08-12T08:23:58Z</time>
      </trkpt>
      <trkpt lat="50.85187" lon="4.36868">
        <ele>70.87</ele>
        <time>2012-08-12T08:23:57Z</time>
      </trkpt>
      <trkpt lat="50.85185" lon="4.36866">
        <ele>70.807</ele>
        <time>2012-08-12T08:23:56Z</time>
      </trkpt>
      <trkpt lat="50.85182" lon="4.36866">
        <ele>70.827</ele>
        <time>2012-08-12T08:23:55Z</time>
      </trkpt>
      <trkpt lat="50.8518" lon="4.36867">
        <ele>70.861</ele>
        <time>2012-08-12T08:23:54Z</time>
      </trkpt>
      <trkpt lat="50.85177" lon="4.36869">
        <ele>70.877</ele>
        <time>2012-08-12T08:23:53Z</time>
      </trkpt>
      <trkpt lat="50.85174" lon="4.3687">
        <ele>70.856</ele>
        <time>2012-08-12T08:23:52Z</time>
      </trkpt>
      <trkpt lat="50.85171" lon="4.36869">
        <ele>70.373</ele>
        <time>2012-08-12T08:23:51Z</time>
      </trkpt>
      <trkpt lat="50.85167" lon="4.36868">
        <ele>70.33</ele>
        <time>2012-08-12T08:23:50Z</time>
      </trkpt>
      <trkpt lat="50.85163" lon="4.36867">
        <ele>70.39</ele>
        <time>2012-08-12T08:23:49Z</time>
      </trkpt>
      <trkpt lat="50.8516" lon="4.36868">
        <ele>70.368</ele>
        <time>2012-08-12T08:23:48Z</time>
      </trkpt>
      <trkpt lat="50.85157" lon="4.36872">
        <ele>70.35</ele>
        <time>2012-08-12T08:23:47Z</time>
      </trkpt>
      <trkpt lat="50.85154" lon="4.36875">
        <ele>70.392</ele>
        <time>2012-08-12T08:23:46Z</time>
      </trkpt>
      <trkpt lat="50.8515" lon="4.36878">
        <ele>70.307</ele>
        <time>2012-08-12T08:23:45Z</time>
      </trkpt>
      <trkpt lat="50.85146" lon="4.36882">
        <ele>70.327</ele>
        <time>2012-08-12T08:23:44Z</time>
      </trkpt>
      <trkpt lat="50.85142" lon="4.36883">
        <ele>70.807</ele>
        <time>2012-08-12T08:23:43Z</time>
      </trkpt>
      <trkpt lat="50.85138" lon="4.36883">
        <ele>70.899</ele>
        <time>2012-08-12T08:23:42Z</time>
      </trkpt>
      <trkpt lat="50.85135" lon="4.36882">
        <ele>70.324</ele>
        <time>2012-08-12T08:23:41Z</time>
      </trkpt>
      <trkpt lat="50.85133" lon="4.3688">
        <ele>70.811</ele>
        <time>2012-08-12T08:23:40Z</time>
      </trkpt>
      <trkpt lat="50.85131" lon="4.36879">
        <ele>70.858</ele>
        <time>2012-08-12T08:23:39Z</time>
      </trkpt>
      <trkpt lat="50.85128" lon="4.36879">
        <ele>70.838</ele>
        <time>2012-08-12T08:23:38Z</time>
      </trkpt>
      <trkpt lat="50.85125" lon="4.3688">
        <ele>70.376</ele>
        <time>2012-08-12T08:23:37Z</time>
      </trkpt>
      <trkpt lat="50.85122" lon="4.36881">
        <ele>69.888</ele>
        <time>2012-08-12T08:23:36Z</time>
      </trkpt>
      <trkpt lat="50.8512" lon="4.36884">
        <ele>69.87</ele>
        <time>2012-08-12T08:23:35Z</time>
      </trkpt>
      <trkpt lat="50.85119" lon="4.36887">
        <ele>69.407</ele>
        <time>2012-08-12T08:23:34Z</time>
      </trkpt>
      <trkpt lat="50.85119" lon="4.36889">
        <ele>69.42</ele>
        <time>2012-08-12T08:23:33Z</time>
      </trkpt>
      <trkpt lat="50.85119" lon="4.3689">
        <ele>69.428</ele>
        <time>2012-08-12T08:23:32Z</time>
      </trkpt>
      <trkpt lat="50.85117" lon="4.36892">
        <ele>68.975</ele>
        <time>2012-08-12T08:23:31Z</time>
      </trkpt>
      <trkpt lat="50.85095" lon="4.36879">
        <ele>69.469</ele>
        <time>2012-08-12T08:23:23Z</time>
      </trkpt>
      <trkpt lat="50.8509" lon="4.36877">
        <ele>69.476</ele>
        <time>2012-08-12T08:23:22Z</time>
      </trkpt>
      <trkpt lat="50.85085" lon="4.36875">
        <ele>69.863</ele>
        <time>2012-08-12T08:23:21Z</time>
      </trkpt>
      <trkpt lat="50.85079" lon="4.36874">
        <ele>69.443</ele>
        <time>2012-08-12T08:23:20Z</time>
      </trkpt>
      <trkpt lat="50.85072" lon="4.36873">
        <ele>69.461</ele>
        <time>2012-08-12T08:23:19Z</time>
      </trkpt>
      <trkpt lat="50.84981" lon="4.36898">
        <ele>69.853</ele>
        <time>2012-08-12T08:23:06Z</time>
      </trkpt>
      <trkpt lat="50.84975" lon="4.369">
        <ele>70.355</ele>
        <time>2012-08-12T08:23:05Z</time>
      </trkpt>
      <trkpt lat="50.84968" lon="4.36902">
        <ele>70.307</ele>
        <time>2012-08-12T08:23:04Z</time>
      </trkpt>
      <trkpt lat="50.84962" lon="4.36906">
        <ele>69.817</ele>
        <time>2012-08-12T08:23:03Z</time>
      </trkpt>
      <trkpt lat="50.84956" lon="4.3691">
        <ele>69.889</ele>
        <time>2012-08-12T08:23:02Z</time>
      </trkpt>
      <trkpt lat="50.84951" lon="4.36917">
        <ele>69.828</ele>
        <time>2012-08-12T08:23:01Z</time>
      </trkpt>
      <trkpt lat="50.84948" lon="4.36924">
        <ele>69.48</ele>
        <time>2012-08-12T08:23:00Z</time>
      </trkpt>
      <trkpt lat="50.84946" lon="4.36931">
        <ele>69.487</ele>
        <time>2012-08-12T08:22:59Z</time>
      </trkpt>
      <trkpt lat="50.84945" lon="4.36937">
        <ele>68.934</ele>
        <time>2012-08-12T08:22:58Z</time>
      </trkpt>
      <trkpt lat="50.84942" lon="4.36943">
        <ele>68.994</ele>
        <time>2012-08-12T08:22:57Z</time>
      </trkpt>
      <trkpt lat="50.84935" lon="4.36949">
        <ele>68.912</ele>
        <time>2012-08-12T08:22:54Z</time>
      </trkpt>
      <trkpt lat="50.84932" lon="4.36948">
        <ele>69.474</ele>
        <time>2012-08-12T08:22:52Z</time>
      </trkpt>
      <trkpt lat="50.84929" lon="4.36946">
        <ele>69.476</ele>
        <time>2012-08-12T08:22:51Z</time>
      </trkpt>
      <trkpt lat="50.84927" lon="4.36944">
        <ele>69.407</ele>
        <time>2012-08-12T08:22:50Z</time>
      </trkpt>
      <trkpt lat="50.84924" lon="4.36942">
        <ele>69.818</ele>
        <time>2012-08-12T08:22:49Z</time>
      </trkpt>
      <trkpt lat="50.84921" lon="4.36939">
        <ele>69.417</ele>
        <time>2012-08-12T08:22:45Z</time>
      </trkpt>
      <trkpt lat="50.84919" lon="4.36938">
        <ele>69.436</ele>
        <time>2012-08-12T08:22:44Z</time>
      </trkpt>
      <trkpt lat="50.84917" lon="4.36936">
        <ele>69.488</ele>
        <time>2012-08-12T08:22:41Z</time>
      </trkpt>
      <trkpt lat="50.84912" lon="4.36939">
        <ele>69.815</ele>
        <time>2012-08-12T08:22:38Z</time>
      </trkpt>
      <trkpt lat="50.84897" lon="4.36945">
        <ele>69.852</ele>
        <time>2012-08-12T08:22:32Z</time>
      </trkpt>
      <trkpt lat="50.84895" lon="4.36946">
        <ele>70.392</ele>
        <time>2012-08-12T08:22:31Z</time>
      </trkpt>
      <trkpt lat="50.84893" lon="4.36947">
        <ele>70.36</ele>
        <time>2012-08-12T08:22:30Z</time>
      </trkpt>
      <trkpt lat="50.84888" lon="4.36947">
        <ele>70.352</ele>
        <time>2012-08-12T08:22:28Z</time>
      </trkpt>
      <trkpt lat="50.84844" lon="4.36943">
        <ele>70.364</ele>
        <time>2012-08-12T08:22:16Z</time>
      </trkpt>
      <trkpt lat="50.84763" lon="4.36961">
        <ele>72.207</ele>
        <time>2012-08-12T08:22:05Z</time>
      </trkpt>
      <trkpt lat="50.84753" lon="4.36964">
        <ele>72.205</ele>
        <time>2012-08-12T08:22:04Z</time>
      </trkpt>
      <trkpt lat="50.84743" lon="4.36967">
        <ele>72.732</ele>
        <time>2012-08-12T08:22:03Z</time>
      </trkpt>
      <trkpt lat="50.84734" lon="4.36968">
        <ele>72.712</ele>
        <time>2012-08-12T08:22:02Z</time>
      </trkpt>
      <trkpt lat="50.84726" lon="4.36969">
        <ele>72.761</ele>
        <time>2012-08-12T08:22:01Z</time>
      </trkpt>
      <trkpt lat="50.84719" lon="4.36968">
        <ele>73.248</ele>
        <time>2012-08-12T08:22:00Z</time>
      </trkpt>
      <trkpt lat="50.84713" lon="4.36968">
        <ele>73.255</ele>
        <time>2012-08-12T08:21:59Z</time>
      </trkpt>
      <trkpt lat="50.84707" lon="4.36967">
        <ele>73.255</ele>
        <time>2012-08-12T08:21:58Z</time>
      </trkpt>
      <trkpt lat="50.84702" lon="4.36964">
        <ele>72.713</ele>
        <time>2012-08-12T08:21:57Z</time>
      </trkpt>
      <trkpt lat="50.8469" lon="4.36956">
        <ele>73.795</ele>
        <time>2012-08-12T08:21:55Z</time>
      </trkpt>
      <trkpt lat="50.84648" lon="4.36931">
        <ele>75.187</ele>
        <time>2012-08-12T08:21:48Z</time>
      </trkpt>
      <trkpt lat="50.84644" lon="4.36928">
        <ele>75.107</ele>
        <time>2012-08-12T08:21:47Z</time>
      </trkpt>
      <trkpt lat="50.8464" lon="4.36925">
        <ele>75.121</ele>
        <time>2012-08-12T08:21:46Z</time>
      </trkpt>
      <trkpt lat="50.84637" lon="4.36922">
        <ele>75.629</ele>
        <time>2012-08-12T08:21:45Z</time>
      </trkpt>
      <trkpt lat="50.84634" lon="4.3692">
        <ele>75.647</ele>
        <time>2012-08-12T08:21:44Z</time>
      </trkpt>
      <trkpt lat="50.8463" lon="4.36917">
        <ele>75.66</ele>
        <time>2012-08-12T08:21:43Z</time>
      </trkpt>
      <trkpt lat="50.8462" lon="4.36909">
        <ele>75.687</ele>
        <time>2012-08-12T08:21:41Z</time>
      </trkpt>
      <trkpt lat="50.84578" lon="4.36888">
        <ele>76.134</ele>
        <time>2012-08-12T08:21:34Z</time>
      </trkpt>
      <trkpt lat="50.84546" lon="4.36874">
        <ele>77.584</ele>
        <time>2012-08-12T08:21:27Z</time>
      </trkpt>
      <trkpt lat="50.84545" lon="4.36874">
        <ele>77.062</ele>
        <time>2012-08-12T08:21:26Z</time>
      </trkpt>
      <trkpt lat="50.84542" lon="4.36873">
        <ele>77.534</ele>
        <time>2012-08-12T08:21:25Z</time>
      </trkpt>
      <trkpt lat="50.8454" lon="4.36871">
        <ele>77.046</ele>
        <time>2012-08-12T08:21:24Z</time>
      </trkpt>
      <trkpt lat="50.84539" lon="4.3687">
        <ele>77.007</ele>
        <time>2012-08-12T08:21:23Z</time>
      </trkpt>
      <trkpt lat="50.84535" lon="4.3687">
        <ele>76.611</ele>
        <time>2012-08-12T08:21:15Z</time>
      </trkpt>
      <trkpt lat="50.84529" lon="4.36874">
        <ele>77.092</ele>
        <time>2012-08-12T08:21:07Z</time>
      </trkpt>
      <trkpt lat="50.84456" lon="4.36835">
        <ele>78.032</ele>
        <time>2012-08-12T08:20:53Z</time>
      </trkpt>
      <trkpt lat="50.84374" lon="4.36791">
        <ele>79.021</ele>
        <time>2012-08-12T08:20:39Z</time>
      </trkpt>
      <trkpt lat="50.84346" lon="4.36776">
        <ele>79.058</ele>
        <time>2012-08-12T08:20:34Z</time>
      </trkpt>
      <trkpt lat="50.8434" lon="4.36773">
        <ele>79.085</ele>
        <time>2012-08-12T08:20:33Z</time>
      </trkpt>
      <trkpt lat="50.84335" lon="4.3677">
        <ele>79.055</ele>
        <time>2012-08-12T08:20:32Z</time>
      </trkpt>
      <trkpt lat="50.84303" lon="4.36753">
        <ele>79.033</ele>
        <time>2012-08-12T08:20:26Z</time>
      </trkpt>
      <trkpt lat="50.84272" lon="4.36738">
        <ele>79.985</ele>
        <time>2012-08-12T08:20:19Z</time>
      </trkpt>
      <trkpt lat="50.84262" lon="4.36737">
        <ele>79.567</ele>
        <time>2012-08-12T08:20:08Z</time>
      </trkpt>
      <trkpt lat="50.84229" lon="4.36721">
        <ele>79.507</ele>
        <time>2012-08-12T08:19:57Z</time>
      </trkpt>
      <trkpt lat="50.84224" lon="4.36718">
        <ele>79.911</ele>
        <time>2012-08-12T08:19:56Z</time>
      </trkpt>
      <trkpt lat="50.84199" lon="4.36705">
        <ele>79.947</ele>
        <time>2012-08-12T08:19:51Z</time>
      </trkpt>
      <trkpt lat="50.84135" lon="4.36672">
        <ele>80.945</ele>
        <time>2012-08-12T08:19:38Z</time>
      </trkpt>
      <trkpt lat="50.8413" lon="4.36669">
        <ele>80.931</ele>
        <time>2012-08-12T08:19:37Z</time>
      </trkpt>
      <trkpt lat="50.84113" lon="4.36658">
        <ele>80.948</ele>
        <time>2012-08-12T08:19:34Z</time>
      </trkpt>
      <trkpt lat="50.84097" lon="4.3665">
        <ele>81.455</ele>
        <time>2012-08-12T08:19:31Z</time>
      </trkpt>
      <trkpt lat="50.84091" lon="4.36646">
        <ele>80.945</ele>
        <time>2012-08-12T08:19:30Z</time>
      </trkpt>
      <trkpt lat="50.84086" lon="4.36642">
        <ele>81.493</ele>
        <time>2012-08-12T08:19:29Z</time>
      </trkpt>
      <trkpt lat="50.84082" lon="4.36635">
        <ele>81.445</ele>
        <time>2012-08-12T08:19:28Z</time>
      </trkpt>
      <trkpt lat="50.84079" lon="4.36628">
        <ele>81.937</ele>
        <time>2012-08-12T08:19:27Z</time>
      </trkpt>
      <trkpt lat="50.84076" lon="4.36621">
        <ele>81.407</ele>
        <time>2012-08-12T08:19:26Z</time>
      </trkpt>
      <trkpt lat="50.84072" lon="4.36614">
        <ele>81.409</ele>
        <time>2012-08-12T08:19:25Z</time>
      </trkpt>
      <trkpt lat="50.84068" lon="4.36608">
        <ele>81.481</ele>
        <time>2012-08-12T08:19:24Z</time>
      </trkpt>
      <trkpt lat="50.84043" lon="4.36586">
        <ele>81.941</ele>
        <time>2012-08-12T08:19:18Z</time>
      </trkpt>
      <trkpt lat="50.84031" lon="4.36572">
        <ele>82.393</ele>
        <time>2012-08-12T08:18:59Z</time>
      </trkpt>
      <trkpt lat="50.84027" lon="4.3656">
        <ele>81.92</ele>
        <time>2012-08-12T08:18:48Z</time>
      </trkpt>
      <trkpt lat="50.84025" lon="4.36556">
        <ele>81.957</ele>
        <time>2012-08-12T08:18:47Z</time>
      </trkpt>
      <trkpt lat="50.84022" lon="4.36551">
        <ele>81.987</ele>
        <time>2012-08-12T08:18:46Z</time>
      </trkpt>
      <trkpt lat="50.83993" lon="4.36498">
        <ele>82.325</ele>
        <time>2012-08-12T08:18:37Z</time>
      </trkpt>
      <trkpt lat="50.83962" lon="4.36464">
        <ele>83.847</ele>
        <time>2012-08-12T08:18:31Z</time>
      </trkpt>
      <trkpt lat="50.83957" lon="4.36457">
        <ele>83.879</ele>
        <time>2012-08-12T08:18:30Z</time>
      </trkpt>
      <trkpt lat="50.83943" lon="4.36434">
        <ele>84.707</ele>
        <time>2012-08-12T08:18:27Z</time>
      </trkpt>
      <trkpt lat="50.83938" lon="4.36426">
        <ele>84.724</ele>
        <time>2012-08-12T08:18:26Z</time>
      </trkpt>
      <trkpt lat="50.83934" lon="4.36417">
        <ele>84.704</ele>
        <time>2012-08-12T08:18:25Z</time>
      </trkpt>
      <trkpt lat="50.8393" lon="4.36408">
        <ele>84.769</ele>
        <time>2012-08-12T08:18:24Z</time>
      </trkpt>
      <trkpt lat="50.83928" lon="4.364">
        <ele>85.231</ele>
        <time>2012-08-12T08:18:23Z</time>
      </trkpt>
      <trkpt lat="50.83925" lon="4.36391">
        <ele>85.298</ele>
        <time>2012-08-12T08:18:22Z</time>
      </trkpt>
      <trkpt lat="50.83923" lon="4.36383">
        <ele>85.235</ele>
        <time>2012-08-12T08:18:21Z</time>
      </trkpt>
      <trkpt lat="50.83921" lon="4.36375">
        <ele>85.715</ele>
        <time>2012-08-12T08:18:20Z</time>
      </trkpt>
      <trkpt lat="50.83914" lon="4.3636">
        <ele>85.773</ele>
        <time>2012-08-12T08:18:18Z</time>
      </trkpt>
      <trkpt lat="50.83892" lon="4.36317">
        <ele>86.775</ele>
        <time>2012-08-12T08:18:12Z</time>
      </trkpt>
      <trkpt lat="50.83851" lon="4.36228">
        <ele>88.177</ele>
        <time>2012-08-12T08:17:58Z</time>
      </trkpt>
      <trkpt lat="50.83848" lon="4.36222">
        <ele>88.607</ele>
        <time>2012-08-12T08:17:57Z</time>
      </trkpt>
      <trkpt lat="50.83846" lon="4.36216">
        <ele>88.614</ele>
        <time>2012-08-12T08:17:56Z</time>
      </trkpt>
      <trkpt lat="50.83834" lon="4.36185">
        <ele>88.622</ele>
        <time>2012-08-12T08:17:49Z</time>
      </trkpt>
      <trkpt lat="50.83833" lon="4.36182">
        <ele>88.642</ele>
        <time>2012-08-12T08:17:48Z</time>
      </trkpt>
      <trkpt lat="50.83832" lon="4.3618">
        <ele>88.194</ele>
        <time>2012-08-12T08:17:47Z</time>
      </trkpt>
      <trkpt lat="50.83831" lon="4.36178">
        <ele>88.651</ele>
        <time>2012-08-12T08:17:46Z</time>
      </trkpt>
      <trkpt lat="50.8383" lon="4.36176">
        <ele>88.678</ele>
        <time>2012-08-12T08:17:45Z</time>
      </trkpt>
      <trkpt lat="50.83829" lon="4.3617">
        <ele>89.118</ele>
        <time>2012-08-12T08:17:22Z</time>
      </trkpt>
      <trkpt lat="50.83831" lon="4.3617">
        <ele>88.676</ele>
        <time>2012-08-12T08:16:54Z</time>
      </trkpt>
      <trkpt lat="50.83812" lon="4.36125">
        <ele>88.658</ele>
        <time>2012-08-12T08:16:39Z</time>
      </trkpt>
      <trkpt lat="50.83774" lon="4.36033">
        <ele>86.79</ele>
        <time>2012-08-12T08:16:24Z</time>
      </trkpt>
      <trkpt lat="50.83736" lon="4.35941">
        <ele>85.207</ele>
        <time>2012-08-12T08:16:10Z</time>
      </trkpt>
      <trkpt lat="50.83686" lon="4.35825">
        <ele>83.819</ele>
        <time>2012-08-12T08:15:53Z</time>
      </trkpt>
      <trkpt lat="50.83638" lon="4.35708">
        <ele>82.39</ele>
        <time>2012-08-12T08:15:36Z</time>
      </trkpt>
      <trkpt lat="50.83636" lon="4.35701">
        <ele>82.376</ele>
        <time>2012-08-12T08:15:35Z</time>
      </trkpt>
      <trkpt lat="50.83626" lon="4.35673">
        <ele>81.469</ele>
        <time>2012-08-12T08:15:31Z</time>
      </trkpt>
      <trkpt lat="50.83617" lon="4.35651">
        <ele>81.976</ele>
        <time>2012-08-12T08:15:28Z</time>
      </trkpt>
      <trkpt lat="50.83575" lon="4.35569">
        <ele>79.953</ele>
        <time>2012-08-12T08:15:15Z</time>
      </trkpt>
      <trkpt lat="50.83571" lon="4.35563">
        <ele>79.913</ele>
        <time>2012-08-12T08:15:14Z</time>
      </trkpt>
      <trkpt lat="50.83567" lon="4.35558">
        <ele>79.931</ele>
        <time>2012-08-12T08:15:13Z</time>
      </trkpt>
      <trkpt lat="50.83562" lon="4.35555">
        <ele>79.573</ele>
        <time>2012-08-12T08:15:12Z</time>
      </trkpt>
      <trkpt lat="50.83557" lon="4.35553">
        <ele>79.565</ele>
        <time>2012-08-12T08:15:11Z</time>
      </trkpt>
      <trkpt lat="50.83552" lon="4.35552">
        <ele>79.507</ele>
        <time>2012-08-12T08:15:10Z</time>
      </trkpt>
      <trkpt lat="50.83547" lon="4.35554">
        <ele>79.914</ele>
        <time>2012-08-12T08:15:09Z</time>
      </trkpt>
      <trkpt lat="50.83537" lon="4.35563">
        <ele>79.968</ele>
        <time>2012-08-12T08:15:07Z</time>
      </trkpt>
      <trkpt lat="50.83452" lon="4.35649">
        <ele>80.427</ele>
        <time>2012-08-12T08:14:51Z</time>
      </trkpt>
      <trkpt lat="50.83366" lon="4.35738">
        <ele>80.911</ele>
        <time>2012-08-12T08:14:37Z</time>
      </trkpt>
      <trkpt lat="50.83361" lon="4.35745">
        <ele>81.458</ele>
        <time>2012-08-12T08:14:36Z</time>
      </trkpt>
      <trkpt lat="50.83357" lon="4.35755">
        <ele>81.415</ele>
        <time>2012-08-12T08:14:35Z</time>
      </trkpt>
      <trkpt lat="50.83355" lon="4.35766">
        <ele>81.495</ele>
        <time>2012-08-12T08:14:34Z</time>
      </trkpt>
      <trkpt lat="50.83352" lon="4.35776">
        <ele>81.483</ele>
        <time>2012-08-12T08:14:33Z</time>
      </trkpt>
      <trkpt lat="50.83347" lon="4.35785">
        <ele>80.985</ele>
        <time>2012-08-12T08:14:32Z</time>
      </trkpt>
      <trkpt lat="50.83261" lon="4.35875">
        <ele>82.837</ele>
        <time>2012-08-12T08:14:18Z</time>
      </trkpt>
      <trkpt lat="50.83254" lon="4.35881">
        <ele>82.807</ele>
        <time>2012-08-12T08:14:17Z</time>
      </trkpt>
      <trkpt lat="50.83229" lon="4.35907">
        <ele>83.31</ele>
        <time>2012-08-12T08:14:13Z</time>
      </trkpt>
      <trkpt lat="50.83151" lon="4.35992">
        <ele>83.864</ele>
        <time>2012-08-12T08:14:01Z</time>
      </trkpt>
      <trkpt lat="50.83146" lon="4.35999">
        <ele>83.843</ele>
        <time>2012-08-12T08:14:00Z</time>
      </trkpt>
      <trkpt lat="50.83079" lon="4.36066">
        <ele>85.724</ele>
        <time>2012-08-12T08:13:48Z</time>
      </trkpt>
      <trkpt lat="50.83057" lon="4.36087">
        <ele>86.211</ele>
        <time>2012-08-12T08:13:44Z</time>
      </trkpt>
      <trkpt lat="50.83051" lon="4.36094">
        <ele>86.288</ele>
        <time>2012-08-12T08:13:43Z</time>
      </trkpt>
      <trkpt lat="50.8304" lon="4.36106">
        <ele>86.298</ele>
        <time>2012-08-12T08:13:41Z</time>
      </trkpt>
      <trkpt lat="50.83001" lon="4.36145">
        <ele>87.156</ele>
        <time>2012-08-12T08:13:33Z</time>
      </trkpt>
      <trkpt lat="50.82939" lon="4.36217">
        <ele>89.118</ele>
        <time>2012-08-12T08:13:20Z</time>
      </trkpt>
      <trkpt lat="50.82934" lon="4.36221">
        <ele>90.01</ele>
        <time>2012-08-12T08:13:19Z</time>
      </trkpt>
      <trkpt lat="50.82897" lon="4.36262">
        <ele>90.507</ele>
        <time>2012-08-12T08:13:11Z</time>
      </trkpt>
      <trkpt lat="50.82865" lon="4.36293">
        <ele>92.915</ele>
        <time>2012-08-12T08:13:03Z</time>
      </trkpt>
      <trkpt lat="50.82861" lon="4.36297">
        <ele>92.941</ele>
        <time>2012-08-12T08:13:02Z</time>
      </trkpt>
      <trkpt lat="50.82845" lon="4.36314">
        <ele>94.471</ele>
        <time>2012-08-12T08:12:58Z</time>
      </trkpt>
      <trkpt lat="50.82839" lon="4.36321">
        <ele>93.916</ele>
        <time>2012-08-12T08:12:57Z</time>
      </trkpt>
      <trkpt lat="50.82832" lon="4.36327">
        <ele>94.873</ele>
        <time>2012-08-12T08:12:55Z</time>
      </trkpt>
      <trkpt lat="50.8282" lon="4.36342">
        <ele>94.85</ele>
        <time>2012-08-12T08:12:52Z</time>
      </trkpt>
      <trkpt lat="50.82805" lon="4.36356">
        <ele>95.36</ele>
        <time>2012-08-12T08:12:48Z</time>
      </trkpt>
      <trkpt lat="50.82793" lon="4.36371">
        <ele>98.298</ele>
        <time>2012-08-12T08:12:45Z</time>
      </trkpt>
      <trkpt lat="50.82768" lon="4.36395">
        <ele>101.14</ele>
        <time>2012-08-12T08:12:38Z</time>
      </trkpt>
      <trkpt lat="50.82765" lon="4.36399">
        <ele>101.692</ele>
        <time>2012-08-12T08:12:37Z</time>
      </trkpt>
      <trkpt lat="50.82762" lon="4.36404">
        <ele>101.107</ele>
        <time>2012-08-12T08:12:36Z</time>
      </trkpt>
      <trkpt lat="50.82761" lon="4.3641">
        <ele>101.123</ele>
        <time>2012-08-12T08:12:35Z</time>
      </trkpt>
      <trkpt lat="50.82765" lon="4.36442">
        <ele>100.649</ele>
        <time>2012-08-12T08:12:31Z</time>
      </trkpt>
      <trkpt lat="50.82765" lon="4.3645">
        <ele>100.195</ele>
        <time>2012-08-12T08:12:30Z</time>
      </trkpt>
      <trkpt lat="50.82765" lon="4.36466">
        <ele>100.16</ele>
        <time>2012-08-12T08:12:28Z</time>
      </trkpt>
      <trkpt lat="50.82764" lon="4.36473">
        <ele>100.177</ele>
        <time>2012-08-12T08:12:27Z</time>
      </trkpt>
      <trkpt lat="50.82764" lon="4.36481">
        <ele>100.194</ele>
        <time>2012-08-12T08:12:26Z</time>
      </trkpt>
      <trkpt lat="50.82756" lon="4.3658">
        <ele>96.874</ele>
        <time>2012-08-12T08:12:13Z</time>
      </trkpt>
      <trkpt lat="50.82761" lon="4.36673">
        <ele>94.462</ele>
        <time>2012-08-12T08:11:56Z</time>
      </trkpt>
      <trkpt lat="50.82767" lon="4.36706">
        <ele>93.964</ele>
        <time>2012-08-12T08:11:47Z</time>
      </trkpt>
      <trkpt lat="50.82754" lon="4.36728">
        <ele>100.196</ele>
        <time>2012-08-12T08:09:02Z</time>
      </trkpt>
      <trkpt lat="50.82755" lon="4.36733">
        <ele>100.107</ele>
        <time>2012-08-12T08:08:34Z</time>
      </trkpt>
      <trkpt lat="50.82751" lon="4.36739">
        <ele>100.61</ele>
        <time>2012-08-12T08:08:11Z</time>
      </trkpt>
      <trkpt lat="50.8275" lon="4.36741">
        <ele>100.155</ele>
        <time>2012-08-12T08:07:39Z</time>
      </trkpt>
      <trkpt lat="50.82761" lon="4.36765">
        <ele>100.134</ele>
        <time>2012-08-12T08:07:38Z</time>
      </trkpt>
    </trkseg>
  </trk>
</gpx>